     2              OBSERVATION DATA    GPS                 RINEX VERSION / TYPE
ASRINEXO V2.4.4 UX USGS 27-APR-98 15:18                     PGM / RUN BY / DATE
                                                            COMMENT
Original Marker Name: edom Edom_2_1974_NCER                 COMMENT
Campaign Name: usgs.coach.monit                             COMMENT
4-Character Station Name: EDOM                              COMMENT
6-Character Antenna Code: DMRCHT                            COMMENT
Vertical Measurement Point: BCR                             COMMENT
Vertical Offset to Rinex Ref. Point: 0.0348                 COMMENT
Radial Measurement Point: ECF                               COMMENT
Radial Offset to Rinex Ref. Point: 0.1897                   COMMENT
Antenna Height from Field Measurement: 1.4125 m             COMMENT
Additional Antenna Identification Info.:                    COMMENT
Turborogue and Ashtech Choke Ring                           COMMENT
Original XYZ: -2359900.7484 -4747460.1475 3534792.4078      COMMENT
New XYZ position is based on association with SCEC monument COMMENT
E1D0U1U6+0011. Position of that monument is believed to be  COMMENT
valid to within 1 m horizontally; vertical accuracy         COMMENT
should be no worse than 3-times this value.                 COMMENT
                                                            COMMENT
Revised Rinex header created by UCSD GPS archive for        COMMENT
GSAC on 10-Nov-1999 (1999:314) 22:22:16 GMT                 COMMENT
For assistance contact dagnew@ucsd.edu or hjohnson@ucsd.edu COMMENT
                                                            COMMENT
EDOM EDOM_2_1974_NCER                                       MARKER NAME
JMS US GEOLOGICAL SURVEY                                    OBSERVER / AGENCY
597 ASHTECH Z-XII3 1E95                                     REC # / TYPE / VERS
330 DORNE-MARGOL. TYPE T                                    ANT # / TYPE
 -2359882.0000 -4747477.0000  3534774.0000                  APPROX POSITION XYZ
        1.3649        0.0000        0.0000                  ANTENNA: DELTA H/E/N
     1     1     0                                          WAVELENGTH FACT L1/2
     5    C1    L1    L2    P1    P2                        # / TYPES OF OBSERV
    30                                                      INTERVAL
  1998     4    21     2    24   30.000000                  TIME OF FIRST OBS
  1998     4    21    23    58   60.000000                  TIME OF LAST OBS
                                                            END OF HEADER
 98  4 21  2 24 30.0000000  0  7 17 26 23 22  3  6 21
  21003196.987       53322.28349     39736.17349  21003195.6104   21003200.9264
  22679919.652      232449.35049    165982.84849  22679918.9994   22679923.7394
  21003396.498                                    21003396.681    21003378.0224
  24263470.460      170986.62749    125860.62149  24263469.8894   24263478.3574
  23923392.080     -339676.47549   -251094.57549  23923389.5524   23923395.7364
  22234134.445      393951.09049    295832.41949  22234134.0894   22234140.5114
  22795065.784     -207028.70449   -153232.47649  22795064.6954   22795072.1124
 98  4 21  2 25  0.0000000  0  7 17 26 23 22  3  6 21
  21005430.183       65058.45749     48881.26849  21005428.7944   21005434.2874
  22691322.048      292369.30149    212673.73049  22691321.9054   22691326.2064
  21003444.771                                    21003444.768    21003396.9704
  24273165.557      221933.27749    165559.28149  24273162.8094   24273171.3804
  23906311.716     -429428.19849   -321030.88849  23906309.6264   23906316.4754
  22252463.291      490268.69349    370885.08049  22252462.8904   22252469.0354
  22784495.072     -262577.22449   -196516.96149  22784494.1034   22784500.5114
 98  4 21  2 25 30.0000000  0  7 17 26 23 22  3  6 21
  21007538.156       76136.42149     57513.46749  21007537.0254   21007542.4524
  22702660.612      351954.15149    259103.50049  22702660.1154   22702664.4124
  21003394.259                                    21003394.133    21003419.5024
  24282757.044      272338.14049    204835.76549  24282757.0074   24282764.6054
  23889109.140     -519825.61849   -391470.35149  23889107.9254   23889114.1264
  22270693.753      586069.56149    445535.09949  22270692.8804   22270699.5814
  22773804.853     -318754.19349   -240291.13349  22773803.7444   22773810.3784
 98  4 21  2 26  0.0000000  0  7 17 26 23 22  3  6 21
  21009551.846       86718.51849     65759.27749  21009550.6714   21009556.0674
  22713962.152      411344.09949    305381.40749  22713961.6024   22713966.0744
  21003273.006        -299.01459                  21003271.937    21003277.2994
  24292274.201      322349.26349    243805.44449  24292271.3404   24292279.7694
  23871811.709     -610723.24149   -462299.55349  23871810.9494   23871817.2984
  22288858.779      681527.19549    519917.66149  22288858.2944   22288864.2654
  22763026.129     -375397.10649   -284428.38949  22763024.7364   22763031.4464
 98  4 21  2 26 30.0000000  0  7 17 26 23 22  3  6 21
  21011499.492       96953.63549     73734.71049  21011498.5724   21011503.9854
  22725253.689      470681.61949    351618.44349  22725253.3154   22725258.6894
  21003109.534        7087.63559      -968.48149  21003108.6104   21003114.0874
  24301741.035      372099.37749    282571.71549  24301740.9154   24301747.8964
  23854444.935     -701985.26749   -533412.72149  23854443.9724   23854451.2014
  22306986.432      776788.26449    594147.04449  22306985.9654   22306991.9374
  22752188.209     -432350.52149   -328807.59749  22752187.0894   22752193.9744
 98  4 21  2 27  0.0000000  0  7 17 26 23 22  3  6 21
  21013398.529      106933.26049     81511.06549  21013397.4284   21013402.9394
  22736552.966      530059.80549    397887.18649  22736551.6534   22736557.6454
  21002922.242        6103.20749     -1735.53549  21002921.2404   21002926.4634
  24311176.912      421683.97849    321209.06749  24311176.0734   24311183.5974
  23837025.073     -793526.41049   -604743.39649  23837023.9024   23837030.9904
  22325093.322      871940.35549    668291.50749  22325092.7704   22325099.1674
  22741308.007     -489526.17149   -373359.97749  22741307.1714   22741313.8374
 98  4 21  2 27 30.0000000  0  7 17 26 23 22  3  6 21
  21015270.729      116771.89949     89177.56149  21015269.6024   21015275.0314
  22747877.292      589569.63049    444258.49049  22747876.4934   22747882.2004
  21002730.666        5096.48049     -2519.96349  21002729.7034   21002734.8874
  24320601.053      471208.83549    359799.78749  24320598.9404   24320608.8974
  23819574.795     -885227.77549   -676198.91549  23819574.3324   23819581.6374
  22343197.756      967080.00249    742426.26949  22343197.5364   22343203.2834
  22730404.082     -546826.29749   -418009.34149  22730402.8804   22730409.8924
 98  4 21  2 28  0.0010000  0  7 17 26 23 22  3  6 21
  21017130.502      126545.15949     96793.10549  21017129.5144   21017134.9434
  22759239.222      649276.91849    490783.66149  22759238.5674   22759243.7974
  21002548.241        4137.60449     -3267.11149  21002547.3994   21002552.5404
  24330027.615      520745.32249    398399.64949  24330027.8024   24330033.6234
  23802110.237     -977004.75049   -747713.35649  23802109.8024   23802116.5114
  22361309.196     1062256.08349    816589.42649  22361308.5984   22361314.5484
  22719489.430     -604183.33349   -462703.06149  22719488.6654   22719494.9614
 98  4 21  2 28 30.0010000  0  7 17 26 23 22  3  6 21
  21018986.807      136300.15749    104394.42249  21018985.7694   21018991.3704
  22770651.477      709248.60949    537514.86349  22770651.0964   22770656.0794
  21002385.432        3282.13749     -3933.67549  21002384.5224   21002389.7314
  24339468.020      570353.80449    437055.57349  24339466.6484   24339475.9174
  23784645.561    -1068782.19649   -819228.16049  23784645.4234   23784651.7734
  22379432.199     1157492.96549    890799.96549  22379432.0424   22379438.0604
  22708571.443     -661557.52949   -507410.14049  22708570.3444   22708577.2234
 98  4 21  2 29  0.0010000  0  7 17 26 23 22  3  6 21
  21020848.464      146082.95649    112017.40149  21020847.4804   21020853.2084
  22782126.600      769550.69949    584503.52149  22782126.2824   22782130.7144
  21002248.287        2561.36549     -4495.28849  21002247.3674   21002252.4354
  24348933.857      620098.25549    475817.42349  24348931.7254   24348941.0634
  23767190.932    -1160506.55049   -890701.59349  23767190.6364   23767197.3224
  22397575.472     1252836.36649    965093.50549  22397574.7024   22397581.5974
  22697659.366     -718900.78049   -552093.11949  22697658.3784   22697664.5694
 98  4 21  2 29 30.0010000  0  7 17 26 23 22  3  6 21
  21022722.023      155928.61749    119689.36549  21022721.0034   21022726.4804
  22793670.152      830212.87649    631772.76449  22793669.4914   22793674.6774
  21002139.201        1988.23249     -4941.85549  21002138.1824   21002143.5354
  24358433.450      670018.41049    514716.22849  24358433.3474   24358440.2984
  23749752.384    -1252146.61749   -962109.35249  23749751.2294   23749758.5704
  22415744.968     1348317.73549   1039494.55449  22415745.0934   22415750.9014
  22686761.136     -776171.30049   -596719.41749  22686760.2034   22686767.1184
 98  4 21  2 30  0.0010000  0  7 17 26 23 22  3  6 21
  21024613.670      165869.09349    127435.21549  21024612.6344   21024617.9024
  22805291.104      891282.50749    679359.50249  22805290.6464   22805295.3934
  21002064.620        1596.19149     -5247.30649  21002063.7444   21002068.9014
  24367973.945      720154.09949    553782.95849  24367972.8034   24367980.5514
  23732334.231    -1343679.18049  -1033433.35749  23732333.6774   23732340.3494
  22433947.542     1443972.69849   1114030.87649  22433947.2914   22433953.2624
  22675886.550     -833317.84149   -641249.10849  22675885.4714   22675891.6514
 98  4 21  2 30 30.0010000  0  7 17 26 23 22  3  6 21
  21026525.978      175918.29649    135265.77749  21026524.8304   21026530.4484
  22816992.985      952777.21749    727277.46649  22816993.2544   22816998.5544
  21002026.981        1398.41649     -5401.39349  21002026.0604   21002031.1344
  24377557.589      770516.38049    593026.23749  24377556.5394   24377564.9644
  23714939.347    -1435090.25149  -1104662.68149  23714938.4604   23714944.9044
  22452192.007     1539847.66049   1188738.61449  22452191.7914   22452198.3294
  22665039.123     -890320.97149   -685667.05449  22665037.8114   22665044.2254
 98  4 21  2 31  0.0010000  0  7 17 26 23 22  3  6 21
  21028461.801      186091.17049    143192.71349  21028460.6204   21028466.1904
  22828772.836     1014680.78949    775514.01149  22828773.0294   22828777.9984
  21002029.578        1412.21049     -5390.60949  21002028.5784   21002033.7244
  24387183.236      821098.77849    632441.06449  24387183.5044   24387189.7304
  23697568.323    -1526375.45849  -1175793.93149  23697566.7464   23697574.2114
  22470482.782     1635966.24649   1263636.19449  22470482.9384   22470488.7174
  22654223.642     -947156.47749   -729954.38649  22654222.9184   22654228.9414
 98  4 21  2 31 30.0010000  0  7 17 26 23 22  3  6 21
  21030426.041      196413.44349    151236.06349  21030424.9504   21030430.4764
  22840627.926     1076979.48149    824058.45449  22840627.6334   22840632.5494
  21002076.749        1660.01849     -5197.48349  21002075.8554   21002080.8614
  24396848.223      871887.89049    672016.95149  24396847.2544   24396856.3984
  23680223.793    -1617521.27449  -1246816.57649  23680223.2434   23680229.6764
  22488820.390     1732330.84049   1338725.47749  22488819.9244   22488826.5154
  22643440.189    -1003823.54849   -774110.46349  22643439.0834   22643445.3734
 98  4 21  2 32  0.0010000  0  7 17 26 23 22  3  6 21
  21032422.367      206904.28149    159410.76649  21032421.3584   21032426.8774
  22852560.411     1139684.83449    872919.78249  22852560.3324   22852564.8924
  21002174.103        2171.66749     -4798.76249  21002173.3184   21002178.4454
  24406552.765      922885.44149    711755.25249  24406551.5664   24406560.3424
  23662913.744    -1708485.85649  -1317697.97549  23662913.2264   23662918.9954
  22507206.896     1828952.13749   1414014.77249  22507206.5254   22507212.4624
  22632690.824    -1060311.19449   -818126.73549  22632689.8754   22632696.4954
 98  4 21  2 32 30.0010000  0  7 17 26 23 22  3  6 21
  21034456.939      217595.98549    167741.98049  21034455.9894   21034461.4014
  22864572.316     1202807.58349    922106.34149  22864571.9064   22864577.0024
  21002326.467        2972.36349     -4174.81449  21002325.5834   21002330.7394
  24416299.937      974106.44449    751667.67249  24416298.5384   24416307.4424
  23645647.425    -1799221.09449  -1388400.67749  23645646.7994   23645653.3584
  22525646.708     1925853.77949   1489522.50849  22525646.1604   22525652.6614
  22621978.285    -1116605.70849   -861992.52049  22621977.4514   22621983.6894
 98  4 21  2 33  0.0010000  0  7 17 26 23 22  3  6 21
  21036529.559      228487.85249    176229.16749  21036528.4544   21036534.0454
  22876660.259     1266329.95049    971604.30449  22876661.0374   22876665.2794
  21002531.579        4050.29549     -3334.83649  21002530.8204   21002535.8734
  24426087.825     1025542.60049    791747.73149  24426086.9724   24426095.2234
  23628422.484    -1889738.22749  -1458933.43149  23628422.5834   23628428.3704
  22544132.439     2022996.76249   1565218.30649  22544131.6624   22544138.1934
  22611299.413    -1172723.05649   -905720.25349  22611298.7244   22611305.0194
 98  4 21  2 33 30.0010000  0  7 17 26 23 22  3  6 21
  21038639.728      239576.88949    184869.99449  21038638.6044   21038644.1324
  22888829.427     1330278.04549   1021434.00749  22888828.9834   22888834.5254
  21002790.907        5412.98749     -2272.96549  21002789.8414   21002795.1914
  24435920.405     1077212.83049    832010.23249  24435920.2544   24435926.9514
  23611242.840    -1980017.81649  -1529281.07349  23611242.3774   23611247.2594
  22562664.877     2120385.20449   1641105.38549  22562664.6824   22562671.1754
  22600654.566    -1228661.90049   -949308.89949  22600653.0934   22600660.0814
 98  4 21  2 34  0.0010000  0  7 17 26 23 22  3  6 21
  21040791.831      250886.53049    193682.72049  21040790.8744   21040796.5654
  22901088.289     1394698.10049   1071631.45349  22901088.2764   22901093.1814
  21003111.276        7096.75749      -960.90549  21003110.4094   21003115.6304
  24445806.500     1129164.05349    872491.62749  24445805.7014   24445815.2134
  23594116.577    -2070016.82549  -1599410.08649  23594115.7444   23594122.3104
  22581252.602     2218063.93549   1717218.65449  22581252.2344   22581258.7434
  22590053.020    -1284372.88049   -992719.97849  22590052.3424   22590059.0464
 98  4 21  2 34 30.0010000  0  7 17 26 23 22  3  6 21
  21042997.528      262477.64149    202714.77649  21042996.5374   21043002.0184
  22913450.157     1459659.86749   1122251.01949  22913449.9794   22913454.7414
  21003504.199        9161.79649       648.24549  21003503.3474   21003508.3704
  24455757.622     1181457.72449    913239.90249  24455758.1214   24455764.6724
  23577050.350    -2159699.66649  -1669292.74349  23577049.6384   23577055.8994
  22599907.223     2316094.71449   1793606.24449  22599906.7904   22599913.1414
  22579507.454    -1339790.12449  -1035902.18149  22579506.5134   22579512.8504
 98  4 21  2 35  0.0010000  0  7 17 26 23 22  3  6 21
  21045256.544      274348.99049    211965.20149  21045255.6234   21045261.1894
  22925916.227     1525169.90749   1173297.79649  22925915.8594   22925920.3374
  21003972.154       11621.14249      2564.65149  21003971.2334   21003976.4914
  24465773.821     1234091.96749    954253.57349  24465771.6394   24465781.4594
  23560042.116    -2249078.51649  -1738938.49649  23560041.4234   23560047.8084
  22618627.938     2414472.80349   1870264.47149  22618627.3304   22618633.7774
  22569019.271    -1394905.51949  -1078849.17749  22569018.4244   22569025.0784
 98  4 21  2 35 30.0010000  0  7 17 26 23 22  3  6 21
  21047567.850      286495.25149    221429.84549  21047567.0234   21047572.3904
  22938487.694     1591233.83949   1224776.20249  22938487.4164   22938492.1514
  21004515.070       14474.22149      4787.86349  21004514.1574   21004519.0254
  24475852.261     1287055.48749    995523.76749  24475849.9724   24475860.3104
  23543093.521    -2338143.69849  -1808339.85749  23543092.8964   23543099.0024
  22637417.206     2513210.44749   1947202.88149  22637417.1224   22637423.0944
  22558591.307    -1449704.91349  -1121549.93049  22558590.1434   22558596.5514
 98  4 21  2 36  0.0010000  0  7 17 26 23 22  3  6 21
  21049899.072      298745.68149    230975.65849  21049898.1794   21049903.6294
  22951129.337     1657665.55949   1276541.20249  22951130.2034   22951133.0654
  21005094.379       17518.48049      7160.04649  21005093.4464   21005098.5774
  24485956.537     1340153.77949   1036899.02249  24485956.5454   24485964.2124
  23526168.187    -2427086.31349  -1877645.70749  23526167.3934   23526174.2014
  22656239.195     2612120.58149   2024275.67549  22656239.1124   22656245.2474
  22548190.227    -1504362.74049  -1164140.38049  22548189.3534   22548195.6794
 98  4 21  2 36 30.0010000  0  7 17 26 23 22  3  6 21
  21052257.733      311140.39349    240633.89649  21052256.6764   21052262.0984
  22963848.268     1724502.95549   1328622.31249  22963848.1794   22963853.4604
  21005715.598       20783.02249      9703.87849  21005714.6164   21005719.7924
  24496094.599     1393428.29049   1078411.60949  24496093.0684   24496100.6814
  23509271.434    -2515879.60749  -1946835.19449  23509271.0604   23509276.7864
  22675100.990     2711240.04449   2101511.59049  22675100.2854   22675107.4944
  22537821.789    -1558849.02249  -1206597.15749  22537820.9714   22537827.2374
 98  4 21  2 37  0.0010000  0  8 17 26 23 22  3  6 21  1
  21054651.678      323720.64249    250436.71249  21054650.6994   21054656.1164
  22976650.819     1791780.38349   1381046.30449  22976650.6064   22976655.6484
  21006385.807       24305.21249     12448.47449  21006384.9524   21006389.9954
  24506273.680     1446921.03549   1120094.20449  24506272.7004   24506281.5404
  23492413.336    -2604469.16649  -2015865.92849  23492412.5914   23492419.2654
  22694010.485     2810609.97449   2178942.69549  22694010.2044   22694016.6544
  22527493.752    -1613123.42749  -1248888.83649  22527493.1814   22527498.9764
  24930459.143    -2344069.41459  -1814813.36759  24930456.7244   24930469.4184
 98  4 21  2 37 30.0010000  0  8 17 26 23 22  3  6 21  1
  21057087.161      336519.27649    260409.69549  21057086.3024   21057091.6464
  22989542.752     1859528.92849   1433837.39449  22989541.4724   22989548.6534
  21007107.487       28097.76049     15403.73749  21007106.4334   21007111.6964
  24516502.521     1500672.13049   1161978.15249  24516500.9304   24516510.1694
  23475601.684    -2692814.57049  -2084706.43149  23475600.5904   23475607.2814
  22712972.687     2910256.53849   2256589.36649  22712972.0174   22712978.4404
  22517210.878    -1667160.27549  -1290995.40749  22517209.7904   22517216.4574
  24909817.707    -2452538.92249  -1899334.51249  24909815.7734   24909827.8834
 98  4 21  2 38  0.0010000  0  8 17 26 23 22  3  6 21  1
  21059577.731      349607.44949    270608.29449  21059576.7984   21059582.0584
  23002533.398     1927797.12449   1487033.39049  23002532.2284   23002539.2894
  21007895.021       32236.39749     18628.67949  21007894.1674   21007899.3134
  24526793.165     1554750.55549   1204117.13249  24526790.5864   24526799.9644
  23458847.118    -2780859.48749  -2153312.76949  23458846.2094   23458853.6764
  22731997.953     3010234.51849   2334494.26849  22731998.2854   22732003.8214
  22506982.982    -1720908.10449  -1332876.76849  22506982.1304   22506988.2054
  24889187.914    -2560947.37349  -1983808.05249  24889186.6054   24889197.9514
 98  4 21  2 38 30.0010000  0  8 17 26 23 22  3  6 21  1
  21062109.945      362914.35249    280977.33449  21062108.9654   21062114.5034
  23015606.197     1996496.47949   1540565.35049  23015605.5184   23015612.3494
  21008740.076       36677.16249     22089.04749  21008739.3124   21008744.3464
  24537132.896     1609086.05949   1246456.45549  24537132.1674   24537140.9264
  23442139.288    -2868659.07049  -2221727.94749  23442138.5954   23442145.3964
  22751071.999     3110468.96549   2412599.00749  22751071.8014   22751077.9164
  22496796.386    -1774439.05249  -1374589.13449  22496795.8424   22496801.6834
  24868557.737    -2669357.72649  -2068283.10749  24868555.5474   24868568.7924
 98  4 21  2 39  0.0010000  0  8 17 26 23 22  3  6 21  1
  21064686.624      376454.79649    291528.34349  21064685.7124   21064690.6754
  23028759.504     2065618.02349   1594426.29649  23028759.0924   23028766.3884
  21009644.857       41431.85549     25794.03049  21009643.9964   21009649.0194
  24547520.523     1663672.87749   1288991.58749  24547520.3054   24547528.8194
  23425483.356    -2956186.05849  -2289930.70749  23425482.6664   23425488.5044
  22770194.323     3210957.59449   2490901.80849  22770194.1834   22770200.5914
  22486653.170    -1827741.81349  -1416123.68449  22486652.3054   22486658.5744
  24847926.668    -2777772.22049  -2152761.37549  24847925.3594   24847935.7284
 98  4 21  2 39 30.0010000  0  8 17 26 23 22  3  6 21  1
  21067312.809      390255.76449    302282.36549  21067311.8344   21067317.3054
  23041997.032     2135181.40849   1648631.54349  23041996.9374   23042003.0374
  21010613.809       46523.62549     29761.67649  21010612.9254   21010618.0514
  24557959.775     1718531.78749   1331738.71449  24557958.8094   24557966.4254
  23408885.932    -3043406.23849  -2357894.39049  23408885.9754   23408891.0844
  22789369.106     3311721.62149   2569419.21749  22789367.8294   22789375.6534
  22476558.956    -1880787.38149  -1457457.82849  22476558.2034   22476564.0854
  24827294.242    -2886194.37749  -2237245.68149  24827292.1134   24827302.2124
 98  4 21  2 40  0.0010000  0  8 17 26 23 22  3  6 21  1
  21069986.771      404307.52849    313231.80649  21069985.8924   21069991.0944
  23055315.249     2205168.39049   1703166.85949  23055315.7274   23055320.8304
  21011645.964       51947.69049     33988.25249  21011645.0814   21011650.1264
  24568447.141     1773642.45849   1374682.09349  24568446.8684   24568454.4084
  23392344.189    -3130333.75749  -2425630.03749  23392342.7084   23392349.8874
  22808596.316     3412761.25649   2648151.38849  22808595.7684   22808603.3374
  22466512.124    -1933583.66649  -1498597.72449  22466511.0784   22466517.3454
  24806656.091    -2994646.03849  -2321752.96549  24806653.5614   24806665.3514
 98  4 21  2 40 30.0010000  0  8 17 26 23 22  3  6 21  1
  21072712.013      418628.98749    324391.39949  21072710.9764   21072716.5594
  23068720.325     2275611.53349   1758057.62349  23068720.7374   23068725.2714
  21012739.970       57696.89449     38468.18149  21012739.1434   21012744.2304
  24578984.077     1829013.57549   1417828.35549  24578981.3354   24578991.9624
  23375864.281    -3216936.39649  -2493112.53349  23375863.5664   23375868.9024
  22827879.278     3514093.75149   2727111.75749  22827879.0184   22827885.5804
  22456514.630    -1986120.59449  -1539535.52949  22456513.9294   22456519.7884
  24786014.568    -3103115.87049  -2406274.42549  24786011.9514   24786022.9694
 98  4 21  2 41  0.0010000  0  8 17 26 23 22  3  6 21  1
  21075473.640      433141.28049    335699.70649  21075472.6944   21075477.9384
  23082200.871     2346451.36049   1813257.50149  23082200.6054   23082205.2254
  21013875.213       63662.73349     43116.92049  21013874.3384   21013879.5494
  24589554.022     1884559.96849   1461111.18949  24589554.0864   24589561.6074
  23359430.518    -3303296.05049  -2560405.69249  23359430.0234   23359435.5394
  22847202.310     3615637.20249   2806236.48849  22847202.2014   22847208.3174
  22446549.021    -2038489.98249  -1580342.77849  22446548.2884   22446554.4014
  24765352.840    -3211691.84549  -2490878.59449  24765351.0344   24765360.8324
 98  4 21  2 41 30.0010000  0  8 17 26 23 22  3  6 21  1
  21078271.998      447846.48149    347158.32649  21078271.1074   21078276.3324
  23095761.467     2417713.06149   1868786.11349  23095760.2784   23095764.7444
  21015053.448       69854.28849     47941.53749  21015052.4324   21015057.5674
  24600160.924     1940298.41649   1504543.72849  24600160.3534   24600168.4194
  23343043.016    -3389412.47249  -2627509.30549  23343042.3184   23343048.2624
  22866568.648     3717407.76849   2885538.21149  22866567.9544   22866574.4794
  22436616.757    -2090683.93749  -1621013.33049  22436615.6544   22436621.6404
  24744675.872    -3320347.53949  -2575544.88349  24744673.8994   24744684.9634
 98  4 21  2 42  0.0010000  0  8 17 26 23 22  3  6 21  1
  21081107.929      462749.38149    358770.99649  21081106.7244   21081112.1314
  23109404.629     2489409.34549   1924653.35349  23109403.7734   23109408.9824
  21016274.013       76268.63949     52939.76349  21016273.1274   21016278.2504
  24610803.653     1996226.74649   1548124.15849  24610802.6264   24610811.2514
  23326703.846    -3475275.52149  -2694415.47149  23326703.1494   23326708.6144
  22885978.773     3819408.43849   2965019.22149  22885978.8274   22885985.3224
  22426718.161    -2142701.16449  -1661546.16849  22426717.4074   22426723.2794
  24723988.470    -3429059.16849  -2660254.78849  24723986.3604   24723995.7994
 98  4 21  2 42 30.0010000  0  8 17 26 23 22  3  6 21  1
  21083978.620      477835.14549    370526.15949  21083977.8364   21083983.0904
  23123129.932     2561537.48249   1980857.10349  23123129.6204   23123135.0444
  21017535.064       82895.51849     58103.59649  21017534.3844   21017539.0784
  24621481.171     2052336.56249   1591846.04249  24621480.5444   24621488.6334
  23310412.790    -3560885.45949  -2761124.43149  23310411.4684   23310418.3054
  22905429.695     3921623.64649   3044667.40049  22905428.7624   22905435.8474
  22416854.019    -2194537.39349  -1701937.97149  22416853.1854   22416858.8674
  24703289.051    -3537833.99349  -2745013.92749  24703287.7004   24703298.5884
 98  4 21  2 43  0.0010000  0  8 17 26 23 22  3  6 21  1
  21086879.433      493078.89249    382404.43549  21086878.5684   21086883.6854
  23136930.885     2634061.72649   2037369.50849  23136931.0164   23136934.9774
  21018835.914       89731.55549     63430.41049  21018835.0634   21018840.0084
  24632192.106     2108622.88549   1635705.46849  24632189.9104   24632198.6584
  23294164.440    -3646270.90449  -2827658.47649  23294163.5264   23294169.3634
  22924917.866     4024034.80549   3124468.27149  22924917.8504   22924923.9994
  22407025.092    -2246188.43149  -1742185.46249  22407024.4304   22407030.3644
  24682578.110    -3646669.13749  -2829820.10349  24682577.3474   24682584.8884
 98  4 21  2 43 30.0010000  0  8 17 26 23 22  3  6 21  1
  21089809.234      508475.14549    394401.54649  21089808.1704   21089813.7334
  23150800.921     2706949.04749   2094164.82649  23150800.7644   23150805.9374
  21020178.602       96787.42749     68928.52249  21020177.7144   21020182.8274
  24642934.549     2165074.59649   1679693.76349  24642934.3824   24642941.4544
  23277958.958    -3731430.71249  -2894016.68649  23277958.0654   23277964.1804
  22944440.525     4126627.04949   3204410.22849  22944440.5144   22944446.7914
  22397231.155    -2297655.50849  -1782289.61849  22397230.2704   22397236.1424
  24661857.014    -3755557.06049  -2914667.43649  24661854.9734   24661864.5174
 98  4 21  2 44  0.0010000  0  8 17 26 23 22  3  6 21  1
  21092779.780      524085.40649    406565.41149  21092778.9034   21092784.3244
  23164747.269     2780238.17849   2151273.23549  23164747.4994   23164751.5474
  21021573.687      104118.80649     74641.31449  21021572.8584   21021577.7034
  24653716.247     2221732.22149   1723842.52249  24653714.4694   24653723.5694
  23261807.557    -3816306.28549  -2960153.41149  23261806.7464   23261812.4104
  22964005.226     4229439.70449   3284523.95849  22964004.3114   22964010.8554
  22387482.009    -2348887.21249  -1822210.35649  22387480.9894   22387486.9694
  24641135.581    -3864446.68449  -2999516.10249  24641133.5584   24641145.2054
 98  4 21  2 44 30.0010000  0  8 17 26 23 22  3  6 21  1
  21095785.295      539879.36849    418872.41649  21095784.2924   21095789.5934
  23178761.147     2853881.47849   2208657.63249  23178760.2484   23178766.2374
  21023016.950      111703.50549     80551.50149  21023016.0894   21023021.0664
  24664531.046     2278564.28049   1768127.19349  24664530.3514   24664539.2684
  23245700.687    -3900947.54249  -3026107.57049  23245699.1374   23245706.3114
  22983603.860     4332431.45549   3364777.23949  22983603.9924   22983609.9254
  22377770.137    -2399923.34649  -1861978.70849  22377769.2734   22377775.5674
  24620408.396    -3973367.07549  -3084388.73949  24620406.4774   24620414.9924
 98  4 21  2 45  0.0010000  0  8 17 26 23 22  3  6 21  1
  21098830.374      555881.44949    431341.59049  21098829.4344   21098834.4914
  23192843.917     2927886.71249   2266324.05249  23192843.9284   23192849.8254
  21024508.326      119540.67149     86658.41349  21024507.3164   21024512.3874
  24675378.815     2335569.35349   1812546.69649  24675378.3114   24675385.3084
  23229642.249    -3985334.64249  -3091863.68949  23229641.1744   23229647.2184
  23003237.461     4435606.56449   3445173.40949  23003237.6104   23003243.8214
  22368092.355    -2450780.05849  -1901607.25049  22368091.3134   22368097.2634
  24599679.558    -4082296.17749  -3169268.16549  24599678.0774   24599688.2454
 98  4 21  2 45 30.0010000  0  8 17 26 23 22  3  6 21  1
  21101903.261      572029.29649    443924.35149  21101902.1574   21101907.6804
  23206987.286     3002209.88149   2324238.20649  23206986.5484   23206992.7104
  21026034.557      127561.26949     92908.25849  21026033.7104   21026038.6904
  24686243.021     2392660.76749   1857033.46549  24686241.9804   24686250.8134
  23213621.947    -4069522.21049  -3157464.32649  23213620.9554   23213626.7964
  23022892.592     4538894.53849   3525657.51049  23022891.9444   23022898.2624
  22358435.210    -2501528.45849  -1941151.38849  22358434.1584   22358440.1754
  24578933.716    -4191314.57349  -3254217.20249  24578932.1994   24578942.2824
 98  4 21  2 46  0.0010000  0  8 17 26 23 22  3  6 21  1
  21105006.929      588339.10449    456633.31349  21105005.7894   21105011.1384
  23221197.152     3076882.91049   2382424.98049  23221197.1304   23221202.7094
  21027594.196      135757.09849     99294.64749  21027593.3804   21027598.3324
  24697126.963     2449855.99049   1901601.13049  24697126.1254   24697133.5994
  23197640.280    -4153506.51849  -3222906.56649  23197639.1994   23197645.8794
  23042573.551     4642318.37249   3606247.47349  23042573.1994   23042579.5564
  22348801.731    -2552152.55249  -1980598.67049  22348800.8674   22348807.0704
  24558172.247    -4300415.13449  -3339230.25149  24558170.4024   24558180.1404
 98  4 21  2 46 30.0010000  0  8 17 26 23 22  3  6 21  1
  21108137.476      604790.53449    469452.62949  21108136.4914   21108141.9514
  23235469.553     3151884.44149   2440867.74049  23235469.2894   23235474.6504
  21029181.274      144097.25749    105793.50049  21029180.3914   21029185.3864
  24708029.848     2507150.59949   1946246.27349  24708028.5884   24708037.4024
  23181696.125    -4237293.61549  -3288195.15349  23181695.2164   23181701.1894
  23062279.442     4745872.95449   3686939.35149  23062279.9064   23062285.1464
  22339188.119    -2602672.26249  -2019964.61349  22339187.6924   22339193.2084
  24537390.875    -4409620.64549  -3424325.10349  24537389.2994   24537399.9334
 98  4 21  2 47  0.0010000  0  8 17 26 23 22  3  6 21  1
  21111297.886      621398.75349    482394.11849  21111296.7234   21111302.3154
  23249808.518     3227236.29749   2499583.46749  23249809.0224   23249812.6534
  21030799.158      152599.43749    112418.60449  21030798.3714   21030803.1374
  24718956.602     2564570.95949   1990989.35949  24718956.2634   24718964.2894
  23165798.548    -4320835.45549  -3353292.60449  23165798.0624   23165803.5594
  23082013.222     4849574.62249   3767745.82149  23082012.7554   23082019.7834
  22329599.590    -2653060.21249  -2059227.88449  22329599.2204   22329604.8964
  24516592.191    -4518917.13249  -3509490.83949  24516590.3584   24516601.4094
 98  4 21  2 47 30.0010000  0  8 17 26 23 22  3  6 21  1
  21114481.216      638127.43749    495429.48149  21114480.1604   21114485.6194
  23264206.233     3302896.04449   2558539.13049  23264207.0954   23264210.2354
  21032447.173      161259.93849    119167.07349  21032446.3004   21032451.1814
  24729904.582     2622102.73749   2035819.26149  24729904.3234   24729910.7914
  23149942.674    -4404158.68849  -3418219.73949  23149941.6494   23149947.6174
  23101770.977     4953402.45249   3848650.60149  23101770.0674   23101777.3134
  22320034.621    -2703324.26649  -2098394.62049  22320033.5324   22320039.5864
  24495772.911    -4628321.91649  -3594740.96449  24495770.8814   24495780.9914
 98  4 21  2 48  0.0010000  0  8 17 26 23 22  3  6 21  1
  21117679.560      654934.96349    508526.28349  21117678.5854   21117683.9104
  23278647.586     3378785.99249   2617674.16949  23278647.3484   23278651.1754
  21034118.806      170044.50349    126012.21549  21034118.0034   21034123.0214
  24740869.088     2679721.24049   2080716.78249  24740867.9744   24740875.5594
  23134119.650    -4487309.34749  -3483012.39349  23134119.1134   23134124.5464
  23121546.801     5057324.69249   3929628.97649  23121546.4764   23121552.9314
  22310482.979    -2753518.30349  -2137506.79149  22310482.3544   22310488.0054
  24474928.546    -4737858.04649  -3680093.43649  24474927.1514   24474936.9094
 98  4 21  2 48 30.0010000  0  8 17 26 23 22  3  6 21  1
  21120896.132      671838.12349    521697.60649  21120895.1794   21120900.4434
  23293133.497     3454911.02449   2676992.37449  23293133.0804   23293138.1274
  21035822.178      178995.79149    132987.27249  21035821.1844   21035826.3204
  24751852.876     2737441.84249   2125693.81749  24751850.6904   24751859.9434
  23118336.661    -4570249.78549  -3547641.22249  23118336.1494   23118341.9734
  23141342.051     5161349.37249   4010687.13249  23141342.5224   23141348.3104
  22300950.523    -2803611.43649  -2176540.34249  22300949.5244   22300955.3784
  24454065.632    -4847491.60549  -3765521.82149  24454064.0544   24454073.6364
 98  4 21  2 49  0.0010000  0  8 17 26 23 22  3  6 21  1
  21124140.032      688885.03249    534980.92849  21124138.9334   21124144.0544
  23307675.643     3531331.46949   2736540.76049  23307675.4724   23307680.9284
  21037568.372      188172.16849    140137.71849  21037567.6554   21037572.5334
  24762862.426     2795297.88049   2170776.42249  24762862.9974   24762870.1734
  23102601.334    -4652939.12949  -3612074.41649  23102600.4634   23102606.1084
  23161164.277     5265515.73049   4091855.69049  23161164.1704   23161170.1664
  22291449.084    -2853541.64349  -2215446.94149  22291448.3514   22291453.9564
  24433196.424    -4957158.34349  -3850976.08649  24433194.7514   24433204.7944
 98  4 21  2 49 30.0010000  0  8 17 26 23 22  3  6 21  1
  21127399.856      706015.78749    548329.58449  21127398.9964   21127404.1434
  23322261.341     3607979.74249   2796266.70949  23322260.3754   23322266.2384
  21039343.946      197502.74149    147408.32149  21039343.1464   21039348.0624
  24773882.201     2853205.18649   2215898.96449  24773880.5494   24773891.4394
  23086898.166    -4735458.81349  -3676375.41149  23086897.0344   23086902.3974
  23181002.216     5369764.95049   4173088.82649  23181001.4674   23181007.6234
  22281964.523    -2903383.19449  -2254284.44849  22281963.4284   22281969.6684
  24412309.743    -5066917.13849  -3936502.06849  24412308.0014   24412317.9434
 98  4 21  2 50  0.0010000  0  8 17 26 23 22  3  6 21  1
  21130680.854      723257.57449    561764.75349  21130679.7154   21130685.2114
  23336897.257     3684891.71849   2856198.10149  23336897.3224   23336903.1464
  21041148.926      206987.92649    154799.39949  21041147.9864   21041153.0204
  24784911.340     2911165.26649   2261062.57049  24784912.8224   24784917.4624
  23071231.659    -4817786.48049  -3740526.76449  23071231.2294   23071237.0494
  23200857.078     5474103.04249   4254391.20349  23200856.6914   23200864.0284
  22272500.758    -2953115.48449  -2293036.82849  22272499.9094   22272505.9824
  24391406.559    -5176763.04949  -4022095.96249  24391404.8824   24391413.9704
 98  4 21  2 50 30.0010000  0  8 17 26 23 22  3  6 21  1
  21133985.327      740623.02149    575296.28949  21133984.3574   21133989.5474
  23351589.929     3762101.36449   2916361.46549  23351590.0014   23351595.4974
  21042981.679      216619.32849    162304.41549  21042980.7684   21042985.6574
  24795948.387     2969163.54349   2306256.07649  24795947.3434   24795956.0534
  23055604.754    -4899905.86749  -3804515.83449  23055604.2474   23055610.3514
  23220726.935     5578519.97649   4335755.02649  23220726.8154   23220733.3284
  22263058.590    -3002734.03249  -2331700.56949  22263057.8564   22263063.4654
  24370487.583    -5286692.09549  -4107754.65049  24370486.3534   24370496.6184
 98  4 21  2 51  0.0010000  0  8 17 26 23 22  3  6 21  1
  21137322.072      758157.85749    588959.81649  21137321.2274   21137326.5544
  23366347.532     3839652.15049   2976790.66049  23366348.2444   23366353.9604
  21044848.451      226429.33149    169948.59749  21044847.6654   21044852.3774
  24806998.798     3027236.09849   2351507.29149  24806999.4024   24807007.2744
  23040023.411    -4981786.34449  -3868318.73249  23040022.4444   23040028.8134
  23240621.081     5683064.40649   4417218.19249  23240620.4734   23240626.9024
  22253641.749    -3052219.76549  -2370260.82249  22253640.7754   22253646.9654
  24349560.765    -5396661.54349  -4193444.81249  24349560.0304   24349567.5524
 98  4 21  2 51 30.0010000  0  8 17 26 23 22  3  6 21  1
  21140684.426      775826.89149    602727.91249  21140683.4594   21140688.7164
  23381159.596     3917490.16149   3037443.64149  23381159.0704   23381165.7724
  21046739.351      236366.15849    177691.60549  21046738.4564   21046743.3924
  24818055.718     3085338.70549   2396782.01549  24818056.3174   24818062.6274
  23024482.948    -5063451.83949  -3931954.10349  23024482.3434   23024487.8294
  23260531.874     5787696.34949   4498749.52549  23260531.6394   23260537.7334
  22244242.294    -3101614.19849  -2408749.93149  22244241.2624   22244247.6914
  24328618.100    -5506714.51349  -4279200.08049  24328616.1994   24328625.8184
 98  4 21  2 52  0.0010000  0  8 17 26 23 22  3  6 21  1
  21144074.606      793642.22049    616610.00249  21144073.7224   21144079.1434
  23396027.919     3995624.41649   3098327.47049  23396027.4574   23396032.7734
  21048656.148      246439.00549    185540.59649  21048655.2094   21048660.1194
  24829124.007     3143503.53249   2442105.26449  24829121.9274   24829132.2984
  23008987.789    -5144878.88449  -3995403.68649  23008987.5094   23008992.9454
  23280461.248     5892425.40849   4580356.55449  23280460.3734   23280467.8864
  22234864.688    -3150893.59249  -2447149.40149  22234863.5744   22234869.6674
  24307661.752    -5616840.22749  -4365012.03149  24307659.3584   24307669.3504
 98  4 21  2 52 30.0010000  0  8 17 26 23 22  3  6 21  1
  21147497.609      811630.31949    630626.71849  21147496.5434   21147501.8674
  23410954.962     4074067.34249   3159451.84149  23410955.3534   23410959.1144
  21050606.197      256686.74249    193525.87049  21050605.2994   21050610.1774
  24840211.232     3201767.01949   2487505.30049  24840211.5794   24840219.5674
  22993542.370    -5226044.93549  -4058649.90249  22993541.3334   22993547.9154
  23300416.278     5997289.63849   4662068.88549  23300416.0584   23300422.6734
  22225514.715    -3200027.76649  -2485435.71249  22225513.6774   22225519.7444
  24286698.543    -5727001.39449  -4450851.60049  24286697.2994   24286705.8434
 98  4 21  2 53  0.0010000  0  8 17 26 23 22  3  6 21  1
  21150953.453      829791.08849    644777.97249  21150952.5804   21150958.0704
  23425938.202     4152804.94149   3220805.81449  23425938.7104   23425942.7894
  21052591.004      267117.03149    201653.38949  21052590.3154   21052595.0834
  24851317.362     3260130.32449   2532983.15549  24851314.9034   24851322.2934
  22978147.367    -5306946.33949  -4121689.87749  22978146.8104   22978152.5784
  23320396.029     6102283.52049   4743882.26849  23320395.5164   23320401.4734
  22216196.520    -3248994.82449  -2523591.80049  22216195.9784   22216201.7174
  24265727.749    -5837202.61849  -4536722.40549  24265727.4764   24265734.7694
 98  4 21  2 53 30.0010000  0  8 17 26 23 22  3  6 21  1
  21154441.632      848121.70649    659061.58849  21154440.7254   21154445.9234
  23440977.780     4231837.93049   3282389.98749  23440977.0194   23440982.2114
  21054610.055      277727.02849    209920.94349  21054609.1774   21054614.1654
  24862441.222     3318584.81349   2578532.10949  24862441.8804   24862450.2254
  22962803.037    -5387581.24649  -4184522.19749  22962802.2634   22962807.9264
  23340396.718     6207387.38749   4825781.35349  23340396.2904   23340402.8154
  22206912.325    -3297783.35349  -2561608.77749  22206911.3754   22206917.5724
  24244746.826    -5947457.04349  -4622634.66849  24244745.3024   24244754.1254
 98  4 21  2 54  0.0010000  0  8 17 26 23 22  3  6 21  1
  21157955.871      866588.89449    673451.62049  21157954.8634   21157960.3074
  23456066.670     4311131.06349   3344176.83349  23456066.9234   23456072.3554
  21056660.079      288499.98849    218315.47649  21056659.0384   21056664.1114
  24873575.353     3377096.62949   2624125.57849  24873574.1934   24873581.6854
  22947500.414    -5467996.69049  -4247183.52149  22947499.7174   22947505.6574
  23360409.346     6312554.50749   4907729.71949  23360408.8154   23360416.3914
  22197653.586    -3346438.30649  -2599521.67549  22197652.7054   22197658.2314
  24223750.714    -6057791.51049  -4708609.30749  24223749.1274   24223757.6634
 98  4 21  2 54 30.0010000  0  8 17 26 23 22  3  6 21  1
  21161494.277      885183.42749    687940.88749  21161493.1034   21161498.5454
  23471201.994     4390667.11149   3406152.99049  23471201.6454   23471206.6384
  21058736.908      299414.02349    226819.94349  21058735.9704   21058740.9454
  24884713.696     3435627.94549   2669734.46749  24884714.6314   24884722.2364
  22932237.345    -5548204.42149  -4309682.98749  22932236.9834   22932242.0554
  23380428.969     6417757.92949   4989706.38949  23380428.9564   23380435.4314
  22188416.458    -3394979.36549  -2637345.81949  22188415.6494   22188421.4324
  24202739.325    -6168206.34149  -4794646.56449  24202738.5334   24202746.7074
 98  4 21  2 55  0.0010000  0  8 17 26 23 22  3  6 21  1
  21165064.726      903946.42249    702561.41949  21165063.8114   21165068.8664
  23486392.821     4470494.99249   3468356.53249  23486393.1484   23486396.7724
  21060846.399      310499.72249    235458.17249  21060845.5804   21060850.3664
  24895863.436     3494219.46149   2715390.06249  24895861.6944   24895872.4664
  22917025.403    -5628143.40049  -4371973.02749  22917024.0444   22917030.1804
  23400463.106     6523037.91949   5071742.74449  23400462.8274   23400468.3974
  22179207.264    -3443373.98149  -2675055.84849  22179206.2354   22179211.8974
  24181721.968    -6278651.76449  -4880707.66249  24181720.7134   24181728.6914
 98  4 21  2 55 30.0010000  0  8 17 26 23 22  3  6 21  1
  21168663.186      922856.18849    717296.31749  21168662.2804   21168667.4544
  23501634.198     4550588.73049   3530767.24049  23501633.9374   23501639.5324
  21062983.775      321731.73349    244210.40849  21062982.8904   21062987.8044
  24907023.227     3552865.47649   2761088.18449  24907023.0274   24907028.8724
  22901860.420    -5707835.68749  -4434070.85349  22901860.3024   22901865.0574
  23420511.482     6628392.28149   5153837.03849  23420510.6684   23420517.0354
  22170019.441    -3491656.04249  -2712678.17449  22170018.5864   22170024.7734
  24160697.213    -6389136.22049  -4966799.19049  24160696.6584   24160704.1224
 98  4 21  2 56  0.0010000  0  8 17 26 23 22  3  6 21  1
  21172296.436      941949.21649    732174.02049  21172295.7054   21172300.5894
  23516930.182     4630970.08249   3593402.04749  23516929.6484   23516935.7294
  21065153.408      333133.36149    253094.81349  21065152.5784   21065157.3584
  24918202.674     3611612.68649   2806865.23349  24918201.0284   24918210.8054
  22886751.438    -5787233.61249  -4495939.30549  22886751.0924   22886755.8674
  23440583.086     6733869.63249   5236027.16449  23440582.0434   23440589.5034
  22160859.526    -3539791.50849  -2750186.27349  22160858.8174   22160864.5334
  24139674.912    -6499608.25349  -5052881.02449  24139673.8624   24139682.4644
 98  4 21  2 56 30.0010000  0  8 17 26 23 22  3  6 21  1
  21175955.233      961176.19449    747156.09249  21175954.2524   21175959.4534
  23532272.383     4711593.71849   3656225.67049  23532273.3564   23532276.8654
  21067343.352      344641.66549    262062.33749  21067342.4124   21067347.3944
  24929390.282     3670404.43049   2852676.90549  24929388.2044   24929399.1834
  22871690.674    -5866378.25549  -4557610.39949  22871689.9094   22871695.5604
  23460672.063     6839437.88949   5318288.09949  23460670.9854   23460677.9824
  22151718.505    -3587827.78849  -2787617.08649  22151717.4854   22151723.5054
  24118643.396    -6610128.32349  -5139000.30049  24118641.3824   24118649.9164
 98  4 21  2 57  0.0010000  0  8 17 26 23 22  3  6 21  1
  21179639.950      980539.30449    762244.24749  21179638.9414   21179644.1714
  23547662.294     4792467.63449   3719244.32949  23547662.5724   23547666.9334
  21069558.288      356281.28249    271132.19249  21069557.3694   21069562.3774
  24940589.961     3729259.08749   2898537.63349  24940587.9704   24940598.4164
  22856679.261    -5945263.23649  -4619079.14449  22856678.6114   22856684.4484
  23480781.371     6945112.46049   5400631.89949  23480780.2244   23480787.1734
  22142596.796    -3635762.44249  -2824968.70549  22142596.0004   22142601.6424
  24097604.027    -6720690.29349  -5225152.20949  24097601.7674   24097611.3154
 98  4 21  2 57 30.0010000  0  8 17 26 23 22  3  6 21  1
  21183356.811     1000071.44649    777464.11549  21183355.5884   21183361.0114
  23563102.372     4873605.70549   3782468.81749  23563101.0754   23563107.3204
  21071804.454      368084.87249    280329.81449  21071803.6244   21071808.4174
  24951805.840     3788199.17349   2944464.90049  24951804.5554   24951813.7374
  22841720.600    -6023871.72849  -4680332.45449  22841719.5374   22841725.7694
  23500912.685     7050903.38649   5483066.35349  23500912.3674   23500918.9134
  22133501.084    -3683560.63549  -2862213.99649  22133500.1474   22133505.6114
  24076561.593    -6831267.73449  -5311316.20049  24076559.9344   24076568.7564
 98  4 21  2 58  0.0010000  0  8 17 26 23 22  3  6 21  1
  21187106.897     1019778.68449    792820.42449  21187106.0224   21187111.3214
  23578593.925     4955014.87149   3845904.53349  23578593.6594   23578597.9594
  21074083.689      380062.48349    289663.03949  21074082.9464   21074087.7334
  24963035.553     3847210.54449   2990447.75149  24963036.3704   24963043.1744
  22826817.434    -6102188.42449  -4741358.39549  22826817.0934   22826822.5244
  23521064.589     7156802.00949   5565584.73649  23521064.8364   23521070.7354
  22124433.081    -3731213.21149  -2899345.81249  22124432.0844   22124437.7184
  24055516.604    -6941859.17649  -5397491.11149  24055514.8044   24055523.7014
 98  4 21  2 58 30.0010000  0  8 17 26 23 22  3  6 21  1
  21190892.610     1039672.68949    808322.26049  21190891.4714   21190896.7204
  23594141.589     5036718.65249   3909569.81249  23594141.2864   23594145.8674
  21076401.330      392241.75449    299153.39549  21076400.5814   21076405.3274
  24974279.813     3906298.75449   3036490.45949  24974278.5874   24974287.6374
  22811973.912    -6180191.13849  -4802139.68149  22811973.1404   22811978.5094
  23541238.006     7262813.91849   5648191.36649  23541238.4104   23541243.9774
  22115393.752    -3778714.97949  -2936360.12649  22115392.9524   22115398.3814
  24034472.923    -7052443.36149  -5483660.36849  24034471.4124   24034479.6814
 98  4 21  2 59  0.0010000  0  8 17 26 23 22  3  6 21  1
  21194720.746     1059789.73149    823997.89049  21194719.9414   21194724.9714
  23609750.749     5118745.68349   3973486.97149  23609750.3404   23609755.3314
  21078763.148      404653.25449    308824.70949  21078762.3164   21078767.2474
  24985546.997     3965508.02949   3082627.48449  24985547.0364   24985554.7884
  22797198.429    -6257836.82349  -4862642.75549  22797198.1684   22797203.9184
  23561435.665     7368953.50849   5730897.49049  23561435.9674   23561442.9114
  22106389.822    -3826030.69549  -2973229.46749  22106389.0454   22106394.5924
  24013441.178    -7162964.81049  -5569780.74349  24013439.2924   24013448.1254
 98  4 21  2 59 30.0010000  0  8 17 26 23 22  3  6 21  1
  21198580.014     1080070.19749    839800.86149  21198579.2294   21198584.3164
  23625409.053     5201030.73649   4037605.18849  23625409.6994   23625415.1564
  21081154.017      417217.40249    318614.97249  21081153.1614   21081157.8414
  24996822.950     4024762.36249   3128799.67249  24996821.5714   24996830.3214
  22782479.728    -6335184.09449  -4922913.29449  22782478.8984   22782484.9854
  23581645.951     7475158.72049   5813654.75349  23581645.6964   23581653.0694
  22097411.741    -3873210.71749  -3009993.07249  22097410.9214   22097416.4654
  23992407.240    -7273498.07449  -5655910.32349  23992405.9134   23992415.0944
 98  4 21  3  0  0.0010000  0  8 17 26 23 22  3  6 21  1
  21202474.182     1100534.24749    855746.88749  21202473.0834   21202478.1604
  23641123.036     5283607.98149   4101951.08749  23641123.7414   23641127.8214
  21083578.740      429959.42549    328543.83949  21083577.7934   21083582.7014
  25008110.552     4084078.83749   3175020.27149  25008108.9964   25008116.6974
  22767824.858    -6412195.58349  -4982922.19749  22767824.5334   22767830.0604
  23601877.909     7581478.34449   5896501.15249  23601877.1904   23601884.2094
  22088463.096    -3920235.99249  -3046636.09549  22088462.2064   22088467.6664
  23971378.260    -7384005.37949  -5742019.67749  23971377.6314   23971386.2374
 98  4 21  3  0 30.0010000  0  8 17 26 23 22  3  6 21  1
  21206407.670     1121204.87449    871853.88749  21206406.6604   21206412.0224
  23656895.632     5366492.81249   4166536.68349  23656895.4024   23656900.5384
  21086039.024      442888.28949    338618.29649  21086038.1304   21086043.0294
  25019411.001     4143462.41749   3221293.17749  25019410.0934   25019419.1404
  22753235.055    -6488865.20249  -5042664.69849  22753234.4744   22753239.4734
  23622134.425     7687927.41349   5979448.44449  23622134.4374   23622141.8354
  22079547.313    -3967088.64949  -3083144.60749  22079546.6484   22079551.8914
  23950357.992    -7494467.05949  -5828093.48849  23950356.3934   23950364.1084
 98  4 21  3  1  0.0010000  0  8 17 26 23 22  3  6 21  1
  21210378.982     1142074.22749    888115.74049  21210378.2214   21210383.2594
  23672722.549     5449663.90249   4231345.32149  23672721.8064   23672727.8944
  21088530.824      455982.80249    348821.83549  21088530.0344   21088534.9504
  25030718.889     4202886.81249   3267597.83149  25030717.8454   25030727.2754
  22738704.562    -6565223.07249  -5102164.28249  22738704.1334   22738709.1704
  23642413.464     7794494.14949   6062487.42149  23642414.1374   23642419.6564
  22070666.211    -4013759.28849  -3119511.29149  22070665.4464   22070670.7664
  23929340.496    -7604913.74149  -5914155.60449  23929338.9634   23929347.1904
 98  4 21  3  1 30.0010000  0  8 17 26 23 22  3  6 21  1
  21214396.404     1163185.99549    904566.48349  21214395.2904   21214400.7584
  23688611.183     5533159.98849   4296407.21149  23688611.0464   23688616.1144
  21091064.051      469295.09549    359195.06249  21091063.1314   21091067.9074
  25042041.772     4262387.74049   3313962.14449  25042040.6764   25042048.0974
  22724241.447    -6641227.56049  -5161388.50949  22724240.5564   22724246.0354
  23662724.596     7901229.30049   6145657.62849  23662724.8364   23662731.6414
  22061827.494    -4060206.82649  -3155704.13249  22061826.4854   22061832.3234
  23908333.471    -7715305.17149  -6000174.66949  23908331.1874   23908339.9474
 98  4 21  3  2  0.0010000  0  8 17 26 23 22  3  6 21  1
  21218458.718     1184533.85349    921201.19049  21218457.6874   21218462.9304
  23704557.927     5616960.58149   4361706.34949  23704557.8764   23704563.0714
  21093636.691      482814.52549    369729.70049  21093635.8604   21093640.7164
  25053376.640     4321953.27949   3360376.83449  25053374.8404   25053382.5294
  22709842.680    -6716893.68349  -5220349.06649  22709842.1234   22709847.7054
  23683059.587     8008090.23549   6228925.84449  23683060.0294   23683066.3224
  22053024.578    -4106466.33749  -3191750.45649  22053023.7394   22053029.6124
  23887337.465    -7825639.06649  -6086148.93549  23887336.9014   23887345.2424
 98  4 21  3  2 30.0010000  0  8 17 26 23 22  3  6 21  1
  21222555.661     1206063.39149    937977.46949  21222554.4714   21222559.7524
  23720549.421     5700995.54349   4427188.14349  23720549.7654   23720554.8964
  21096236.609      496477.28349    380376.02649  21096235.7504   21096240.5684
  25064714.180     4381533.91749   3406803.25149  25064714.5794   25064723.1214
  22695497.056    -6792279.94249  -5279091.55249  22695496.0954   22695501.6924
  23703400.066     8114979.41149   6312216.05649  23703400.1684   23703406.6064
  22044244.440    -4152606.16949  -3227703.52449  22044243.7784   22044249.0984
  23866339.264    -7935984.61649  -6172132.25249  23866337.2794   23866345.7744
 98  4 21  3  3  0.0010000  0  8 17 26 23 22  3  6 21  1
  21226691.306     1227796.31749    954912.23349  21226690.3784   21226695.5204
  23736588.200     5785279.72449   4492864.12649  23736587.4624   23736593.8664
  21098868.426      510307.61149    391152.92249  21098867.7184   21098872.4614
  25076064.445     4441178.62249   3453279.61449  25076063.7024   25076071.2604
  22681210.885    -6867354.07449  -5337590.82149  22681210.4454   22681215.7174
  23723747.195     8221904.04749   6395533.91349  23723746.9324   23723752.8244
  22035489.413    -4198613.89349  -3263553.65249  22035488.8194   22035493.8514
  23845345.136    -8046308.41749  -6258098.63549  23845343.0534   23845351.6164
 98  4 21  3  3 30.0010000  0  8 17 26 23 22  3  6 21  1
  21230872.520     1249768.94549    972033.77549  21230871.7034   21230876.8784
  23752680.292     5869845.11349   4558759.21949  23752679.6924   23752685.7714
  21101538.184      524337.16049    402085.05749  21101537.2204   21101542.1314
  25087436.559     4500939.04349   3499846.15349  25087434.5004   25087444.1814
  22666992.819    -6942070.20549  -5395811.11749  22666991.7084   22666997.7824
  23744104.765     8328883.74249   6478894.66449  23744104.3994   23744111.7224
  22026762.896    -4244471.98649  -3299287.18449  22026762.1604   22026767.3644
  23824365.280    -8156557.46549  -6344006.76049  23824363.0074   23824372.3974
 98  4 21  3  4  0.0010000  0  8 17 26 23 22  3  6 21  1
  21235091.161     1271937.90749    989308.30949  21235090.1134   21235095.4404
  23768816.119     5954639.70249   4624832.92749  23768815.9914   23768820.1974
  21104234.640      538507.37249    413126.80049  21104233.7934   21104238.6244
  25098819.480     4560756.92549   3546457.43149  25098818.6694   25098827.1834
  22652834.550    -7016472.52349  -5453786.90549  22652834.1294   22652838.7564
  23764461.863     8435861.38649   6562253.81449  23764461.8354   23764468.6144
  22018057.677    -4290217.73749  -3334933.18649  22018056.9664   22018062.4144
  23803391.428    -8266775.00649  -6429890.34649  23803390.1264   23803398.3954
 98  4 21  3  4 30.0010000  0  8 17 26 23 22  3  6 21  1
  21239352.005     1294328.81549   1006755.79349  21239351.2134   21239356.3224
  23785004.007     6039707.27449   4691119.34449  23785004.6344   23785009.1964
  21106964.994      552855.63449    424307.28449  21106964.2134   21106969.0764
  25110218.950     4620660.60249   3593135.61149  25110217.9184   25110227.6554
  22638744.766    -7090514.82849  -5511482.14849  22638744.4534   22638749.2344
  23784832.301     8542908.49449   6645667.08649  23784832.1334   23784838.9124
  22009384.746    -4335794.16249  -3370447.23749  22009384.2104   22009389.1074
  23782429.719    -8376928.58549  -6515724.09449  23782428.0684   23782436.8604
 98  4 21  3  5  0.0010000  0  8 17 26 23 22  3  6 21  1
  21243649.818     1316913.88149   1024354.57649  21243648.4684   21243654.1374
  23801240.069     6125027.32249   4757602.50249  23801240.0744   23801245.5194
  21109722.660      567347.38949    435599.58049  21109721.8544   21109726.6414
  25121626.555     4680608.10149   3639847.91149  25121625.5014   25121635.3154
  22624717.285    -7164229.37249  -5568921.99549  22624716.6854   22624721.7344
  23805214.624     8650018.56849   6729129.41149  23805213.5244   23805221.5614
  22000742.317    -4381210.24149  -3405836.33749  22000741.5844   22000746.7284
  23761475.717    -8487041.26949  -6601525.98749  23761474.6434   23761481.1554
 98  4 21  3  5 30.0010000  0  8 17 26 23 22  3  6 21  1
  21247987.018     1339706.40149   1042115.00249  21247986.0754   21247991.3764
  23817526.866     6210614.51449   4824293.81149  23817526.0004   23817533.0154
  21112510.719      581998.57349    447016.10849  21112509.6844   21112514.7244
  25133039.317     4740583.32249   3686581.78249  25133038.4204   25133045.5714
  22610757.719    -7237587.26449  -5626083.93549  22610756.7594   22610762.5154
  23825615.112     8757223.36649   6812665.54449  23825615.4804   23825622.0724
  21992135.345    -4426440.22249  -3441080.43849  21992134.4224   21992140.0734
  23740532.528    -8597097.43749  -6687283.82549  23740531.2324   23740538.8714
 98  4 21  3  6  0.0010000  0  8 17 26 23 22  3  6 21  1
  21252389.107     1362839.48149   1060140.80249  21252388.1084   21252393.2784
  23833891.050     6296608.77549   4891302.32949  23833890.4714   23833895.6644
  21115356.086      596951.17749    458667.51449  21115355.2844   21115360.1444
  25144479.761     4800702.74949   3733428.03649  25144479.7594   25144487.9844
  22596893.979    -7310441.22449  -5682853.19549  22596893.1864   22596898.8434
  23846061.949     8864671.41349   6896391.27049  23846061.3854   23846068.7844
  21983590.846    -4471341.72449  -3476068.57049  21983590.1274   21983595.6664
  23719626.430    -8706958.72249  -6772889.81549  23719625.6854   23719632.3414
 98  4 21  3  6 30.0010000  0  8 17 26 23 22  3  6 21  1
  21256848.242     1386272.44949   1078400.27949  21256847.2214   21256852.6394
  23850325.787     6382974.23849   4958600.07749  23850324.3744   23850329.6404
  21118252.374      612171.21649    470527.30249  21118251.4894   21118256.4614
  25155942.359     4860938.90249   3780365.27949  25155940.9744   25155951.2014
  22583120.597    -7382820.14549  -5739252.30149  22583119.9114   22583125.2724
  23866548.294     8972327.76849   6980279.27949  23866547.9734   23866554.1924
  21975100.535    -4515958.50549  -3510834.85149  21975099.7054   21975105.2414
  23698750.195    -8816663.45549  -6858373.82149  23698749.0974   23698756.0074
 98  4 21  3  7  0.0010000  0  8 17 26 23 22  3  6 21  1
  21261341.893     1409886.76349   1096801.06249  21261340.9004   21261346.1364
  23866803.743     6469566.96449   5026074.93349  23866804.2954   23866808.6024
  21121175.080      627530.20849    482495.36549  21121174.1354   21121178.8364
  25167405.106     4921175.08649   3827302.50849  25167404.1994   25167413.4044
  22569412.835    -7454854.62349  -5795383.00949  22569412.2614   22569417.9294
  23887044.731     9080037.00349   7064208.49249  23887043.8244   23887051.0654
  21966639.372    -4560422.08149  -3545481.74849  21966638.4234   21966643.6604
  23677882.653    -8926322.53749  -6943822.26949  23677881.4744   23677889.1834
 98  4 21  3  7 30.0010000  0  8 17 26 23 22  3  6 21  1
  21265884.935     1433760.74849   1115404.19549  21265883.9854   21265889.0274
  23883340.168     6556465.81749   5093788.32149  23883339.4984   23883343.9424
  21124141.920      643121.10449    494644.13049  21124141.0914   21124145.8854
  25178883.539     4981494.60649   3874304.65049  25178883.4624   25178891.5254
  22555787.648    -7526455.46049  -5851175.81649  22555786.9044   22555792.4514
  23907567.211     9187883.03449   7148244.30249  23907567.2864   23907574.6304
  21958221.361    -4604658.69249  -3579951.79749  21958220.4904   21958225.8174
  23657042.288    -9035838.47549  -7029159.16249  23657040.6524   23657048.5784
 98  4 21  3  8  0.0010000  0  8 17 26 23 22  3  6 21  1
  21270484.075     1457929.60749   1134237.09249  21270483.0714   21270488.4084
  23899941.876     6643708.63949   5161769.72649  23899941.6454   23899946.5074
  21127159.096      658976.49949    506999.00449  21127158.1734   21127163.0274
  25190387.795     5041949.81249   3921412.51049  25190386.3184   25190395.7954
  22542249.848    -7597596.76549  -5906610.55049  22542249.3264   22542254.7264
  23928122.251     9295899.87749   7232413.22949  23928122.4664   23928127.5564
  21949853.314    -4648633.05449  -3614217.49249  21949852.4134   21949857.7844
  23636237.042    -9145170.24949  -7114352.52849  23636235.5054   23636243.6504
 98  4 21  3  8 30.0010000  0  8 17 26 23 22  3  6 21  1
  21275105.290     1482214.11749   1153160.10649  21275104.4324   21275109.3824
  23916571.449     6731097.60449   5229865.04349  23916571.2224   23916576.9244
  21130191.862      674913.93349    519417.80549  21130191.0234   21130195.7124
  25201884.280     5102363.61649   3968488.16149  25201883.5094   25201892.3334
  22528763.871    -7668465.99049  -5961833.27049  22528762.8624   22528768.5064
  23948674.085     9403900.54249   7316569.55349  23948674.5284   23948680.9824
  21941498.594    -4692537.24249  -3648428.50149  21941497.7974   21941503.1434
  23615432.552    -9254497.50249  -7199542.40649  23615432.0974   23615438.7114
 98  4 21  3  9  0.0010000  0  8 17 26 23 22  3  6 21  1
  21279786.672     1506815.05049   1172329.68949  21279785.8714   21279791.0164
  23933265.280     6818824.61649   5298223.74149  23933264.7464   23933270.0244
  21133277.356      691128.47049    532052.52749  21133276.6074   21133281.3884
  25213408.245     5162922.40849   4015676.75449  25213405.2834   25213414.9304
  22515365.578    -7738874.23049  -6016696.78849  22515364.9274   22515370.0664
  23969261.057     9512085.47849   7400869.45049  23969260.8564   23969266.8494
  21933196.013    -4736167.34249  -3682425.93649  21933195.3454   21933200.7304
  23594668.032    -9363615.04949  -7284568.88449  23594666.9724   23594674.1124
 98  4 21  3  9 30.0000000  0  9 17 26 23 22  3  6 21  9  1
  21284492.823     1531546.07549   1191600.63449  21284491.7734   21284496.9414
  23949986.139     6906693.58949   5366693.06949  23949985.7004   23949990.2834
  21136378.741      707426.30149    544752.15549  21136377.9004   21136382.6164
  25224920.502     5223420.01849   4062817.64049  25224920.4914   25224927.3934
  22502021.406    -7808998.17149  -6071338.77349  22502021.0754   22502026.2104
  23989847.099     9620265.80249   7485165.76049  23989846.3754   23989853.9344
  21924908.297    -4779719.54849  -3716362.67449  21924907.5224   21924912.8934
  24812152.095    -4972351.60049  -3865600.24049  24812151.6054   24812157.8074
  23573906.504    -9472716.74349  -7369582.98749  23573905.8654   23573912.3714
 98  4 21  3 10  0.0000000  0  9 17 26 23 22  3  6 21  9  1
  21289255.810     1556575.86249   1211104.38049  21289254.8464   21289259.9744
  23966763.048     6994856.38749   5435391.35149  23966761.6064   23966766.7104
  21139523.961      723954.57149    557631.34349  21139523.1734   21139527.8874
  25236453.428     5284025.39549   4110042.53349  25236453.4474   25236460.4854
  22488761.662    -7878678.30149  -6125634.93649  22488761.1654   22488766.5954
  24010461.576     9728595.76949   7569578.65649  24010460.7344   24010466.7594
  21916664.739    -4823039.77249  -3750118.65249  21916663.7694   21916669.1524
  24800348.768    -5034378.74849  -3913932.95349  24800348.3264   24800355.0014
  23553173.441    -9581669.16749  -7454480.78749  23553171.7394   23553179.5344
 98  4 21  3 10 30.0000000  0  9 17 26 23 22  3  6 21  9  1
  21294086.768     1581962.61249   1230886.28949  21294085.6414   21294090.8234
  23983605.316     7083363.50349   5504357.93549  23983604.9664   23983610.2774
  21142722.668      740763.90749    570729.55149  21142721.8384   21142726.5884
  25248015.796     5344785.92849   4157388.37749  25248014.2534   25248024.8524
  22475598.028    -7947853.59749  -6179537.72049  22475597.6684   22475602.6634
  24031112.470     9837115.94249   7654139.77049  24031111.3684   24031119.4574
  21908474.462    -4866079.47149  -3783656.03049  21908473.7994   21908478.9514
  24788594.360    -5096148.21149  -3962064.96749  24788593.1944   24788600.7424
  23532477.717    -9690424.93649  -7539225.36749  23532476.7354   23532483.3894
 98  4 21  3 11  0.0000000  0  9 17 26 23 22  3  6 21  9  1
  21298957.349     1607557.83949   1250830.63849  21298956.3094   21298961.5794
  24000486.987     7172076.82749   5573485.18749  24000487.4784   24000492.6664
  21145945.012      757697.49849    583924.57549  21145944.1574   21145948.9724
  25259578.124     5405546.13149   4204733.86249  25259576.6794   25259585.2614
  22462501.499    -8016676.20849  -6233165.68549  22462501.0844   22462505.3804
  24051768.373     9945664.06149   7738722.62549  24051768.4174   24051776.0764
  21900309.879    -4908984.69649  -3817088.62349  21900308.9524   21900314.0604
  24776859.957    -5157812.66049  -4010115.12449  24776859.8574   24776866.3994
  23511790.632    -9799135.83049  -7623934.96549  23511789.1374   23511796.3334
 98  4 21  3 11 30.0000000  0  9 17 26 23 22  3  6 21  9  1
  21303874.505     1633397.70449   1270965.61749  21303873.5954   21303878.4144
  24017416.946     7261044.41449   5642810.58449  24017416.8184   24017421.4024
  21149198.914      774796.89949    597248.80149  21149198.1654   21149202.9034
  25271148.274     5466348.17349   4252111.99649  25271146.7194   25271158.0874
  22449481.582    -8085096.60949  -6286480.24149  22449480.9484   22449486.3434
  24072435.737    10054272.31849   7823352.36549  24072435.0604   24072442.4264
  21892177.745    -4951719.12949  -3850388.13649  21892177.0514   21892182.1764
  24765152.587    -5219335.53049  -4058054.97149  24765152.7814   24765157.3744
  23491118.760    -9907766.68649  -7708582.20549  23491117.4584   23491124.0884
 98  4 21  3 12  0.0000000  0  9 17 26 23 22  3  6 21  9  1
  21308851.812     1659553.54949   1291346.81649  21308850.7204   21308855.9784
  24034413.252     7350360.98149   5712407.90449  24034412.2634   24034418.6994
  21152500.992      792149.34349    610770.20449  21152500.2294   21152504.9874
  25282744.732     5527287.09449   4299596.83549  25282743.5314   25282753.6494
  22436553.131    -8153035.86149  -6339419.88349  22436552.3684   22436557.9044
  24093130.461    10163023.25049   7908093.32149  24093129.7634   24093137.1534
  21884094.901    -4994194.78149  -3883485.99449  21884094.2574   21884099.4244
  24753485.623    -5280645.12249  -4105828.59549  24753484.1404   24753490.5244
  23470478.055   -10016233.59049  -7793101.69749  23470476.5374   23470483.2874
 98  4 21  3 12 30.0000000  0  8 17 26 23  3  6 21  9  1
  21313856.230     1685851.98849   1311839.12749  21313855.0654   21313860.2544
  24051444.294     7439859.84849   5782147.27549  24051445.7214   24051448.6864
  21155821.863      809600.53849    624368.55749  21155821.0304   21155825.7524
  22423683.961    -8220663.60649  -6392116.78049  22423682.7874   22423688.7224
  24113819.242    10271743.18249   7992810.06649  24113819.3404   24113826.4974
  21876029.044    -5036581.01049  -3916514.17549  21876028.1614   21876033.2934
  24741827.513    -5341908.29849  -4153566.07949  24741824.8214   24741831.3684
  23449839.165   -10124690.74649  -7877613.59449  23449837.3254   23449844.5444
 98  4 21  3 13  0.0000000  0  8 17 26 23  3  6 21  9  1
  21318897.179     1712342.56649   1332481.15849  21318895.9254   21318901.3684
  24068516.961     7529576.80249   5852056.56949  24068516.7434   24068522.2434
  21159171.037      827200.73649    638083.02049  21159170.1614   21159174.7434
  22410884.889    -8287923.35349  -6444526.93549  22410884.5574   22410889.5024
  24134510.082    10380474.69549   8077535.84649  24134510.0264   24134517.3124
  21867989.674    -5078827.71549  -3949433.63549  21867988.6564   21867993.9504
  24730189.936    -5403063.41649  -4201219.32749  24730189.3364   24730194.9894
  23429213.560   -10233078.49549  -7962071.41349  23429212.0844   23429218.4554
 98  4 21  3 13 30.0000000  0  8 17 26 23  3  6 21  9  1
  21324009.519     1739208.31049   1353415.52049  21324008.8264   21324013.5844
  24085664.311     7619686.76049   5922272.11249  24085664.1824   24085669.8084
  21162583.100      845131.27349    652054.88349  21162582.3094   21162586.9374
  22398192.094    -8354624.51849  -6496501.83249  22398191.4954   22398196.3434
  24155238.468    10489402.54749   8162414.64149  24155238.7564   24155245.1654
  21860010.869    -5120756.31549  -3982105.22749  21860009.9804   21860015.3464
  24718610.716    -5463912.89949  -4248634.45749  24718611.1124   24718614.9364
  23408635.823   -10341214.36649  -8046332.96149  23408634.6294   23408642.2984
 98  4 21  3 14  0.0000000  0  8 17 26 23  3  6 21  9  1
  21329148.868     1766215.65749   1374460.23149  21329148.0184   21329152.7384
  24102838.025     7709934.90549   5992595.33949  24102838.0624   24102843.7984
  21166009.711      863138.27049    666086.33349  21166008.9374   21166013.6014
  22385558.778    -8421012.90849  -6548233.00549  22385558.3304   22385563.3134
  24175958.125    10598283.46249   8247256.85349  24175958.7324   24175964.3674
  21852043.893    -5162622.84349  -4014728.45149  21852042.6964   21852048.4874
  24707045.895    -5524686.16049  -4295990.20149  24707044.2494   24707050.6914
  23388060.724   -10449336.79749  -8130584.05049  23388059.3634   23388066.6644
 98  4 21  3 14 30.0000000  0  8 17 26 23  3  6 21  9  1
  21334333.414     1793460.75149   1395690.19949  21334332.1794   21334337.3664
  24120052.394     7800396.91649   6063085.21549  24120051.8464   24120056.7974
  21169465.680      881299.55549    680238.00149  21169464.8544   21169469.6724
  22373001.665    -8487000.77549  -6599652.08849  22373001.1644   22373005.9874
  24196683.360    10707194.86749   8332122.82949  24196683.3254   24196690.0154
  21844104.505    -5204344.61749  -4047238.87249  21844103.8924   21844108.8414
  24695516.648    -5585272.09849  -4343199.98349  24695516.5404   24695522.0444
  23367505.698   -10557353.81249  -8214752.99449  23367504.2734   23367511.3704
 98  4 21  3 15  0.0000000  0  8 17 26 23  3  6 21  9  1
  21339596.754     1821119.86849   1417242.78749  21339595.9354   21339600.6164
  24137340.587     7891246.92749   6133877.41149  24137340.3974   24137346.3404
  21172981.134      899773.32649    694633.17349  21172980.1614   21172984.8794
  22360552.383    -8552422.16149  -6650629.74849  22360551.5924   22360556.6384
  24217448.993    10816319.04549   8417154.62349  24217448.3894   24217455.6014
  21836227.541    -5245738.15649  -4079493.52849  21836226.6354   21836231.9634
  24684059.033    -5645482.78949  -4390117.35849  24684058.6824   24684064.4564
  23347005.099   -10665084.69849  -8298698.99849  23347004.2254   23347010.7854
 98  4 21  3 15 30.0000000  0  8 17 26 23  3  6 21  9  1
  21344906.041     1849020.25649   1438983.36349  21344905.1104   21344910.0774
  24154669.791     7982313.07349   6204838.00549  24154669.3304   24154674.7514
  21176522.058      918381.00649    709132.68449  21176521.2494   21176525.8964
  22348177.651    -8617451.58549  -6701301.98549  22348176.7894   22348181.9594
  24238223.752    10925490.44449   8502223.18549  24238223.1374   24238231.0444
  21828381.620    -5286968.75649  -4111621.22349  21828380.6174   21828385.9784
  24672641.375    -5705482.51049  -4436870.32349  24672640.4564   24672646.1264
  23326527.705   -10772693.30649  -8382549.71249  23326526.6324   23326533.4304
 98  4 21  3 16  0.0000000  0  8 17 26 23  3  6 21  9  1
  21350274.396     1877231.56549   1460966.21549  21350273.4634   21350278.4044
  24172052.498     8073659.19549   6276016.81549  24172052.4064   24172056.6724
  21180104.211      937205.22149    723800.92449  21180103.3204   21180108.0374
  22335891.539    -8682014.86849  -6751610.99849  22335891.2644   22335895.8474
  24259021.578    11034782.49149   8587385.75949  24259022.2284   24259029.4584
  21820582.767    -5327951.78249  -4143555.99549  21820581.9654   21820587.2214
  24661276.930    -5765203.01549  -4483405.73449  24661275.4444   24661282.6274
  23306090.043   -10880093.36649  -8466237.92549  23306089.4204   23306095.4614
 98  4 21  3 16 30.0000000  0  8 17 26 23  3  6 21  9  1
  21355697.866     1905732.11049   1483174.45749  21355696.9194   21355701.7824
  24189482.595     8165254.86449   6347390.03149  24189481.7104   24189488.1654
  21183726.487      956240.36349    738633.52749  21183725.6824   21183730.2234
  22323692.311    -8746122.64049  -6801565.06249  22323691.8104   22323696.6434
  24279836.703    11144166.15549   8672619.71849  24279835.5304   24279842.9294
  21812829.203    -5368696.94449  -4175305.42249  21812828.3434   21812833.5394
  24649960.929    -5824668.83149  -4529742.67249  24649959.4784   24649965.2644
  23285689.993   -10987296.22249  -8549772.48249  23285689.8024   23285695.6234
 98  4 21  3 17  0.0000000  0  8 17 26 23  3  6 21  9  1
  21361154.552     1934406.88649   1505518.45149  21361153.7114   21361158.8014
  24206933.950     8256962.70349   6418850.66049  24206934.9084   24206939.3494
  21187364.229      975357.14249    753529.73749  21187363.3944   21187368.1274
  22311557.850    -8809889.51049  -6851253.49749  22311556.9914   22311562.4574
  24300645.540    11253518.18849   8757829.05049  24300645.0834   24300653.4584
  21805096.788    -5409330.66549  -4206968.01249  21805095.8264   21805101.0724
  24638667.976    -5884013.00549  -4575984.79449  24638667.7954   24638673.2854
  23265303.701   -11094426.14649  -8633250.20849  23265302.5064   23265309.1204
 98  4 21  3 17 30.0000000  0  8 17 26 23  3  6 21  9  1
  21366657.850     1963326.66449   1528053.36749  21366656.6414   21366661.6444
  24224419.923     8348851.42849   6490452.27249  24224418.3544   24224423.8574
  21191030.569      994623.94449    768542.85249  21191029.8254   21191034.4834
  22299504.802    -8873228.37749  -6900608.41349  22299504.0754   22299508.7144
  24321458.187    11362889.60249   8843053.46049  24321456.8564   24321464.7424
  21797396.525    -5449795.74249  -4238499.20049  21797395.5074   21797401.0124
  24627408.704    -5943181.14149  -4622089.75449  24627407.7104   24627414.1604
  23244943.897   -11201417.14149  -8716619.67249  23244942.5514   23244949.2264
 98  4 21  3 18  0.0000000  0  8 17 26 23  3  6 21  9  1
  21372210.539     1992506.69549   1550791.07349  21372209.3974   21372214.8954
  24241942.354     8440932.52749   6562203.74149  24241943.5624   24241947.0734
  21194728.585     1014057.32949    783685.77549  21194727.6454   21194732.2264
  22287536.561    -8936121.39249  -6949615.91849  22287536.1204   22287540.8924
  24342274.442    11472279.70649   8928292.44549  24342273.7854   24342281.1534
  21789727.683    -5490095.55349  -4269901.59849  21789726.8464   21789732.2554
  24616183.228    -6002171.04249  -4668055.82249  24616182.1024   24616189.2904
  23224613.222   -11308255.07549  -8799869.87449  23224612.2754   23224619.7774
 98  4 21  3 18 30.0000000  0  8 17 26 23  3  6 21  9  1
  21377843.062     2022106.15449   1573855.60049  21377842.2284   21377847.5374
  24259530.287     8533356.64249   6634222.52649  24259530.1974   24259534.5474
  21198483.919     1033791.89549    799063.38049  21198483.0864   21198487.6594
  22275683.251    -8998410.61549  -6998152.92849  22275682.5364   22275687.5434
  24363123.435    11581842.09649   9013665.68849  24363123.0314   24363130.3014
  21782117.550    -5530086.78849  -4301063.55549  21782116.5544   21782122.1294
  24605021.303    -6060826.87449  -4713761.62349  24605019.5694   24605026.5784
  23204339.957   -11414791.23549  -8882884.91949  23204339.0504   23204345.3644
 98  4 21  3 19  0.0000000  0  8 17 26 23  3  6 21  9  1
  21383539.133     2052039.21849   1597180.08649  21383538.2844   21383543.1044
  24277170.752     8626057.98149   6706457.30949  24277170.6744   24277176.1334
  21202279.593     1053738.28649    814606.04949  21202278.6384   21202283.4594
  22263929.791    -9060175.41249  -7046281.29849  22263929.2624   22263933.9714
  24383993.245    11691512.80749   9099123.33649  24383993.5634   24383999.3274
  21774553.397    -5569836.48649  -4332037.29949  21774552.6114   21774557.7574
  24593909.471    -6119219.23649  -4759262.10749  24593908.3624   24593915.3864
  23184109.049   -11521104.07549  -8965725.94749  23184107.5864   23184114.8674
 98  4 21  3 19 30.0000000  0  8 17 26 23  3  6 21  9  1
  21389272.803     2082169.68549   1620658.39549  21389271.6654   21389276.8954
  24294844.165     8718932.56749   6778827.11049  24294843.8004   24294849.5704
  21206095.823     1073792.88949    830233.03749  21206094.9064   21206099.7914
  22252250.716    -9121549.26449  -7094105.03349  22252249.6784   22252255.5284
  24404860.650    11801171.45549   9184571.55549  24404861.1264   24404868.8914
  21767011.627    -5609468.64449  -4362919.45349  21767010.8824   21767016.0944
  24582826.550    -6177460.07049  -4804644.53749  24582826.5034   24582831.7664
  23163898.612   -11627309.80949  -9048483.52349  23163898.0374   23163904.7414
 98  4 21  3 20  0.0000000  0  8 17 26 23  3  6 21  9  1
  21395064.668     2112606.06649   1644375.07349  21395063.8064   21395068.2644
  24312569.155     8812077.72849   6851407.74449  24312569.0894   24312574.8704
  21209955.353     1094074.74649    846037.10049  21209954.7044   21209959.2744
  22240664.252    -9182436.31749  -7141549.45049  22240663.7494   22240668.7134
  24425748.726    11910939.17049   9270104.77649  24425748.3264   24425756.5184
  21759512.489    -5648876.95049  -4393627.18449  21759511.3944   21759516.8144
  24571797.466    -6235418.20349  -4849806.64749  24571796.9294   24571802.4924
  23143728.345   -11733304.67249  -9131076.78249  23143726.8914   23143734.1414
 98  4 21  3 20 30.0000000  0  8 17 26 23  3  6 21  9  1
  21400914.329     2143346.46749   1668328.65049  21400913.5064   21400918.6264
  24330347.376     8905504.00749   6924207.40649  24330347.3814   24330353.5494
  21213858.931     1114588.19549    862021.62949  21213858.0924   21213862.7334
  22229170.065    -9242838.59649  -7188616.12249  22229169.5264   22229174.7634
  24446659.408    12020825.19549   9355730.17349  24446658.1614   24446665.8784
  21752060.702    -5688036.20249  -4424140.84549  21752059.5734   21752064.9394
  24560825.304    -6293077.33549  -4894735.78949  24560824.5254   24560829.9614
  23123597.245   -11839094.09849  -9213509.96849  23123596.0984   23123602.2704
 98  4 21  3 21  0.0000000  0  8 17 26 23  3  6 21  9  1
  21406828.840     2174427.50449   1692547.65149  21406827.7524   21406832.9194
  24348188.138     8999257.18649   6997261.84549  24348188.1504   24348193.4424
  21217815.733     1135381.47749    878224.20949  21217814.8124   21217819.5154
  22217773.476    -9302728.23649  -7235283.32749  22217773.0364   22217778.3694
  24467598.125    12130857.96749   9441469.95149  24467598.1544   24467605.0434
  21744665.348    -5726898.65149  -4454423.22949  21744664.5024   21744669.6464
  24549918.406    -6350393.44849  -4939397.61749  24549917.5964   24549923.3404
  23103513.051   -11944636.53349  -9295750.68449  23103511.7724   23103517.5174
 98  4 21  3 21 30.0000000  0  8 17 26 23  3  6 21  9  1
  21412841.929     2206026.46949   1717170.23849  21412840.9294   21412845.9714
  24366121.991     9093500.47549   7070698.13649  24366121.4654   24366126.0854
  21221857.709     1156622.36049    894775.57249  21221856.8844   21221861.7704
  22206506.733    -9361935.14649  -7281418.53749  22206506.0264   22206510.8334
  24488593.242    12241187.23949   9527440.75849  24488592.6204   24488599.8594
  21737357.069    -5765303.98749  -4484349.42549  21737356.6114   21737361.5214
  24539108.767    -6407197.69049  -4983660.57749  24539107.7694   24539114.8294
  23083509.051   -12049757.78049  -9377663.21049  23083508.3304   23083514.3054
 98  4 21  3 22  0.0000000  0  8 17 26 23  3  6 21  9  1
  21418936.249     2238052.35149   1742125.49349  21418935.1704   21418939.9414
  24384127.562     9188119.74749   7144427.44249  24384128.2294   24384132.4664
  21225963.609     1178199.00849    911588.57349  21225962.8424   21225967.3664
  22195356.460    -9420529.93249  -7327076.76949  22195356.0254   22195360.8044
  24509627.102    12351720.76549   9613570.72349  24509626.2094   24509633.0634
  21730119.680    -5803336.60249  -4513985.18049  21730118.9324   21730124.1214
  24528378.814    -6463583.12949  -5027597.19649  24528378.1074   24528384.7694
  23063567.618   -12154550.28649  -9459319.57949  23063566.9154   23063573.5944
 98  4 21  3 22 30.0000000  0  8 17 26 23  3  6 21  9  1
  21425106.061     2270475.07049   1767389.97749  21425105.1084   21425110.3884
  24402200.633     9283093.93349   7218433.27749  24402199.5394   24402205.6214
  21230125.141     1200068.05249    928629.40949  21230124.3814   21230128.8704
  22184320.535    -9478524.20549  -7372267.06549  22184320.0054   22184324.7344
  24530694.260    12462429.29149   9699837.03649  24530694.1844   24530700.3724
  21722951.644    -5841004.68749  -4543336.89649  21722950.8344   21722955.8834
  24517722.761    -6519580.87849  -5071231.74849  24517721.8344   24517728.5094
  23043687.316   -12259021.32549  -9540725.43249  23043686.5984   23043692.2454
 98  4 21  3 23  0.0000000  0  8 17 26 23  3  6 21  9  1
  21431338.890     2303228.97349   1792912.51649  21431338.1234   21431342.7364
  24420325.448     9378341.98449   7292652.52749  24420325.2014   24420330.6244
  21234327.779     1222153.09649    945838.55949  21234326.9914   21234331.5724
  22173388.304    -9535973.28849  -7417032.54449  22173387.3534   22173392.7984
  24551780.724    12573238.99749   9786182.18249  24551779.7874   24551787.1204
  21715834.519    -5878405.35449  -4572480.22949  21715833.5214   21715838.8804
  24507128.151    -6575255.70149  -5114614.63949  24507127.4994   24507134.2604
  23023857.587   -12363226.95549  -9621924.48749  23023856.2564   23023862.5084
 98  4 21  3 23 30.0000000  0  8 17 26 23  3  6 21  9  1
  21437632.273     2336301.26549   1818683.14749  21437631.5174   21437636.1624
  24438499.520     9473846.80849   7367071.86549  24438498.5894   24438503.4464
  21238567.854     1244434.97249    963201.08449  21238567.0164   21238571.6814
  22162559.851    -9592876.95849  -7461373.02149  22162559.4794   22162563.8614
  24572882.501    12684129.79449   9872590.50949  24572882.8974   24572889.5904
  21708761.012    -5915576.81249  -4601444.95049  21708760.0984   21708765.1764
  24496592.551    -6630620.79249  -5157756.22449  24496592.2824   24496598.2664
  23004077.007   -12467174.43549  -9702922.39749  23004075.4104   23004082.1364
 98  4 21  3 24  0.0000000  0  8 17 26 23  3  6 21  9  1
  21443987.234     2369696.69149   1844705.57949  21443986.0374   21443991.1154
  24456724.173     9569618.42349   7441699.08849  24456724.3224   24456729.9074
  21242847.455     1266924.40649    980725.34449  21242846.6734   21242851.2904
  22151838.057    -9649220.37849  -7505276.94549  22151837.4924   22151842.6724
  24594001.428    12795110.06649   9959068.56849  24594001.1774   24594008.3684
  21701731.957    -5952514.42749  -4630227.46349  21701731.2544   21701736.0804
  24486118.490    -6685661.51449  -5200645.03749  24486117.5944   24486124.1754
  22984346.817   -12570856.85349  -9783713.75749  22984345.7094   22984352.0874
 98  4 21  3 24 30.0000000  0  8 17 26 23  3  6 21  9  1
  21450405.259     2403423.70149   1870986.38749  21450404.4144   21450409.3904
  24474999.326     9665654.02049   7516532.01549  24474999.6104   24475004.7504
  21247165.635     1289616.82449    998407.77149  21247164.8544   21247169.3894
  22141219.122    -9705022.99349  -7548759.46249  22141218.7234   22141223.3724
  24615132.081    12906152.08649  10045594.72149  24615131.7494   24615138.7174
  21694744.249    -5989234.93949  -4658840.80249  21694743.4224   21694748.2834
  24475705.768    -6740380.17549  -5243282.88549  24475705.1124   24475710.8114
  22964667.181   -12674273.51949  -9864298.04849  22964665.8934   22964672.3824
 98  4 21  3 25  0.0000000  0  8 17 26 23  3  6 21  9  1
  21456888.981     2437495.70949   1897536.03549  21456887.6664   21456893.0374
  24493324.202     9761951.81849   7591569.23049  24493324.4844   24493329.1254
  21251524.302     1312521.87049   1016255.88349  21251523.2374   21251528.0634
  22130704.144    -9760279.19649  -7591816.20649  22130703.8934   22130708.7614
  24636271.468    13017240.54249  10132157.04649  24636270.5054   24636280.0854
  21687795.789    -6025749.08449  -4687293.33749  21687794.9224   21687799.8734
  24465356.196    -6794767.71549  -5285662.71549  24465356.0364   24465361.6204
  22945036.943   -12777430.56449  -9944680.03049  22945036.0524   22945042.2414
 98  4 21  3 25 30.0000000  0  8 17 26 23  3  6 21  9  1
  21463437.735     2471909.79449   1924352.22149  21463437.0224   21463441.7194
  24511697.898     9858505.36049   7666805.76349  24511698.1054   24511702.7104
  21255923.428     1335639.71049   1034269.80749  21255922.6614   21255927.1644
  22120291.406    -9814998.37549  -7634454.48649  22120290.6614   22120295.8054
  24657417.840    13128364.53049  10218747.04949  24657417.2054   24657425.3904
  21680891.998    -6062028.55949  -4715563.00849  21680891.2114   21680896.1924
  24455070.544    -6848819.17749  -5327780.64549  24455068.9584   24455075.9614
  22925454.191   -12880338.21749 -10024867.68249  22925453.1294   22925459.2314
 98  4 21  3 26  0.0000000  0  8 17 26 23  3  6 21  9  1
  21470052.411     2506669.78049   1951437.93849  21470051.2234   21470056.5474
  24530115.964     9955293.06849   7742224.73049  24530115.9444   24530119.7264
  21260364.060     1358975.30949   1052453.41149  21260363.1274   21260367.7824
  22109980.966    -9869180.20849  -7676674.06549  22109980.2594   22109985.4084
  24678571.519    13239528.25949  10305368.01149  24678573.2294   24678577.9884
  21674036.326    -6098055.15449  -4743635.63349  21674035.2284   21674040.1754
  24444848.538    -6902535.99149  -5369637.82949  24444848.1044   24444853.9714
  22905917.678   -12983002.60249 -10104865.77949  22905917.3334   22905922.4304
 98  4 21  3 26 30.0000000  0  8 17 26 23  3  6 21  9  1
  21476731.475     2541768.59549   1978787.67849  21476730.5994   21476735.3984
  24548573.993    10052291.42249   7817807.86249  24548574.1064   24548577.9584
  21264845.317     1382524.49449   1070803.44649  21264844.4554   21264849.0554
  22099770.031    -9922838.98549  -7718486.06249  22099769.6284   22099774.4784
  24699732.223    13350728.21149  10392017.19949  24699732.1314   24699739.7014
  21667226.984    -6133838.00849  -4771518.32949  21667226.2214   21667231.0144
  24434689.006    -6955924.17849  -5411238.94149  24434688.8874   24434694.0124
  22886426.668   -13085428.15749 -10184677.77349  22886425.7274   22886432.1034
 98  4 21  3 27  0.0000000  0  8 17 26 23  3  6 21  9  1
  21483470.981     2577184.76849   2006384.71049  21483469.8434   21483474.8944
  24567071.151    10149494.27349   7893550.35749  24567068.7224   24567076.6824
  21269368.023     1406291.72749   1089323.38749  21269367.2134   21269371.9344
  22089657.976    -9975977.88549  -7759892.96049  22089657.7484   22089662.4914
  24720902.609    13461977.69749  10478705.02749  24720901.1964   24720911.7704
  21660463.033    -6169382.76949  -4799215.50449  21660462.4544   21660467.3964
  24424589.936    -7008995.25349  -5452592.95349  24424590.2284   24424594.7814
  22866980.074   -13187620.16149 -10264307.77749  22866979.5094   22866985.1524
 98  4 21  3 27 30.0000000  0  8 17 26 23  3  6 21  9  1
  21490270.561     2612916.94749   2034227.98649  21490269.3764   21490274.3574
  24585602.966    10246881.13249   7969436.18849  24585602.9414   24585606.9964
  21273932.877     1430280.33549   1108015.83249  21273931.9434   21273936.6284
  22079643.543   -10028604.45449  -7800900.63949  22079642.5524   22079647.6834
  24742084.169    13573286.56849  10565439.10249  24742084.4414   24742091.8544
  21653742.296    -6204700.28449  -4826735.59949  21653741.3474   21653746.4814
  24414548.452    -7061763.67849  -5493711.17149  24414547.4214   24414553.5944
  22847579.995   -13289567.77749 -10343747.34849  22847579.4604   22847584.5084
 98  4 21  3 28  0.0000000  0  8 17 26 23  3  6 21  9  1
  21497130.745     2648967.63549   2062319.45449  21497129.9474   21497134.4584
  24604169.245    10344446.48949   8045461.18349  24604169.8084   24604174.6744
  21278537.474     1454477.68349   1126870.92949  21278536.5464   21278541.0954
  22069724.885   -10080727.02549  -7841515.59749  22069724.2784   22069728.6534
  24763279.305    13684666.83349  10652228.85349  24763278.6294   24763285.9534
  21647059.403    -6239819.12949  -4854100.88949  21647058.7034   21647063.6424
  24404562.276    -7114240.96849  -5534602.51449  24404561.6644   24404567.8204
  22828228.631   -13391259.47149 -10422987.50749  22828227.1074   22828233.2014
 98  4 21  3 28 30.0000000  0  8 17 26 23  3  6 21  9  1
  21504050.481     2685331.21349   2090654.72549  21504049.3964   21504054.6604
  24622772.478    10442208.00249   8121638.98849  24622772.3794   24622778.6984
  21283180.260     1478876.03949   1145882.65849  21283179.5514   21283184.0024
  22059901.608   -10132348.57549  -7881740.14749  22059901.3084   22059905.8904
  24784488.525    13796122.09249  10739077.01949  24784489.2154   24784495.6914
  21640415.725    -6274731.71549  -4881305.45749  21640415.0624   21640419.8054
  24394632.799    -7166419.71749  -5575261.19649  24394631.2784   24394638.9064
  22808928.062   -13492684.14349 -10502019.60249  22808926.6794   22808932.7974
 98  4 21  3 29  0.0000000  0  7 17 26 23  3 21  9  1
  21511030.972     2722014.26149   2119238.93349  21511030.1844   21511035.0254
  24641414.345    10540171.65449   8197974.25349  24641415.1534   24641419.1054
  21287859.983     1503468.03249   1165045.27149  21287859.2824   21287863.5734
  22050174.242   -10183465.91849  -7921571.80749  22050173.4034   22050178.3974
  21633813.900    -6309424.46549  -4908338.72649  21633813.0334   21633817.9114
  24384760.697    -7218297.53249  -5615685.39049  24384760.7014   24384766.1594
  22789678.543   -13593840.31549 -10580842.46749  22789677.5154   22789683.3394
 98  4 21  3 29 30.0000000  0  7 17 26 23  3 21  9  1
  21518072.874     2759019.98449   2148074.57849  21518071.8894   21518076.7594
  24660093.660    10638331.07349   8274462.17149  24660093.6924   24660096.2624
  21292573.516     1528237.66949   1184346.30949  21292572.7394   21292577.4474
  22040542.260   -10234082.30549  -7961013.11049  22040541.9404   22040546.6464
  21627254.689    -6343893.32649  -4935197.53449  21627253.7244   21627258.8064
  24374948.456    -7269861.58549  -5655865.11249  24374948.2844   24374953.1324
  22770478.526   -13694736.66449 -10659462.87849  22770477.3974   22770482.7974
 98  4 21  3 30  0.0000000  0  8 17 26 23  3 21  9  8  1
  21525172.796     2796330.32749   2177147.58449  21525171.8444   21525176.7264
  24678814.821    10736711.98949   8351122.62849  24678814.5024   24678819.5954
  21297319.345     1553177.34349   1203779.84549  21297318.6634   21297323.0814
  22031006.472   -10284193.32349  -8000060.62149  22031005.4824   22031010.4334
  21620742.047    -6378117.46149  -4961865.64949  21620741.0024   21620745.9014
  24365199.336    -7321093.40149  -5695785.92149  24365198.8844   24365205.1054
  24927802.542    -6276369.99049  -4882675.00349  24927801.8224   24927808.7564
  22751324.727   -13795390.22149 -10737894.11349  22751323.5664   22751329.5814
 98  4 21  3 30 30.0000000  0  8 17 26 23  3 21  9  8  1
  21532328.640     2833934.46149   2206449.52749  21532327.9504   21532332.8684
  24697577.915    10835311.57949   8427953.46149  24697577.2534   24697583.9684
  21302098.649     1578292.69849   1223350.27549  21302097.7754   21302102.4774
  22021570.196   -10333780.88649  -8038700.23749  22021569.4554   22021574.6434
  21614276.658    -6412093.11849  -4988340.14249  21614275.8884   21614280.8274
  24355514.967    -7371985.35349  -5735441.91949  24355513.8794   24355520.7894
  24911755.268    -6360698.47049  -4948385.44349  24911753.8424   24911759.9844
  22732215.518   -13895808.86449 -10816142.28749  22732214.7354   22732220.7084
 98  4 21  3 31  0.0000000  0  8 17 26 23  3 21  9  8  1
  21539540.491     2871832.97349   2235980.85749  21539539.3974   21539544.2904
  24716379.207    10934113.40949   8504941.91849  24716378.9774   24716383.9964
  21306908.918     1603571.04649   1243047.71349  21306907.9754   21306912.6464
  22012236.105   -10382831.54549  -8076921.49649  22012235.4174   22012240.2524
  21607854.678    -6445840.65449  -5014636.88749  21607854.0644   21607858.7784
  24345895.903    -7422533.85349  -5774830.30349  24345895.1284   24345901.2154
  24895707.599    -6445029.28949  -5014097.68249  24895706.5514   24895712.6504
  22713152.023   -13995987.93249 -10894203.78849  22713150.7834   22713156.8834
 98  4 21  3 31 30.0000000  0  8 17 26 23  3 21  9  8  1
  21546805.413     2910010.33349   2265729.47049  21546804.3284   21546809.0704
  24735218.464    11033114.55549   8582085.69349  24735218.7744   24735222.9404
  21311748.730     1629004.45849   1262865.98149  21311747.7644   21311752.2174
  22003005.360   -10431339.46049  -8114719.83149  22003004.9274   22003009.7534
  21601473.176    -6479375.49749  -5040767.89049  21601472.5324   21601477.1964
  24336343.958    -7472729.72749  -5813943.89949  24336342.9604   24336350.0204
  24879658.384    -6529368.01149  -5079816.07549  24879657.0124   24879663.0024
  22694135.476   -14095920.42249 -10972073.15649  22694134.1384   22694140.2474
 98  4 21  3 32  0.0000000  0  8 17 26 23  3 21  9  8  1
  21554125.713     2948478.95449   2295705.03549  21554124.7804   21554129.9294
  24754094.527    11132308.05049   8659379.31049  24754093.4384   24754099.4614
  21316617.957     1654592.55949   1282804.78749  21316617.2034   21316621.6134
  21993880.196   -10479292.42149  -8152085.74149  21993879.5444   21993884.2484
  21595131.518    -6512701.00549  -5066735.77249  21595130.5424   21595135.6264
  24326858.041    -7522577.90349  -5852786.54649  24326858.1274   24326862.1364
  24863607.801    -6613714.03549  -5145540.20249  24863606.6634   24863613.4194
  22675169.652   -14195586.20249 -11049734.69649  22675168.8774   22675174.8844
 98  4 21  3 32 30.0000000  0  8 17 26 23  3 21  9  8  1
  21561504.402     2987254.19149   2325919.53349  21561503.5124   21561508.3384
  24773001.149    11231663.29849   8736798.99249  24773001.6184   24773004.3344
  21321515.610     1680329.82749   1302859.82749  21321514.6434   21321519.2904
  21984860.550   -10526690.74349  -8189019.45749  21984859.6584   21984864.3484
  21588825.713    -6545838.12349  -5092556.85949  21588824.8284   21588829.5024
  24317435.142    -7572094.71449  -5891371.00949  24317434.8404   24317437.6014
  24847552.309    -6698085.72149  -5211284.27749  24847550.9484   24847556.4074
  22656258.947   -14294962.29549 -11127170.50749  22656257.1604   22656263.2654
 98  4 21  3 33  0.0000000  0  8 17 26 23  3 21  9  8  1
  21568942.755     3026343.08949   2356378.44449  21568941.8424   21568946.8284
  24791939.694    11331185.31849   8814348.67149  24791940.0474   24791943.4534
  21326441.933     1706218.02849   1323032.47449  21326441.2224   21326445.4044
  21975945.212   -10573540.76249  -8225525.92849  21975944.3704   21975949.4434
  21582556.512    -6578782.83149  -5118228.01649  21582555.6284   21582560.9254
  24308074.335    -7621286.40749  -5929702.13149  24308073.1914   24308079.9764
  24831490.422    -6782491.08849  -5277054.61249  24831489.5084   24831494.6064
  22637405.246   -14394038.52149 -11204372.65849  22637404.0514   22637409.9544
 98  4 21  3 33 30.0000000  0  8 17 26 23  3 21  9  8  1
  21576443.007     3065757.05949   2387090.65249  21576442.1104   21576446.8454
  24810912.886    11430891.03749   8892041.44249  24810912.3234   24810918.1964
  21331400.515     1732275.72649   1343337.19649  21331399.6394   21331404.2834
  21967134.084   -10619843.46149  -8261605.91949  21967133.7704   21967138.2774
  21576325.349    -6611527.70449  -5143743.45749  21576324.5914   21576329.2224
  24298774.453    -7670156.87849  -5967782.94049  24298773.5694   24298778.9504
  24815423.272    -6866924.53949  -5342846.87949  24815422.9704   24815428.9544
  22618606.623   -14492825.32649 -11281349.28849  22618605.2954   22618611.3574
 98  4 21  3 34  0.0000000  0  8 17 26 23  3 21  9  8  1
  21584008.229     3105512.87749   2418069.24249  21584007.4334   21584012.1184
  24829921.031    11530780.70949   8969877.52649  24829922.7924   24829924.4604
  21336393.181     1758512.49549   1363781.45849  21336392.2934   21336396.8144
  21958428.204   -10665592.95049  -8297254.83249  21958427.9174   21958432.6704
  21570131.695    -6644075.42449  -5169105.27549  21570130.9094   21570135.7194
  24289533.570    -7718717.83649  -6005622.56449  24289532.6764   24289539.0334
  24799353.470    -6951371.70049  -5408649.79749  24799352.4164   24799358.1154
  22599861.730   -14591330.02149 -11358106.09549  22599861.0724   22599866.3714
 98  4 21  3 34 30.0000000  0  8 17 26 23  3 21  9  8  1
  21591635.100     3145592.62949   2449300.25249  21591634.1834   21591638.9464
  24848966.380    11630864.46249   9047864.92849  24848966.6584   24848973.3724
  21341419.943     1784928.20449   1384365.15149  21341419.2734   21341423.4944
  21949827.688   -10710789.36049  -8332472.77749  21949826.9614   21949831.9504
  21563974.158    -6676433.47049  -5194319.29449  21563973.3824   21563978.3194
  24280354.446    -7766953.91849  -6043209.01949  24280353.9014   24280359.8364
  24783284.226    -7035816.02049  -5474450.51049  24783282.4014   24783288.6684
  22581167.820   -14689566.72149 -11434654.07749  22581167.0034   22581172.8854
 98  4 21  3 35  0.0000000  0  8 17 26 23  3 21  9  8  1
  21599320.893     3185982.19849   2480772.67449  21599319.9024   21599324.8134
  24868047.259    11731136.09449   9125998.64349  24868044.8514   24868052.1184
  21346478.924     1811513.34249   1405080.86949  21346478.0614   21346482.4914
  21941330.369   -10755442.51049  -8367267.39949  21941329.5844   21941334.5394
  21557852.463    -6708603.12749  -5219386.51649  21557851.4104   21557856.4974
  24271239.899    -7814850.90649  -6080531.26349  24271239.4314   24271244.3484
  24767217.725    -7120245.57049  -5540239.69649  24767216.6434   24767223.2884
  22562519.852   -14787561.93949 -11511013.88549  22562518.9534   22562524.1824
 98  4 21  3 35 30.0000000  0  8 17 26 23  3 21  9  8  1
  21607066.669     3226686.71449   2512490.50449  21607065.5504   21607070.7214
  24887161.008    11831579.25049   9204266.04149  24887160.8774   24887164.8954
  21351570.097     1838267.66049   1425928.41049  21351569.4064   21351573.9724
  21932937.427   -10799547.94149  -8401635.23249  21932937.0744   21932941.5564
  21551767.972    -6740577.22749  -5244301.36049  21551767.1224   21551771.8464
  24262193.061    -7862392.11249  -6117576.27049  24262192.7734   24262197.4734
  24751157.160    -7204643.78949  -5606004.48149  24751156.4014   24751161.7684
  22543918.414   -14885312.83649 -11587183.32349  22543917.5814   22543922.8634
 98  4 21  3 36  0.0000000  0  8 17 26 23  3 21  9  8  1
  21614868.783     3267687.23049   2544438.98749  21614867.6784   21614872.9594
  24906301.333    11932162.27249   9282642.45549  24906302.4464   24906306.1864
  21356691.644     1865181.68149   1446900.39749  21356690.8214   21356695.1774
  21924645.786   -10843120.67749  -8435587.97149  21924644.9644   21924649.8584
  21545720.647    -6772355.89949  -5269063.91849  21545719.7994   21545724.4774
  24253215.181    -7909570.46349  -6154338.54949  24253215.7584   24253220.0464
  24735100.408    -7289022.31249  -5671753.91049  24735098.7674   24735106.7814
  22525365.678   -14982807.96849 -11663153.45849  22525364.9244   22525369.7624
 98  4 21  3 36 30.0000000  0  8 17 26 23  3 21  9  8  1
  21622725.707     3308975.44849   2576611.64349  21622724.8794   21622729.5554
  24925466.101    12032874.53549   9361119.51349  24925467.4284   24925470.5874
  21361843.441     1892254.72549   1467996.29449  21361842.5144   21361847.1154
  21916453.415   -10886171.56549  -8469134.08849  21916453.0454   21916457.5404
  21539712.669    -6803927.81249  -5293665.37149  21539711.6884   21539716.6254
  24244307.591    -7956380.15649  -6190813.57549  24244307.6054   24244312.2154
  24719044.465    -7373396.06549  -5737499.62149  24719042.3334   24719049.1624
  22506866.244   -15080023.02249 -11738905.36149  22506864.8824   22506871.0834
 98  4 21  3 37  0.0000000  0  8 17 26 23  3 21  9  8  1
  21630641.267     3350571.99349   2609024.56449  21630640.5094   21630645.3274
  24944657.054    12133722.09249   9439702.06449  24944655.0154   24944661.8644
  21367029.352     1919506.94549   1489231.81249  21367028.5044   21367033.0514
  21908360.321   -10928701.17149  -8502273.99949  21908360.0584   21908364.2674
  21533748.028    -6835271.94049  -5318089.32649  21533747.2274   21533752.0414
  24235467.898    -8002832.71349  -6227010.30349  24235467.1754   24235471.4424
  24702988.529    -7457770.33549  -5803245.72349  24702988.2374   24702994.2584
  22488424.032   -15176937.05749 -11814422.69749  22488422.9394   22488428.4164
 98  4 21  3 37 30.0000000  0  8 17 26 23  3 21  9  8  1
  21638616.909     3392484.13849   2641683.40249  21638616.3984   21638620.8184
  24963877.554    12234727.05349   9518407.23449  24963878.5174   24963882.7034
  21372250.642     1946944.95249   1510612.09749  21372249.9294   21372254.2114
  21900366.770   -10970707.29849  -8535006.01149  21900366.2124   21900370.7724
  21527827.281    -6866385.53149  -5342333.64149  21527826.5664   21527831.1944
  24226697.543    -8048920.77149  -6262923.01349  24226697.0774   24226701.6764
  24686933.163    -7542142.06349  -5868989.85149  24686931.6534   24686937.2434
  22470044.680   -15273520.68449 -11889682.58049  22470043.8924   22470049.3554
 98  4 21  3 38  0.0000000  0  8 17 26 23  3 21  9  8  1
  21646650.060     3434698.34349   2674577.60549  21646649.1874   21646654.0694
  24983130.099    12335899.70149   9597243.08049  24983131.0984   24983134.8414
  21377505.144     1974557.57649   1532128.44849  21377504.3624   21377508.8614
  21892472.853   -11012190.05649  -8567330.20049  21892472.2274   21892476.7894
  21521948.042    -6897281.06449  -5366408.04449  21521947.2464   21521951.8814
  24217995.971    -8094647.47649  -6298554.11449  24217995.2114   24218001.0104
  24670877.782    -7626512.64749  -5934733.08349  24670877.0474   24670883.1384
  22451727.608   -15369777.19149 -11964687.55849  22451727.0234   22451732.4874
 98  4 21  3 38 30.0000000  0  8 17 26 23  3 21  9  8  1
  21654741.949     3477221.57549   2707712.61049  21654740.9754   21654745.7444
  25002416.868    12437252.62149   9676219.38949  25002417.7064   25002424.2904
  21382790.143     2002330.40449   1553769.63749  21382789.3734   21382793.8744
  21884680.211   -11053140.40149  -8599239.51549  21884679.2424   21884684.2484
  21516108.801    -6927966.29249  -5390318.57149  21516107.9184   21516112.5544
  24209362.697    -8140015.20449  -6333905.52249  24209361.5484   24209366.9954
  24654824.962    -7710869.73049  -6000465.79749  24654823.9414   24654830.2784
  22433470.810   -15465716.75549 -12039445.56849  22433469.9624   22433475.2984
 98  4 21  3 39  0.0000000  0  8 17 26 23  3 21  9  8  1
  21662891.949     3520050.10749   2741085.51349  21662890.8334   21662895.8244
  25021737.043    12538781.12449   9755332.50249  25021738.2514   25021741.1664
  21388101.464     2030241.52949   1575518.59049  21388100.5264   21388104.8674
  21876989.964   -11093552.69649  -8630729.58049  21876989.2654   21876993.9284
  21510307.203    -6958453.61649  -5414074.88949  21510306.5754   21510311.1204
  24200799.824    -8185012.90249  -6368968.60649  24200798.7564   24200804.2664
  24638778.007    -7795197.17449  -6066175.42049  24638777.0104   24638784.0434
  22415269.584   -15561364.42549 -12113976.13049  22415268.8424   22415273.9684
 98  4 21  3 39 30.0000000  0  8 17 26 23  3 21  9  8  1
  21671096.856     3563167.26749   2774683.31949  21671095.9424   21671100.4044
  25041085.318    12640457.60549   9834560.92749  25041085.1474   25041091.0264
  21393433.722     2058262.95449   1597353.48949  21393432.9654   21393437.3004
  21869402.814   -11133422.97749  -8661797.29349  21869402.2984   21869406.9504
  21504539.234    -6988764.34949  -5437693.60349  21504538.4184   21504543.2564
  24192308.881    -8229632.16749  -6403736.77949  24192307.7644   24192313.3024
  24622736.486    -7879495.72149  -6131862.54149  24622734.7554   24622741.8444
  22397122.253   -15656728.98949 -12188286.09549  22397121.4154   22397126.9214
 98  4 21  3 40  0.0000000  0  8 17 26 23  3 21  9  8  1
  21679360.098     3606591.34549   2808520.28549  21679359.1824   21679364.0304
  25060458.593    12742264.87649   9913891.28149  25060457.4664   25060463.9434
  21398787.233     2086396.06749   1619275.41849  21398786.2994   21398790.8634
  21861922.213   -11172733.84049  -8692429.09849  21861921.9064   21861926.5284
  21498806.631    -7018889.38049  -5461167.61549  21498805.7864   21498810.4224
  24183889.177    -8273877.63549  -6438213.65749  24183889.2024   24183894.9214
  24606700.050    -7963767.72549  -6197528.95549  24606699.5464   24606705.2654
  22379027.093   -15751819.26249 -12262382.32249  22379026.3624   22379031.3164
 98  4 21  3 40 30.0000000  0  7 17 23  3 21  9  8  1
  21687683.534     3650331.69849   2842603.69849  21687682.6504   21687687.1864
  21404161.516     2114638.14649   1641282.25249  21404160.7984   21404165.2294
  21854545.954   -11211496.39549  -8722633.64949  21854545.5434   21854550.1984
  21493108.160    -7048835.07149  -5484501.88349  21493107.2414   21493111.8204
  24175539.135    -8317757.68649  -6472405.83649  24175538.8134   24175543.9184
  24590666.137    -8048026.37049  -6263184.97449  24590664.6374   24590671.5034
  22360983.143   -15846640.61549 -12336269.00849  22360982.0944   22360987.5334
 98  4 21  3 41  0.0000000  0  8 17 23  3 21  9  8  1 31
  21696065.202     3694377.78649   2876925.33649  21696064.3974   21696068.9994
  21409557.211     2142992.71249   1663376.74549  21409556.3734   21409560.7834
  21847272.013   -11249721.46249  -8752419.37649  21847271.4094   21847276.1034
  21487440.686    -7078617.74849  -5507709.12549  21487439.9654   21487444.6574
  24167256.932    -8361281.23849  -6506320.20849  24167256.0574   24167261.2144
  24574633.635    -8132277.86049  -6328835.41649  24574631.5874   24574639.3454
  22342989.111   -15941199.60049 -12409951.25449  22342988.6414   22342993.5294
  24788825.188    -2465605.07849  -1909583.31049  24788823.6154   24788829.3014
 98  4 21  3 41 30.0000000  0  8 17 23  3 21  9  8  1 31
  21704506.820     3738738.79749   2911492.38049  21704506.1334   21704510.4744
  21414978.927     2171484.05049   1685577.80549  21414978.1794   21414982.5104
  21840100.497   -11287407.77949  -8781785.30349  21840099.8634   21840104.3074
  21481803.305    -7108242.24749  -5530793.11049  21481802.5784   21481807.3004
  24159040.681    -8404457.42549  -6539963.92549  24159040.1554   24159045.5704
  24558600.740    -8216531.07149  -6394487.20749  24558600.0054   24558606.2874
  22325046.040   -16035490.88449 -12483424.89449  22325044.9534   22325050.3534
  24771034.226    -2559096.84649  -1982433.98649  24771033.1514   24771038.2144
 98  4 21  3 42  0.0000000  0  8 17 23  3 21  9  8  1 31
  21713010.354     3783424.92249   2946312.75749  21713009.3564   21713014.1614
  21420428.768     2200123.27949   1707894.11349  21420427.8964   21420432.4414
  21833029.710   -11324564.98949  -8810738.93849  21833029.0784   21833033.6624
  21476197.018    -7137703.42249  -5553749.82749  21476196.0994   21476200.7874
  24150891.179    -8447283.54849  -6573334.82749  24150890.1774   24150896.1594
  24542569.715    -8300774.72449  -6460131.55449  24542568.6634   24542574.9754
  22307153.547   -16129516.44849 -12556691.48249  22307152.7104   22307157.8694
  24753291.697    -2652333.24749  -2055085.68349  24753290.2344   24753297.0164
 98  4 21  3 42 30.0000000  0  8 17 23  3 21  9  8  1 31
  21721571.851     3828415.77849   2981370.58449  21721570.8894   21721575.7074
  21425909.841     2228926.51849   1730338.22149  21425908.9724   21425913.4044
  21826060.877   -11361186.36149  -8839275.03449  21826060.2534   21826065.0004
  21470620.796    -7167006.31549  -5576583.20949  21470619.8094   21470624.5944
  24142809.747    -8489751.07749  -6606426.31449  24142809.6914   24142814.7894
  24526544.586    -8384987.46349  -6525751.82149  24526544.2474   24526550.0594
  22289314.596   -16223260.57149 -12629738.77149  22289313.7994   22289318.8364
  24735596.802    -2745320.35349  -2127543.11549  24735596.6634   24735602.7654
 98  4 21  3 43  0.0000000  0  8 17 23  3 21  9  8  1 31
  21730188.526     3873696.74249   3016654.47349  21730187.5844   21730192.4814
  21431421.697     2257891.57249   1752908.41549  21431420.8664   21431425.1924
  21819194.839   -11397267.83549  -8867390.43749  21819194.7964   21819198.7014
  21465073.834    -7196155.62849  -5599296.92149  21465072.9894   21465077.7294
  24134796.750    -8531859.78149  -6639238.24549  24134796.1184   24134801.3724
  24510525.517    -8469168.15849  -6591347.11249  24510524.7474   24510530.6134
  22271529.818   -16316719.97949 -12702564.19549  22271528.7024   22271534.3824
  24717949.264    -2838058.47849  -2199806.53649  24717948.3304   24717953.7474
 98  4 21  3 43 30.0000000  0  8 17 23  3 21  9  8  1 31
  21738859.269     3919261.98749   3052159.86549  21738858.5414   21738863.0144
  21436961.761     2287004.87249   1775594.12949  21436960.7914   21436965.1514
  21812431.818   -11432808.12749  -8895084.14049  21812431.0284   21812435.6144
  21459558.973    -7225136.09349  -5621879.06549  21459558.0374   21459562.7704
  24126852.819    -8573605.48849  -6671767.29649  24126851.8584   24126857.7574
  24494511.131    -8553323.53449  -6656922.63949  24494509.8644   24494516.8824
  22253800.582   -16409887.17149 -12775161.93449  22253799.4554   22253804.6704
  24700351.076    -2930537.66449  -2271868.17549  24700351.5624   24700355.8174
 98  4 21  3 44  0.0000000  0  8 17 23  3 21  9  8  1 31
  21747582.015     3965100.60449   3087878.27749  21747581.1834   21747586.0514
  21442525.235     2316241.22549   1798375.73349  21442524.3094   21442528.9994
  21805769.945   -11467815.99949  -8922362.96749  21805769.1604   21805773.5664
  21454077.534    -7253941.15349  -5644324.52749  21454076.6024   21454081.4114
  24118979.119    -8614981.70449  -6704008.41249  24118978.1094   24118982.8614
  24478502.478    -8637449.56649  -6722475.32749  24478501.5464   24478507.5904
  22236127.197   -16502761.20749 -12847531.23449  22236126.2104   22236131.2544
  24682803.497    -3022750.69949  -2343722.41949  24682802.0724   24682808.9594
 98  4 21  3 44 30.0000000  0  8 17 23  3 21  9  8  1 31
  21756355.458     4011205.38149   3123804.10049  21756354.6394   21756359.2954
  21448110.560     2345592.49249   1821246.87749  21448109.5334   21448113.9764
  21799210.434   -11502285.96849  -8949222.65449  21799209.7314   21799214.3584
  21448628.456    -7282576.09549  -5666637.43249  21448627.9044   21448632.3744
  24111175.973    -8655986.79749  -6735960.36249  24111175.2014   24111181.0674
  24462497.282    -8721557.07049  -6788013.57049  24462496.7064   24462502.8874
  22218509.964   -16595339.99549 -12919670.47549  22218509.2064   22218513.8364
  24665305.486    -3114703.23249  -2415373.68449  24665304.4754   24665309.7544
 98  4 21  3 45  0.0000000  0  8 17 23  3 21  9  8  1 31
  21765181.312     4057585.46749   3159944.43749  21765179.9594   21765185.1774
  21453712.546     2375031.25149   1844186.19749  21453711.6644   21453716.0394
  21792751.308   -11536228.50449  -8975671.35649  21792750.9424   21792755.1044
  21443213.347    -7311032.67449  -5688811.35449  21443212.6334   21443217.1924
  24103446.075    -8696606.88049  -6767612.29149  24103444.6334   24103450.7044
  24446494.552    -8805652.09149  -6853542.08349  24446493.3054   24446499.1034
  22200947.714   -16687629.89849 -12991584.60649  22200946.7944   22200952.1994
  24647860.061    -3206379.36549  -2486809.55749  24647859.6124   24647864.7914
 98  4 21  3 45 30.0000000  0  8 17 23  3 21  9  8  1 31
  21774061.313     4104250.50249   3196306.81849  21774060.1724   21774065.2164
  21459328.939     2404545.73749   1867184.51949  21459327.9164   21459332.5054
  21786391.731   -11569648.11449  -9001712.58049  21786390.9054   21786395.9084
  21437832.560    -7339308.62849  -5710844.52749  21437831.8084   21437836.3854
  24095789.232    -8736843.12749  -6798965.12849  24095789.8824   24095792.7094
  24430495.717    -8889726.20349  -6919054.29249  24430494.5514   24430500.2924
  22183440.662   -16779629.59949 -13063272.61549  22183439.8144   22183445.0254
  24630469.254    -3297768.55649  -2558021.84549  24630468.4124   24630474.5644
 98  4 21  3 46  0.0000000  0  8 17 23  3 21  9  8  1 31
  21782997.676     4151211.79249   3232900.03849  21782996.7154   21783001.1564
  21464960.872     2434142.01249   1890246.57249  21464959.9974   21464964.3154
  21780132.943   -11602537.46949  -9027340.62549  21780132.2884   21780136.9844
  21432484.911    -7367410.72449  -5732742.23149  21432483.9004   21432488.5154
  24088205.971    -8776693.38449  -6830017.23649  24088204.9834   24088209.4854
  24414504.803    -8973759.16549  -6984534.45149  24414504.6704   24414508.2584
  22165991.069   -16871327.57449 -13134725.51449  22165990.1244   22165995.2114
  24613134.129    -3388865.61149  -2629006.49949  24613134.0524   24613140.8954
 98  4 21  3 46 30.0000000  0  8 17 23  3 21  9  8  1 31
  21791988.348     4198458.14449   3269715.38049  21791987.7014   21791992.1334
  21470607.675     2463816.26549   1913369.39649  21470606.7984   21470611.2244
  21773975.998   -11634892.16149  -9052552.04149  21773975.5704   21773980.1574
  21427167.664    -7395352.82449  -5754515.25849  21427166.8414   21427171.5624
  24080693.076    -8816174.23249  -6860781.47149  24080692.9634   24080697.7234
  24398519.174    -9057763.83649  -7049992.57049  24398518.2674   24398523.7044
  22148600.327   -16962716.08349 -13205937.25949  22148599.5244   22148604.7984
  24595855.295    -3479665.96449  -2699759.92849  24595853.7154   24595860.5564
 98  4 21  3 47  0.0000000  0  8 17 23  3 21  9  8  1 31
  21801033.309     4245989.42349   3306752.74449  21801032.4094   21801037.1904
  21476268.514     2493564.11449   1936549.56549  21476267.5094   21476271.7124
  21767921.243   -11666709.82849  -9077344.99949  21767920.8124   21767925.3364
  21421882.561    -7423126.01649  -5776156.67549  21421881.8304   21421886.6244
  24073250.146    -8855287.60449  -6891259.35449  24073249.7464   24073255.2834
  24382539.756    -9141735.90649  -7115425.27949  24382538.5804   24382544.5224
  22131268.624   -17053794.62749 -13276907.48849  22131267.9524   22131272.8154
  24578635.065    -3570157.41249  -2770272.67649  24578633.0664   24578639.5264
 98  4 21  3 47 30.0000000  0  8 17 23  3 21  9  8  1 31
  21810134.715     4293817.76649   3344021.59049  21810133.6294   21810138.8004
  21481950.879     2523425.26749   1959818.02349  21481950.0454   21481954.2054
  21761970.694   -11697980.53949  -9101711.75249  21761969.8424   21761974.6614
  21416630.651    -7450724.80849  -5797662.18849  21416629.7964   21416634.5654
  24065877.001    -8894034.05149  -6921451.30949  24065876.3504   24065881.6524
  24366569.709    -9225658.87649  -7180819.74749  24366568.2464   24366574.1084
  22113998.621   -17144548.97549 -13347625.08549  22113997.8084   22114002.4204
  24561472.108    -3660349.09549  -2840551.83749  24561470.5484   24561476.4994
 98  4 21  3 48  0.0000000  0  8 17 23  3 21  9  8  1 31
  21819291.075     4341934.84449   3381515.41149  21819289.9504   21819294.9974
  21487658.969     2553421.82649   1983191.98949  21487658.2444   21487662.7254
  21756123.932   -11728705.37749  -9125653.15949  21756123.6494   21756127.9464
  21411411.725    -7478150.53349  -5819032.85149  21411410.8594   21411415.2344
  24058576.707    -8932396.49249  -6951344.03049  24058574.9354   24058582.3214
  24350608.479    -9309535.37349  -7246177.98049  24350606.6064   24350613.9474
  22096789.339   -17234984.12349 -13418093.96349  22096788.1624   22096793.2294
  24544366.452    -3750240.04649  -2910596.66549  24544365.4694   24544371.2464
 98  4 21  3 48 30.0000000  0  8 17 23  3 21  9  8  1 31
  21828505.318     4390355.86349   3419246.08049  21828504.1914   21828508.5124
  21493399.417     2583588.10249   2006698.20049  21493398.6104   21493402.8754
  21750383.009   -11758873.60749  -9149160.83749  21750382.6534   21750387.3474
  21406229.292    -7505384.26349  -5840253.90549  21406228.4064   21406233.0574
  24051355.556    -8970342.86549  -6980912.54449  24051354.2244   24051359.9994
  24334659.575    -9393347.04649  -7311485.72849  24334658.1574   24334663.6744
  22079642.302   -17325091.97949 -13488307.81049  22079641.3524   22079646.7004
  24527322.899    -3839804.36549  -2980386.94949  24527321.4294   24527327.7404
 98  4 21  3 49  0.0000000  0  8 17 23  3 21  9  8  1 31
  21837778.980     4439089.43049   3457220.29949  21837778.3914   21837783.3984
  21499174.704     2613937.49949   2030347.10449  21499173.9024   21499178.4454
  21744746.904   -11788491.52749  -9172239.71049  21744746.6154   21744751.3274
  21401084.192    -7532421.78349  -5861322.07049  21401083.3984   21401087.8844
  24044217.590    -9007852.34849  -7010140.61849  24044217.1554   24044223.1714
  24318728.551    -9477064.93249  -7376720.36949  24318726.8864   24318731.6164
  22062556.026   -17414880.93849 -13558273.16849  22062555.2814   22062560.3504
  24510342.257    -3929038.13249  -3049919.69149  24510341.3044   24510347.3294
 98  4 21  3 49 30.0000000  0  8 17 23  3 21  9  8  1 31
  21847112.280     4488135.87849   3495438.30849  21847111.3504   21847115.9384
  21504984.100     2644466.16149   2054135.69049  21504983.3404   21504987.7904
  21739213.008   -11817572.67949  -9194900.31549  21739212.6564   21739217.0524
  21395973.238    -7559279.94549  -5882250.47449  21395972.5664   21395976.8374
  24037160.535    -9044937.53649  -7039038.12349  24037160.3704   24037164.8164
  24302817.300    -9560678.70649  -7441873.89649  24302816.9004   24302822.0384
  22045530.766   -17504349.26849 -13627988.68249  22045529.8574   22045535.0484
  24493426.287    -4017931.70049  -3119187.33249  24493424.8854   24493431.5204
 98  4 21  3 50  0.0000000  0  8 17 23  3 21  9  8  1 31
  21856502.989     4537484.27749   3533891.60749  21856501.9894   21856507.0574
  21510819.754     2675132.76349   2078031.76549  21510818.8304   21510823.2804
  21733781.397   -11846116.56949  -9217142.27749  21733780.6274   21733785.3814
  21390893.320    -7585974.77749  -5903051.60649  21390892.4334   21390896.8614
  24030182.369    -9081608.50049  -7067612.87649  24030182.4914   24030186.2104
  24286924.703    -9644194.57049  -7506951.13049  24286923.7334   24286929.4084
  22028565.983   -17593499.65049 -13697456.44549  22028565.1424   22028570.2594
  24476577.027    -4106474.91949  -3188181.98149  24476576.6094   24476581.4854
 98  4 21  3 50 30.0000000  0  8 17 23  3 21  9  8  1 31
  21865953.907     4587149.44049   3572591.70949  21865953.0064   21865957.8614
  21516677.323     2705914.65349   2102017.66949  21516676.5354   21516680.8574
  21728456.017   -11874101.08649  -9238948.36949  21728455.4134   21728459.9494
  21385846.533    -7612495.60549  -5923717.15149  21385845.6974   21385850.2814
  24023281.087    -9117874.53949  -7095872.07749  24023280.0394   24023284.4574
  24271054.981    -9727590.25849  -7571934.71649  24271053.4694   24271059.3604
  22011665.013   -17682314.49249 -13766662.75049  22011664.1024   22011669.0884
  24459795.484    -4194661.99049  -3256899.09449  24459794.0174   24459799.8734
 98  4 21  3 51  0.0000000  0  8 17 23  3 21  9  8  1 31
  21875462.788     4637119.16249   3611529.14649  21875462.2734   21875466.5424
  21522549.456     2736772.99049   2126063.14449  21522548.6304   21522553.0254
  21723237.804   -11901522.75349  -9260315.87449  21723237.1364   21723241.8704
  21380830.630    -7638854.30449  -5944256.36649  21380830.0194   21380834.4254
  24016451.664    -9153762.58349  -7123836.71349  24016451.5174   24016455.8014
  24255205.313    -9810880.07049  -7636835.79249  24255204.1324   24255209.8024
  21994826.983   -17770798.75549 -13835611.46349  21994825.9294   21994830.9014
  24443077.417    -4282515.66149  -3325356.44249  24443075.8514   24443081.5924
 98  4 21  3 51 30.0000000  0  8 17 23  3 21  9  8  1 31
  21885029.213     4687390.85349   3650701.89349  21885028.0804   21885033.6684
  21528434.429     2767698.68449   2150161.10949  21528433.6754   21528437.7104
  21718127.489   -11928377.57549  -9281241.68249  21718126.9644   21718131.2854
  21375843.970    -7665059.35049  -5964675.84849  21375843.3324   21375847.7314
  24009692.868    -9189279.58049  -7151512.19849  24009692.1864   24009697.4484
  24239370.980    -9894089.65649  -7701674.37849  24239370.2334   24239375.0584
  21978054.484   -17858938.33449 -13904291.59149  21978053.8004   21978058.8494
  24426419.391    -4370054.38449  -3393568.37049  24426418.4824   24426424.6714
 98  4 21  3 52  0.0000000  0  8 17 23  3 21  9  8  1 31
  21894651.627     4737956.96649   3690104.06149  21894650.6994   21894655.3394
  21534334.004     2798701.15849   2174318.90049  21534333.2014   21534337.6304
  21713129.610   -11954641.92149  -9301707.38749  21713128.7344   21713133.4084
  21370887.383    -7691106.48549  -5984972.28349  21370886.7434   21370891.0634
  24003008.462    -9224406.80849  -7178883.97849  24003008.0434   24003013.8444
  24223550.241    -9977228.32349  -7766457.70049  24223547.7874   24223554.3724
  21961347.222   -17946735.39549 -13972704.83149  21961346.3364   21961351.0284
  24409817.182    -4457299.50749  -3461551.51849  24409815.7364   24409822.3074
 98  4 21  3 52 30.0000000  0  8 17 23  3 21  9  8  1 31
  21904328.907     4788811.32249   3729730.81749  21904328.2694   21904332.7964
  21540250.763     2829794.10349   2198547.18549  21540249.8454   21540254.2794
  21708242.947   -11980321.24649  -9321717.21649  21708242.5064   21708246.9294
  21365962.165    -7716988.65849  -6005140.17949  21365961.3934   21365965.9364
  23996398.243    -9259143.56749  -7205951.52549  23996397.7104   23996402.0334
  24207740.420   -10060308.45849  -7831195.37849  24207739.6414   24207745.0694
  21944702.285   -18034204.81949 -14040862.76349  21944701.2594   21944706.5174
  24393269.376    -4544258.65249  -3529311.82849  24393268.5424   24393273.9714
 98  4 21  3 53  0.0000000  0  8 17 23  3 21  9  8  1 31
  21914061.111     4839954.48449   3769582.62949  21914060.4024   21914064.9024
  21546188.395     2860996.68149   2222860.90049  21546187.6854   21546191.8244
  21703464.696   -12005430.74849  -9341283.03749  21703464.3544   21703468.5564
  21361065.866    -7742718.78249  -6025189.58749  21361065.0924   21361069.3024
  23989863.819    -9293482.12749  -7232708.77849  23989863.6734   23989867.9044
  24191938.475   -10143347.54349  -7895901.07749  24191937.4904   24191942.7154
  21928120.601   -18121341.82349 -14108761.66549  21928119.8884   21928124.3284
  24376776.463    -4630929.70849  -3596847.65249  24376775.8494   24376781.2334
 98  4 21  3 53 30.0000000  0  8 17 23  3 21  9  8  1 31
  21923851.052     4891400.69549   3809670.58649  21923850.3044   21923854.7794
  21552150.528     2892328.06449   2247274.98249  21552149.7774   21552154.0974
  21698794.074   -12029974.75449  -9360408.21349  21698793.8584   21698798.0854
  21356199.964    -7768289.04849  -6045114.43649  21356199.1614   21356203.5334
  23983407.171    -9327412.03549  -7259147.61549  23983407.1934   23983412.6194
  24176144.545   -10226345.19449  -7960574.51649  24176143.7344   24176149.3764
  21911601.987   -18208147.54549 -14176402.42649  21911600.9644   21911606.1914
  24360339.507    -4717306.65949  -3664154.30349  24360338.2594   24360342.9654
 98  4 21  3 54  0.0000000  0  8 17 23  3 21  9  8  1 31
  21933699.039     4943152.14949   3849996.39649  21933698.0674   21933703.1084
  21558138.022     2923792.86849   2271793.03349  21558137.3224   21558141.6684
  21694233.084   -12053943.31549  -9379084.98549  21694232.7854   21694236.9284
  21351366.956    -7793686.51349  -6064904.63449  21351366.1474   21351370.5014
  23977029.692    -9360925.91149  -7285262.26549  23977030.0974   23977033.9304
  24160364.765   -10309268.08849  -8025189.67649  24160364.0984   24160368.3714
  21895145.734   -18294625.55949 -14243787.83449  21895144.8774   21895149.2944
  24343964.413    -4803358.14149  -3731207.34549  24343964.1044   24343969.3024
 98  4 21  3 54 30.0000000  0  8 17 23  3 21  9  8  1 31
  21943608.422     4995226.34749   3890573.71349  21943607.2874   21943612.6324
  21564151.060     2955391.60049   2296415.44149  21564150.2594   21564154.3764
  21689777.937   -12077354.66949  -9397327.57249  21689777.8994   21689782.0814
  21346565.906    -7818915.95549  -6084563.90749  21346565.2104   21346569.4294
  23970732.505    -9394017.88149  -7311048.14649  23970732.4774   23970737.0194
  24144603.508   -10392093.63749  -8089728.96849  24144601.9104   24144607.9124
  21878754.128   -18380763.76149 -14310908.45849  21878753.3044   21878757.9434
  24327654.274    -4889068.34049  -3797994.44749  24327653.2364   24327658.6594
 98  4 21  3 55  0.0000000  0  9 17 23  3 21  9  8  1 31 29
  21953581.129     5047633.58849   3931410.54149  21953580.1834   21953584.8924
  21570189.260     2987122.50949   2321140.84649  21570188.4994   21570192.8274
  21685430.167   -12100203.12049  -9415131.53649  21685429.7394   21685434.1334
  21341796.069    -7843981.33249  -6104095.33849  21341795.4224   21341799.6704
  23964519.608    -9426666.57149  -7336488.63449  23964518.9494   23964523.9334
  24128865.992   -10474794.66949  -8154171.23949  24128865.1144   24128870.6934
  21862431.187   -18466541.07849 -14377747.86949  21862430.6544   21862435.2114
  24311411.392    -4974425.03449  -3864506.10949  24311410.1214   24311415.6004
  24766584.070    -3755535.05749  -2633341.66149  24766581.4724   24766588.7904
 98  4 21  3 55 30.0000000  0  9 17 23  3 21  9  8  1 31 29
  21963614.358     5100358.43349   3972494.82049  21963613.7574   21963618.6264
  21576250.028     3018971.91649   2345958.58149  21576249.2234   21576253.5404
  21681190.939   -12122480.26549  -9432490.32649  21681190.4044   21681194.9064
  21337060.880    -7868865.14749  -6123485.29749  21337060.2014   21337064.7644
  23958393.442    -9458859.95649  -7361574.34749  23958392.9604   23958397.3714
  24113156.579   -10557348.08449  -8218498.49049  24113155.6904   24113161.0134
  21846176.205   -18551961.49049 -14444309.18049  21846175.3084   21846180.2894
  24295240.557    -5059403.10449  -3930722.73349  24295239.9154   24295245.0984
  24745277.169    -3867501.66149  -2720587.96449  24745276.2724   24745284.2684
 98  4 21  3 56  0.0000000  0  9 17 23  3 21  9  8  1 31 29
  21973705.472     5153387.47049   4013816.12749  21973704.5014   21973708.9714
  21582331.080     3050928.14349   2370859.55849  21582330.5734   21582334.7034
  21677057.651   -12144200.79649  -9449415.38849  21677057.1664   21677061.2724
  21332359.323    -7893571.89449  -6142737.27549  21332358.7654   21332363.2104
  23952353.853    -9490597.27449  -7386304.66249  23952352.7114   23952357.6764
  24097477.782   -10639740.96149  -8282700.65149  24097476.1244   24097482.7264
  21829989.791   -18637021.42649 -14510589.59649  21829989.0334   21829993.6024
  24279143.790    -5143992.61349  -3996636.59049  24279142.5294   24279148.7864
  24723984.255    -3979395.34849  -2807777.46349  24723983.9024   24723989.6994
 98  4 21  3 56 30.0000000  0  9 17 23  3 21  9  8  1 31 29
  21983854.191     5206719.27549   4055373.38249  21983852.9254   21983858.5454
  21588429.372     3082974.97549   2395831.13849  21588428.7124   21588433.0774
  21673026.207   -12165386.01249  -9465923.32649  21673025.4674   21673029.9354
  21327689.444    -7918112.00949  -6161859.41349  21327688.7484   21327693.0314
  23946397.981    -9521895.03949  -7410692.46449  23946396.5254   23946401.7664
  24081824.288   -10722000.33149  -8346798.77949  24081823.0614   24081829.3084
  21813869.900   -18721731.83649 -14576597.65749  21813869.0134   21813873.7374
  24263118.228    -5228206.88749  -4062258.04749  24263116.4644   24263122.7894
  24702702.306    -4091230.74849  -2894921.56849  24702701.6364   24702708.2874
 98  4 21  3 57  0.0000000  0  9 17 23  3 21  9  8  1 31 29
  21994056.946     5260335.29249   4097152.08749  21994056.1824   21994060.5634
  21594543.868     3115106.94149   2420869.05549  21594542.7694   21594547.2724
  21669098.577   -12186025.30249  -9482005.85849  21669098.1564   21669102.4734
  21323054.184    -7942470.49949  -6180840.02649  21323053.4474   21323057.5484
  23940524.799    -9552758.71449  -7434742.02949  23940524.7904   23940529.1924
  24066193.760   -10804138.92149  -8410802.79449  24066193.5314   24066198.2604
  21797818.074   -18806084.49449 -14642326.94549  21797817.2554   21797822.0134
  24247166.835    -5312030.78949  -4127575.32849  24247165.0474   24247171.2624
  24681433.227    -4202999.01449  -2982013.37349  24681431.6604   24681438.2734
 98  4 21  3 57 30.0000000  0  9 17 23  3 21  9  8  1 31 29
  22004312.903     5314230.51849   4139148.36849  22004311.9324   22004316.5144
  21600675.129     3147327.04549   2445975.64449  21600674.2444   21600678.5044
  21665273.840   -12206124.56949  -9497667.60549  21665273.1934   21665277.7814
  21318452.555    -7966652.14449  -6199682.84049  21318451.7234   21318455.9234
  23934729.448    -9583213.33349  -7458472.84449  23934728.4824   23934733.8514
  24050584.142   -10886167.84249  -8474721.35249  24050584.2974   24050588.8114
  21781834.060   -18890080.98149 -14707778.70549  21781832.8614   21781838.0574
  24231287.706    -5395475.39649  -4192597.04049  24231285.4004   24231292.9624
  24660177.326    -4314697.97949  -3069051.17149  24660176.6154   24660183.0294
 98  4 21  3 58  0.0000000  0  9 17 23  3 21  9  8  1 31 29
  22014624.519     5368418.47149   4181372.73249  22014623.4134   22014628.3534
  21606824.505     3179642.18149   2471156.28649  21606823.7074   21606827.9844
  21661549.257   -12225697.83149  -9512919.47449  21661548.3924   21661552.9464
  21313879.978    -7990681.03349  -6218406.62049  21313879.2884   21313883.4934
  23929009.444    -9613272.25449  -7481895.31449  23929008.6824   23929012.9384
  24034993.900   -10968095.10949  -8538560.70049  24034992.8714   24034998.1324
  21765919.067   -18973714.59149 -14772947.70649  21765918.1984   21765922.9244
  24215473.523    -5478578.99649  -4257353.04249  24215472.6074   24215478.0094
  24638934.523    -4426328.81249  -3156035.91449  24638933.5014   24638940.6274
 98  4 21  3 58 30.0000000  0  9 17 23  3 21  9  8  1 31 29
  22024989.448     5422886.63749   4223815.42949  22024988.7384   22024993.3344
  21612990.255     3212043.50449   2496404.08649  21612989.4494   21612993.7494
  21657927.489   -12244730.18549  -9527749.85749  21657926.8094   21657931.4074
  21309333.310    -8014573.76649  -6237024.30749  21309332.7564   21309336.8554
  23923365.672    -9642930.59049  -7505005.65349  23923364.8794   23923368.9074
  24019421.508   -11049927.96949  -8602326.50249  24019420.6614   24019425.6844
  21750075.082   -19056975.12049 -14837825.98749  21750074.4674   21750079.1354
  24199720.377    -5561362.40949  -4321859.55449  24199718.9634   24199725.1034
  24617704.795    -4537890.18349  -3242966.50949  24617702.9494   24617708.9664
 98  4 21  3 59  0.0000000  0  9 17 23  3 21  9  8  1 31 29
  22035407.341     5477633.01949   4266474.93949  22035406.4964   22035411.0404
  21619170.570     3244521.29849   2521711.47249  21619169.7004   21619174.2024
  21654410.722   -12263210.40249  -9542150.00049  21654410.0644   21654414.5184
  21304812.495    -8038330.83449  -6255536.28349  21304811.6464   21304815.9684
  23917801.522    -9672169.68149  -7527789.29749  23917801.0914   23917805.5644
  24003868.697   -11131658.49749  -8666012.55649  24003867.6384   24003873.3984
  21734303.792   -19139853.82349 -14902406.74349  21734303.0454   21734307.5974
  24184025.019    -5643841.87249  -4386129.19049  24184024.5584   24184030.3694
  24596489.061    -4649378.73649  -3329840.40849  24596488.6754   24596494.4974
 98  4 21  3 59 30.0000000  0  9 17 23  3 21  9  8  1 31 29
  22045874.539     5532638.42349   4309336.27449  22045873.2104   22045878.5614
  21625357.923     3277035.95049   2547047.58449  21625356.9674   21625361.2364
  21650992.911   -12281170.90949  -9556145.17649  21650992.2804   21650996.6854
  21300311.304    -8061984.52649  -6273967.70749  21300310.5924   21300314.9454
  23912313.027    -9701011.62549  -7550263.46749  23912312.4314   23912317.1134
  23988332.537   -11213301.25049  -8729630.22749  23988331.1944   23988336.9724
  21718596.197   -19222397.59549 -14966726.51749  21718595.1794   21718600.0034
  24168379.573    -5726058.56749  -4450194.07149  24168378.6904   24168385.0224
  24575278.190    -4760841.14949  -3416693.92849  24575276.5004   24575283.7674
 98  4 21  4  0  0.0000000  0  9 17 23  3 21  9  8  1 31 29
  22056392.224     5587909.20049   4352404.41049  22056391.6384   22056396.3554
  21631553.311     3309593.03449   2572416.75649  21631552.5684   21631556.6444
  21647678.523   -12298588.12149  -9569717.00249  21647678.1344   21647682.2604
  21295833.437    -8085515.65749  -6292303.62449  21295832.6224   21295837.1684
  23906907.367    -9729418.85949  -7572398.91249  23906906.3634   23906910.9704
  23972817.272   -11294834.14849  -8793162.29349  23972817.3544   23972821.8834
  21702953.890   -19304597.95549 -15030778.69449  21702953.2984   21702957.8164
  24152790.438    -5807980.00149  -4514028.90049  24152790.7714   24152794.8974
  24554073.048    -4872273.54949  -3503524.06149  24554072.2694   24554077.6814
 98  4 21  4  0 30.0000000  0  9 17 23  3 21  9  8  1 31 29
  22066962.377     5643455.47049   4395687.21949  22066961.5404   22066966.1924
  21637757.486     3342196.36249   2597821.96149  21637756.6534   21637760.9134
  21644475.701   -12315418.50349  -9582831.56349  21644475.3024   21644479.7304
  21291383.761    -8108898.68849  -6310524.14249  21291383.0124   21291387.2974
  23901587.494    -9757375.01149  -7594182.87749  23901586.9664   23901591.9284
  23957326.015   -11376241.58549  -8856596.61249  23957325.0994   23957330.7934
  21687376.757   -19386456.12149 -15094564.23249  21687376.0824   21687380.7124
  24137266.169    -5889560.28149  -4577597.87349  24137265.1194   24137271.5334
  24532876.261    -4983662.74049  -3590320.57249  24532875.5644   24532880.7724
 98  4 21  4  1  0.0000000  0  9 17 23  3 21  9  8  1 31 29
  22077590.961     5699309.10549   4439209.50749  22077590.4724   22077595.3774
  21643976.120     3374875.64949   2623286.36049  21643975.2484   21643979.2854
  21641385.843   -12331656.12649  -9595484.22849  21641385.3714   21641389.6574
  21286968.003    -8132103.65649  -6328605.90749  21286967.2494   21286971.3724
  23896355.771    -9784866.84249  -7615605.02649  23896354.7784   23896359.0274
  23941863.336   -11457498.54549  -8919913.66049  23941861.9244   23941867.4614
  21671865.579   -19467967.63249 -15158079.64049  21671864.7904   21671869.1844
  24121815.724    -5970752.99749  -4640864.86449  24121815.4354   24121819.9514
  24511692.289    -5094984.48549  -3677064.51649  24511689.8004   24511697.0694
 98  4 21  4  1 30.0000000  0  9 17 23  3 21  9  8  1 31 29
  22088273.701     5755446.82049   4482953.16849  22088272.4074   22088277.6454
  21650211.387     3407642.25149   2648818.79549  21650210.6914   21650214.7394
  21638406.531   -12347312.51849  -9607683.99949  21638405.8234   21638410.4624
  21282583.846    -8155142.50949  -6346558.24149  21282583.1444   21282587.4794
  23891207.055    -9811922.55049  -7636687.32749  23891205.8424   23891211.4154
  23926429.410   -11538603.84349  -8983112.53249  23926427.7394   23926433.5644
  21656418.839   -19549140.66849 -15221331.31749  21656418.0744   21656422.6154
  24106440.354    -6051551.06449  -4703824.33849  24106440.1894   24106445.7404
  24490519.383    -5206247.40849  -3763762.67949  24490518.6674   24490523.9964
 98  4 21  4  2  0.0000000  0  9 17 23  3 21  9  8  1 31 29
  22099018.778     5811912.68349   4526952.53949  22099017.8384   22099023.1294
  21656473.274     3440548.70049   2674460.20049  21656472.5764   21656476.8024
  21635546.288   -12362343.17949  -9619396.17049  21635545.8034   21635550.2584
  21278239.762    -8177970.51349  -6364346.26449  21278239.0324   21278243.1034
  23886150.062    -9838496.92949  -7657394.57949  23886149.0034   23886153.4244
  23911030.910   -11619522.98249  -9046166.34149  23911029.1394   23911036.0334
  21641048.739   -19629910.89649 -15284269.10349  21641047.9544   21641052.6794
  24091148.619    -6131909.38649  -4766441.13249  24091147.5064   24091153.1654
  24469370.418    -5317385.05449  -3850363.20949  24469367.4994   24469375.7564
 98  4 21  4  2 30.0000000  0  9 17 23  3 21  9  8  1 31 29
  22109823.805     5868693.60649   4571197.36649  22109823.0784   22109827.7144
  21662757.734     3473573.66649   2700193.95749  21662756.9454   21662761.0324
  21632797.839   -12376786.38449  -9630650.59449  21632797.3364   21632801.7004
  21273931.769    -8200609.27249  -6381986.83149  21273931.1344   21273935.2434
  23881179.130    -9864619.82149  -7677750.03949  23881178.0544   23881182.8444
  23895664.036   -11700276.30649  -9109090.93249  23895663.2174   23895668.6754
  21625753.173   -19710289.43549 -15346901.69049  21625752.3634   21625757.1204
  24075934.731    -6211859.34949  -4828739.73549  24075934.0284   24075938.7034
  24448242.946    -5428408.93649  -3936875.08349  24448242.5044   24448247.4804
 98  4 21  4  3  0.0000000  0  9 17 23  3 21  9  8  1 31 29
  22120687.186     5925780.85949   4615680.92849  22120686.2984   22120691.6364
  21669064.299     3506714.84949   2726018.26849  21669063.4404   21669067.5664
  21630153.815   -12390680.65049  -9641477.27349  21630153.4964   21630157.8324
  21269659.885    -8223058.07149  -6399479.37649  21269658.9714   21269663.4214
  23876295.633    -9890282.83949  -7697747.13349  23876294.7054   23876299.2324
  23880329.166   -11780861.45349  -9171884.48849  23880327.7234   23880332.0854
  21610534.660   -19790263.03449 -15409218.73149  21610533.9994   21610538.3034
  24060794.113    -6291424.07149  -4890738.14749  24060793.5794   24060798.0804
  24427135.360    -5539329.26649  -4023306.27549  24427132.9484   24427138.6154
 98  4 21  4  3 30.0000000  0  9 17 23  3 21  9  8  1 31 29
  22131607.877     5983169.63049   4660399.42749  22131607.1674   22131611.9214
  21675390.462     3539959.05049   2751922.85349  21675389.5704   21675393.7864
  21627615.375   -12404020.20749  -9651871.71249  21627614.8544   21627619.2354
  21265422.222    -8245326.96149  -6416831.73449  21265421.2254   21265425.5874
  23871499.342    -9915487.35649  -7717386.95949  23871499.0154   23871503.1744
  23865025.036   -11861284.61049  -9234551.81249  23865024.3674   23865029.1244
  21595393.792   -19869828.37749 -15471217.65749  21595393.0704   21595397.4504
  24045724.822    -6370612.93949  -4952443.69449  24045723.9424   24045728.9944
  24406046.828    -5650149.12849  -4109659.20649  24406047.3454   24406051.1724
 98  4 21  4  4  0.0000000  0  9 17 23  3 21  9  8  1 31 29
  22142586.489     6040862.73449   4705355.08649  22142585.7774   22142590.6494
  21681732.661     3573287.43549   2777893.04249  21681731.5904   21681735.9464
  21625180.082   -12416817.78949  -9661843.82849  21625179.3104   21625183.7094
  21261214.984    -8267436.03149  -6434059.55449  21261214.2084   21261218.5594
  23866791.652    -9940226.57149  -7736664.20949  23866792.0944   23866794.8524
  23849749.003   -11941560.35849  -9297104.27349  23849747.6934   23849753.3014
  21580326.981   -19949004.90049 -15532913.60249  21580326.3414   21580330.7454
  24030725.185    -6449436.11549  -5013864.28549  24030724.3364   24030729.1824
  24384975.432    -5760879.31949  -4195942.27949  24384972.9254   24384979.5764
 98  4 21  4  4 30.0000000  0  9 17 23  3 21  9  8  1 31 29
  22153620.282     6098845.57249   4750536.50449  22153619.0994   22153624.2514
  21688088.028     3606685.24649   2803917.32849  21688087.1304   21688091.3624
  21622846.923   -12429078.52349  -9671397.63349  21622846.8054   21622850.6454
  21257032.358    -8289415.93949  -6451186.73449  21257031.7134   21257035.9174
  23862169.258    -9964517.72549  -7755592.31949  23862169.1744   23862172.1184
  23834500.423   -12021691.55849  -9359544.08949  23834499.8294   23834504.3334
  21565328.878   -20027820.30249 -15594328.15949  21565328.0844   21565332.7674
  24015793.671    -6527901.88549  -5075006.37549  24015792.7534   24015797.6254
  24363917.682    -5871537.77049  -4282169.47449  24363919.3704   24363921.9754
 98  4 21  4  5  0.0000000  0  9 17 23  3 21  9  8  1 31 29
  22164704.399     6157092.90949   4795924.04249  22164703.5054   22164708.0834
  21694452.545     3640131.16049   2829979.09549  21694451.6944   21694455.9564
  21620614.484   -12440809.92249  -9680538.96249  21620613.9504   21620618.4494
  21252867.781    -8311300.76349  -6468239.81649  21252866.9664   21252871.4344
  23857628.392    -9988380.63949  -7774186.71449  23857628.2484   23857632.0294
  23819273.255   -12101710.76749  -9421896.64449  23819272.3214   23819278.1384
  21550392.833   -20106309.48649 -15655488.51749  21550392.0344   21550396.5464
  24000925.883    -6606032.81949  -5135887.55449  24000925.1754   24000929.4674
  24342869.419    -5982145.74049  -4368357.31049  24342865.6654   24342873.7144
 98  4 21  4  5 30.0000000  0  9 17 23  3 21  9  8  1 31 29
  22175840.581     6215613.68449   4841524.62449  22175839.9254   22175844.8004
  21700829.143     3673640.29449   2856090.12649  21700828.3994   21700832.4684
  21618487.552   -12451986.57049  -9689248.02249  21618486.9834   21618491.2064
  21248719.663    -8333099.13149  -6485225.53649  21248718.7684   21248723.2754
  23853169.333   -10011812.36249  -7792445.13049  23853167.6064   23853173.3674
  23804069.654   -12181606.00049  -9484152.60549  23804068.1374   23804073.7764
  21535519.817   -20184467.47349 -15716390.80149  21535519.1504   21535523.6144
  23986126.783    -6683801.95149  -5196486.83049  23986125.8914   23986130.7004
  24321837.362    -6092668.79749  -4454478.96949  24321837.6824   24321843.0254
 98  4 21  4  6  0.0000000  0  9 17 23  3 21  9  8  1 31 29
  22187030.072     6274415.26349   4887344.00949  22187029.8894   22187034.1364
  21707220.109     3707225.19249   2882260.18949  21707219.1054   21707223.4884
  21616465.403   -12462613.13249  -9697528.43649  21616464.9134   21616469.5784
  21244589.515    -8354802.84649  -6502137.49449  21244588.5274   21244592.9474
  23848795.767   -10034795.25349  -7810353.82949  23848794.1734   23848799.6354
  23788892.426   -12261362.92449  -9546300.78649  23788891.0834   23788897.4784
  21520711.507   -20262285.59849 -15777028.25949  21520710.8124   21520715.3204
  23971396.974    -6761207.14249  -5256802.50249  23971395.8284   23971401.0194
  24300822.660    -6203100.83549  -4540529.71249  24300820.1624   24300826.6684
 98  4 21  4  6 30.0000000  0  9 17 23  3 21  9  8  1 31 29
  22198274.029     6333502.17449   4933385.75449  22198272.9454   22198277.9834
  21713626.151     3740889.10949   2908491.82949  21713625.4004   21713629.3604
  21614548.678   -12472685.48149  -9705377.00649  21614548.2804   21614552.4184
  21240481.249    -8376391.93849  -6518960.14349  21240480.5014   21240484.9094
  23844508.490   -10057324.99649  -7827909.45049  23844508.2204   23844511.8114
  23773743.146   -12340971.31449  -9608333.22549  23773741.3114   23773747.3714
  21505972.431   -20339739.73249 -15837382.08949  21505971.7864   21505975.9904
  23956738.950    -6838235.05949  -5316824.20249  23956737.7164   23956742.4864
  24279827.759    -6313429.10549  -4626499.60749  24279827.7054   24279833.9674
 98  4 21  4  7  0.0000000  0  9 17 23  3 21  9  8  1 31 29
  22209570.121     6392863.69749   4979641.44249  22209569.3354   22209574.3664
  21720047.210     3774632.12749   2934785.10949  21720046.6254   21720050.2584
  21612735.409   -12482213.90449  -9712801.73649  21612734.9554   21612739.3334
  21236396.560    -8397857.00149  -6535686.14149  21236395.8294   21236400.1884
  23840306.317   -10079407.31849  -7845116.38449  23840305.6104   23840309.3994
  23758623.921   -12420423.25449  -9670243.78949  23758623.3474   23758627.7874
  21491304.500   -20416820.20949 -15897444.75749  21491303.8404   21491308.2524
  23942152.248    -6914888.21949  -5376553.86349  23942151.8234   23942156.5074
  24258851.987    -6423655.89149  -4712390.42749  24258850.8674   24258856.2634
 98  4 21  4  7 30.0000000  0  9 17 23  3 21  9  8  1 31 29
  22220918.249     6452498.56549   5026110.14749  22220918.2784   22220922.4544
  21726481.499     3808444.70349   2961132.58449  21726480.8304   21726484.8074
  21611024.003   -12491207.88049  -9719810.01149  21611023.4704   21611027.9524
  21232336.145    -8419194.48949  -6552312.73249  21232335.5004   21232339.6604
  23836187.391   -10101051.29549  -7861981.74849  23836186.1924   23836191.4384
  23743537.856   -12499700.81249  -9732018.43349  23743536.8024   23743542.4084
  21476709.036   -20493519.99349 -15957210.78449  21476708.2944   21476712.9014
  23927636.277    -6991170.42549  -5435994.50849  23927635.6634   23927640.4374
  24237895.262    -6533783.68449  -4798204.15449  24237893.5754   24237898.5984
 98  4 21  4  8  0.0000000  0  9 17 23  3 21  9  8  1 31 29
  22232319.181     6512410.17949   5072794.49949  22232318.0964   22232322.7544
  21732927.945     3842321.17849   2987529.85449  21732927.1484   21732931.3134
  21609415.720   -12499659.54749  -9726395.70949  21609415.1134   21609419.5374
  21228302.368    -8440392.19249  -6568830.39549  21228301.8224   21228305.9044
  23832151.360   -10122260.55949  -7878508.37849  23832150.5064   23832153.9614
  23728484.073   -12578808.76149  -9793660.92149  23728483.6234   23728488.0474
  21462186.652   -20569835.45849 -16016677.34149  21462186.0784   21462190.5314
  23913190.186    -7067085.29549  -5495148.87349  23913189.3834   23913194.2084
  24216953.722    -6643830.99649  -4883955.18149  24216953.8824   24216957.0154
 98  4 21  4  8 30.0000000  0  9 17 23  3 21  9  8  1 31 29
  22243771.899     6572595.37249   5119692.03449  22243771.1884   22243776.2404
  21739386.483     3876261.16449   3013976.61749  21739385.5474   21739389.5044
  21607914.551   -12507548.20749  -9732542.69849  21607914.0224   21607918.2074
  21224294.452    -8461453.88549  -6585242.08249  21224293.8074   21224298.0784
  23828195.349   -10143048.93549  -7894707.09449  23828194.8344   23828199.2694
  23713465.065   -12657734.24049  -9855161.23749  23713464.2604   23713468.6974
  21447737.288   -20645767.25549 -16075844.93549  21447736.4414   21447740.9304
  23898815.060    -7142626.71949  -5554012.26049  23898813.7954   23898818.8074
  24196028.334    -6753794.04849  -4969640.50149  24196027.1694   24196032.4504
 98  4 21  4  9  0.0000000  0  9 17 23  3 21  9  8  1 31 29
  22255278.470     6633062.36849   5166809.18449  22255278.0624   22255281.8034
  21745856.960     3910263.93149   3040472.29449  21745856.4774   21745860.5144
  21606521.536   -12514868.46749  -9738246.77749  21606520.9474   21606524.9724
  21220311.284    -8482385.33649  -6601552.27849  21220310.3454   21220314.6614
  23824320.135   -10163413.25249  -7910575.34349  23824319.9564   23824325.0254
  23698482.774   -12736466.54549  -9916511.01449  23698482.7924   23698487.1124
  21433361.855   -20721310.44049 -16134709.71549  21433361.0934   21433365.3924
  23884512.420    -7217787.21949  -5612578.80649  23884511.6874   23884516.5444
  24175119.461    -6863670.18449  -5055258.12349  24175118.7444   24175122.7544
 98  4 21  4  9 30.0000000  0  9 17 23  3 21  9  8  1 31 29
  22266838.358     6693809.97249   5214144.94449  22266837.5194   22266842.8754
  21752338.470     3944324.75249   3067013.20849  21752337.6904   21752341.6574
  21605233.835   -12521635.21649  -9743519.55449  21605233.4884   21605237.4104
  21216351.288    -8503195.22749  -6617767.75949  21216350.5964   21216354.7714
  23820527.438   -10183343.92449  -7926105.68649  23820526.7134   23820530.8804
  23683535.502   -12815015.25549  -9977717.75249  23683534.5104   23683540.3064
  21419060.110   -20796466.29049 -16193272.67849  21419059.4344   21419063.9104
  23870285.875    -7292547.94249  -5670833.86549  23870285.3654   23870290.0844
  24154226.069    -6973464.87749  -5140812.30949  24154226.1774   24154230.7434
 98  4 21  4 10  0.0000000  0  9 17 23  3 21  9  8  1 31 29
  22278451.008     6754835.13749   5261697.00749  22278450.6104   22278454.8414
  21758832.627     3978451.77849   3093605.70949  21758831.6444   21758836.3554
  21604051.441   -12527848.54949  -9748361.09249  21604050.8974   21604055.1964
  21212415.642    -8523877.04649  -6633883.43749  21212414.8914   21212418.9994
  23816819.705   -10202827.44649  -7941287.60149  23816819.2094   23816824.0484
  23668624.503   -12893372.56049 -10038775.31049  23668623.0434   23668629.1194
  21404832.619   -20871232.13049 -16251531.73449  21404832.0034   21404836.2574
  23856138.967    -7366889.90649  -5728762.57849  23856138.2194   23856143.2384
  24133351.896    -7083159.00149  -5226288.07549  24133353.3074   24133357.4894
 98  4 21  4 10 30.0000000  0  9 17 23  3 21  9  8  1 31 29
  22290108.532     6816095.05449   5309431.97949  22290108.1594   22290112.7164
  21765330.289     4012597.08749   3120212.45849  21765329.7364   21765333.6064
  21602962.382   -12533571.78549  -9752820.74149  21602961.9014   21602966.0744
  21208496.849    -8544470.40649  -6649930.19049  21208496.1544   21208500.3364
  23813192.529   -10221888.85349  -7956140.62249  23813192.5604   23813197.6344
  23653744.711   -12971566.46849 -10099705.57249  23653743.9544   23653748.3554
  21390673.367   -20945639.58249 -16309511.52949  21390672.5064   21390676.9634
  23842065.385    -7440847.19549  -5786391.57349  23842064.7324   23842069.4974
  24112491.844    -7192778.86549  -5311706.02749  24112488.6814   24112493.6494
 98  4 21  4 11  0.0000000  0  9 17 23  3 21  9  8  1 31 29
  22301813.347     6877604.63049   5357361.48449  22301812.5064   22301817.3804
  21771832.699     4046767.63549   3146838.87149  21771831.8744   21771835.8934
  21601965.721   -12538809.12849  -9756901.76949  21601965.1814   21601969.4864
  21204600.873    -8564943.90549  -6665883.54349  21204599.9914   21204604.2894
  23809651.433   -10240497.27449  -7970640.62849  23809650.7824   23809655.9984
  23638896.266   -13049595.41049 -10160507.29649  23638896.0134   23638899.5154
  21376585.077   -21019673.71749 -16367200.43049  21376584.4494   21376588.8834
  23828067.539    -7514406.11849  -5843710.13749  23828066.5834   23828070.7164
  24091649.832    -7302303.82049  -5397050.05949  24091648.9984   24091654.2914
 98  4 21  4 11 30.0000000  0  9 17 23  3 21  9  8  1 31 29
  22313566.851     6939369.26649   5405489.79949  22313566.4994   22313570.9214
  21778343.236     4080980.84349   3173498.52549  21778342.3774   21778346.4924
  21601065.651   -12543538.93249  -9760587.30949  21601064.9944   21601069.3824
  21200732.840    -8585270.37549  -6681722.32649  21200732.2484   21200736.3304
  23806200.616   -10258630.47849  -7984770.34249  23806199.6314   23806204.7304
  23624081.379   -13127447.95949 -10221171.55049  23624081.3494   23624085.4564
  21362567.005   -21093339.16449 -16424602.03549  21362566.3034   21362570.8364
  23814145.364    -7587566.91449  -5900718.49949  23814144.9114   23814149.2314
  24070830.312    -7411709.94149  -5482301.42649  24070831.4104   24070837.1334
 98  4 21  4 12  0.0000000  0  9 17 23  3 21  9  8  1 31 29
  22325373.475     7001413.11849   5453835.65049  22325372.5964   22325378.0454
  21784863.556     4115245.20149   3200198.03549  21784862.9234   21784866.9454
  21600268.769   -12547726.42849  -9763850.27549  21600268.6554   21600272.4764
  21196896.370    -8605431.05249  -6697431.92749  21196895.8044   21196899.9624
  23802842.991   -10276274.81249  -7998519.11749  23802841.0564   23802847.4434
  23609301.451   -13205116.96649 -10281692.78149  23609300.6814   23609305.3394
  21348623.094   -21166614.82049 -16481699.91649  21348622.2964   21348626.8794
  23800298.212    -7660334.33249  -5957420.30849  23800297.4674   23800301.4084
  24050036.785    -7520980.05849  -5567446.83749  24050036.9964   24050040.4744
 98  4 21  4 12 30.0000000  0  9 17 23  3 21  9  8  1 31 29
  22337268.507     7063922.49949   5502544.23049  22337267.9114   22337273.1144
  21791429.244     4149748.22849   3227083.52249  21791428.4084   21791432.7344
  21599611.707   -12551179.23649  -9766540.75449  21599611.2104   21599615.4264
  21193124.570    -8625251.94849  -6712876.75649  21193123.8464   21193128.1884
  23799611.000   -10293258.29849  -8011752.95249  23799610.2834   23799615.2204
  23594589.361   -13282429.28949 -10341936.09149  23594588.1864   23594592.1394
  21334788.842   -21239314.18349 -16538348.72949  21334788.4034   21334792.3734
  23786560.332    -7732526.64449  -6013673.95349  23786558.7584   23786563.8204
  24029300.163    -7629951.70449  -5652359.71149  24029298.7934   24029304.7114
 98  4 21  4 13  0.0000000  0  9 17 23  3 21  9  8  1 31 29
  22349233.636     7126799.31749   5551539.16549  22349232.9584   22349237.3244
  21798024.463     4184406.40849   3254089.90049  21798023.7524   21798027.7734
  21599081.042   -12553967.48649  -9768713.40449  21599080.6984   21599084.8134
  21189399.245    -8644828.67549  -6728131.32749  21189398.5054   21189402.7144
  23796485.763   -10309680.83649  -8024549.71349  23796485.5164   23796490.6024
  23579927.475   -13359477.20949 -10401973.36349  23579926.1774   23579931.2094
  21321044.776   -21311539.74549 -16594628.35549  21321044.2084   21321048.2154
  23772915.160    -7804231.85949  -6069548.08249  23772914.6644   23772919.0984
  24008601.393    -7738724.19049  -5737117.36249  24008601.0914   24008606.7434
 98  4 21  4 13 30.0000000  0  9 17 23  3 21  9  8  1 31 29
  22361259.387     7189994.50449   5600782.15649  22361258.7134   22361263.0654
  21804640.895     4219176.16949   3281183.23249  21804640.0824   21804644.3474
  21598667.275   -12556141.80649  -9770407.65949  21598666.7744   21598670.8924
  21185706.506    -8664234.22549  -6743252.51549  21185705.7214   21185709.9424
  23793454.318   -10325610.89849  -8036962.67249  23793453.9254   23793459.1604
  23565307.589   -13436305.12349 -10461839.21349  23565307.6674   23565311.4384
  21307383.715   -21383328.96949 -16650567.97149  21307383.0264   21307387.1694
  23759354.897    -7875491.81949  -6125075.27049  23759353.8224   23759358.3424
  23987929.070    -7847357.67949  -5821766.72049  23987929.2324   23987933.1744
 98  4 21  4 14  0.0000000  0  9 17 23  3 21  9  8  1 31 29
  22373330.686     7253429.96949   5650212.36349  22373329.8564   22373334.6614
  21811262.325     4253972.08849   3308296.95049  21811261.4184   21811265.5994
  21598351.822   -12557799.34749  -9771699.23149  21598351.1834   21598355.7034
  21182028.297    -8683563.28449  -6758314.09849  21182027.5674   21182031.6364
  23790498.137   -10341145.88249  -8049067.82949  23790498.0014   23790502.3584
  23550715.920   -13512984.86849 -10521589.60549  23550714.6694   23550719.2884
  21293792.071   -21454753.57449 -16706223.46849  21293791.3954   21293795.8014
  23745865.410    -7946378.35149  -6180311.44749  23745863.9704   23745868.5974
  23967266.481    -7955940.32549  -5906376.46549  23967267.7164   23967269.6804
 98  4 21  4 14 30.0000000  0  9 17 23  3 21  9  8  1 31 29
  22385454.469     7317140.73549   5699857.11149  22385453.6134   22385459.2754
  21817896.723     4288836.24749   3335463.83949  21817895.9454   21817899.9954
  21598141.241   -12558905.69749  -9772561.31149  21598140.8484   21598145.2024
  21178373.222    -8702770.72949  -6773280.91849  21178372.3784   21178376.6904
  23787625.922   -10356239.43249  -8060829.02049  23787625.8694   23787630.3454
  23536166.414   -13589442.42249 -10581166.85949  23536165.8314   23536169.7764
  21280275.149   -21525785.36149 -16761572.87949  21280274.3234   21280278.6594
  23732455.746    -8016845.66749  -6235220.96949  23732454.2244   23732460.1634
  23946622.522    -8064425.09049  -5990909.95049  23946623.7974   23946625.9544
 98  4 21  4 15  0.0000000  0  9 17 23  3 21  9  8  1 31 29
  22397651.769     7381238.39149   5749803.33049  22397651.0894   22397656.5504
  21824560.375     4323854.07149   3362750.46249  21824559.5224   21824563.7124
  21598050.759   -12559381.34649  -9772931.93249  21598050.1314   21598054.1844
  21174760.882    -8721753.60949  -6788072.75549  21174760.0594   21174764.1554
  23784858.688   -10370781.42349  -8072160.39349  23784858.5754   23784863.5724
  23521680.857   -13665564.26149 -10640482.52049  23521680.1304   23521685.5364
  21266851.647   -21596326.11549 -16816539.66149  21266851.0254   21266855.3984
  23719142.799    -8086805.93449  -6289735.40449  23719142.0904   23719146.5064
  23926018.678    -8172698.09949  -6075278.38749  23926017.1134   23926024.7874
 98  4 21  4 15 30.0000000  0  9 17 23  3 21  9  8  1 31 29
  22409915.434     7445684.04249   5800020.71849  22409914.2494   22409919.0744
  21831244.211     4358977.62949   3390119.47949  21831243.4854   21831247.6024
  21598070.337   -12559278.14949  -9772851.50349  21598070.0674   21598074.1294
  21171183.100    -8740555.10349  -6802723.24749  21171182.3654   21171186.4684
  23782190.318   -10384804.00549  -8083087.03249  23782190.1224   23782194.3344
  23507251.810   -13741388.92949 -10699566.59949  23507251.7184   23507255.7254
  21253515.142   -21666409.64149 -16871150.16649  21253514.2784   21253518.6294
  23705915.766    -8156313.90249  -6343897.38449  23705914.5874   23705919.2704
  23905449.536    -8280789.12149  -6159505.05049  23905446.7944   23905451.1744
 98  4 21  4 16  0.0000000  0  9 17 23  3 21  9  8  1 31 29
  22422232.741     7510411.39249   5850457.61549  22422230.9534   22422236.3524
  21837936.819     4394147.52049   3417524.59849  21837936.0514   21837940.1494
  21598190.670   -12558645.70249  -9772358.67949  21598190.1344   21598194.4264
  21167630.779    -8759222.48949  -6817269.24349  21167629.9154   21167634.1184
  23779614.980   -10398337.31949  -8093632.41549  23779614.2164   23779618.9454
  23492871.219   -13816959.73449 -10758452.89149  23492869.8954   23492874.4554
  21240253.964   -21736097.42749 -16925452.30449  21240253.2294   21240257.4984
  23692763.131    -8225431.40849  -6397755.12249  23692762.8124   23692766.7914
  23884906.118    -8388745.07649  -6243626.50249  23884904.9544   23884910.6614
 98  4 21  4 16 30.0000000  0  9 17 23  3 21  9  8  1 31 29
  22434602.670     7575416.98349   5901111.29349  22434601.5594   22434606.6894
  21844636.433     4429354.10349   3444958.31249  21844635.7234   21844639.7874
  21598413.195   -12557476.25049  -9771447.40449  21598412.7004   21598417.0684
  21164105.570    -8777747.54949  -6831704.33449  21164104.7754   21164109.0184
  23777135.568   -10411366.43949  -8103784.95049  23777134.9024   23777140.5124
  23478537.460   -13892283.94849 -10817147.04149  23478536.1584   23478541.3024
  21227070.382   -21805377.26749 -16979436.55849  21227069.7954   21227074.0494
  23679686.748    -8294148.68349  -6451300.98949  23679685.9854   23679690.0574
  23864389.921    -8496558.48449  -6327636.86149  23864388.9274   23864394.4444
 98  4 21  4 17  0.0000000  0  9 17 23  3 21  9  8  1 31 29
  22447029.519     7640720.15849   5951996.83949  22447029.5454   22447034.6554
  21851347.888     4464622.99949   3472440.58149  21851346.9074   21851351.2034
  21598741.912   -12555748.83649  -9770101.35849  21598741.4824   21598746.0164
  21160611.488    -8796108.99949  -6846011.94049  21160610.7244   21160614.8494
  23774757.740   -10423861.48949  -8113521.31649  23774758.2374   23774760.6364
  23464250.817   -13967360.24349 -10875648.00349  23464249.2484   23464254.3444
  21213972.457   -21874207.17449 -17033070.22049  21213971.6534   21213976.1174
  23666692.314    -8362435.23749  -6504511.23249  23666691.9904   23666696.4204
  23843906.880    -8604197.22549  -6411511.14449  23843908.8454   23843909.6014
 98  4 21  4 17 30.0000000  0  9 17 23  3 21  9  8  1 31 29
  22459506.731     7706286.73049   6003087.66149  22459506.5474   22459511.2104
  21858072.187     4499959.55449   3499975.57749  21858071.2524   21858075.4764
  21599178.469   -12553454.87849  -9768313.84649  21599178.0704   21599182.0684
  21157144.191    -8814329.63849  -6860209.82049  21157143.4444   21157147.5084
  23772481.356   -10435823.99249  -8122842.72349  23772480.8944   23772485.0674
  23450009.058   -14042200.99649 -10933965.41649  23450008.3574   23450012.9444
  21200958.536   -21942595.62249 -17086359.88349  21200957.7824   21200962.1104
  23653780.507    -8430287.33449  -6557382.93649  23653779.2994   23653784.4744
  23823456.942    -8711661.82049  -6495249.65249  23823459.0134   23823461.3614
 98  4 21  4 18  0.0000000  0  9 17 23  3 21  9  8  1 31 29
  22472033.399     7772115.05249   6054382.44549  22472031.8464   22472037.5014
  21864807.390     4535353.30449   3527555.13249  21864806.7794   21864810.9904
  21599720.812   -12550605.01549  -9766093.15949  21599720.3654   21599724.5174
  21153701.310    -8832422.00149  -6874307.74749  21153700.7784   21153704.7794
  23770301.184   -10447280.83249  -8131770.09449  23770300.0844   23770304.8604
  23435810.091   -14116816.80649 -10992107.53449  23435808.7474   23435814.6404
  21188025.266   -22010560.32749 -17139319.36349  21188024.7364   21188028.9454
  23640953.473    -8497693.67049  -6609907.30249  23640952.8594   23640956.7804
  23803036.189    -8818973.30149  -6578868.87949  23803036.8804   23803041.2514
 98  4 21  4 18 30.0000000  0  9 17 23  3 21  9  8  1 31 29
  22484612.581     7838220.77049   6105893.35849  22484611.6174   22484616.5114
  21871554.075     4570807.34149   3555181.66749  21871553.3094   21871557.3094
  21600369.575   -12547195.81049  -9763436.62649  21600369.1464   21600373.2274
  21150283.440    -8850383.10549  -6888303.38849  21150282.6644   21150286.9474
  23768214.791   -10458244.49249  -8140313.16449  23768214.4284   23768218.6024
  23421651.579   -14191219.40049 -11050083.51849  23421651.7984   23421655.8074
  21175171.889   -22078105.49949 -17191951.92949  21175171.1944   21175175.5304
  23628213.233    -8564643.63649  -6662076.04349  23628212.1294   23628217.3764
  23782645.770    -8926124.84349  -6662363.47949  23782646.8564   23782648.6954
 98  4 21  4 19  0.0000000  0  9 17 23  3 21  9  8  1 31 29
  22497245.233     7904604.94049   6157621.30649  22497245.4114   22497249.3914
  21878316.759     4606345.65249   3582873.86849  21878316.2074   21878320.0754
  21601124.317   -12543229.98049  -9760346.35649  21601123.8434   21601128.0284
  21146888.761    -8868222.22749  -6902203.98449  21146887.9344   21146892.0474
  23766220.663   -10468724.36149  -8148479.24849  23766219.0694   23766225.1044
  23407534.033   -14265407.14749 -11107892.09049  23407533.0724   23407538.1724
  21162395.929   -22145243.63749 -17244267.32849  21162395.3294   21162399.5024
  23615558.515    -8631144.53249  -6713894.86149  23615557.9194   23615561.8034
  23762284.792    -9033122.16449  -6745737.95749  23762285.7624   23762290.2024
 98  4 21  4 19 30.0000000  0  9 17 23  3 21  9  8  1 31 29
  22509933.358     7971280.10049   6209575.95949  22509932.6284   22509937.8584
  21885096.508     4641973.49549   3610635.83949  21885095.9534   21885099.7344
  21601987.256   -12538695.36849  -9756812.87849  21601986.6164   21601990.7584
  21143519.469    -8885927.82549  -6916000.53549  21143518.6874   21143522.7194
  23764316.310   -10478731.03849  -8156276.62649  23764315.7474   23764320.4414
  23393460.376   -14339364.71849 -11165521.30949  23393459.7054   23393464.3874
  21149696.244   -22211980.88749 -17296270.34549  21149695.5804   21149699.7124
  23602991.150    -8697185.94549  -6765355.64349  23602990.3504   23602996.1024
  23741951.104    -9139975.87449  -6829000.49149  23741953.5084   23741954.8194
 98  4 21  4 20  0.0000000  0  9 17 23  3 21  9  8  1 31 29
  22522680.931     8038268.98649   6261775.07549  22522679.2044   22522685.5654
  21891890.597     4677676.54849   3638456.41149  21891889.7004   21891893.9654
  21602957.931   -12533594.18649  -9752837.92149  21602957.6744   21602961.8444
  21140180.187    -8903475.74249  -6929674.21749  21140179.5984   21140183.6474
  23762499.550   -10488277.05249  -8163715.02449  23762499.0644   23762503.3134
  23379430.396   -14413093.04549 -11222971.90149  23379429.4484   23379434.7034
  21137074.426   -22278308.73849 -17347954.35249  21137073.6284   21137077.8224
  23590512.300    -8762763.10149  -6816454.67949  23590511.4594   23590516.5564
  23721641.964    -9246700.89249  -6912162.75949  23721641.1904   23721645.5284
 98  4 21  4 20 30.0000000  0  9 17 23  3 21  9  8  1 31 29
  22535484.665     8105554.45849   6314205.29749  22535484.1194   22535488.6714
  21898698.387     4713452.00249   3666333.39949  21898697.5974   21898701.5774
  21604036.351   -12527927.25049  -9748422.11549  21604035.7274   21604040.0624
  21136870.278    -8920869.30849  -6943227.62849  21136869.7104   21136873.8754
  23760772.217   -10497354.19349  -8170788.09249  23760772.4104   23760776.5164
  23365445.877   -14486582.06049 -11280236.01649  23365444.2804   23365449.9084
  21124532.104   -22344218.80449 -17399312.81249  21124531.5114   21124535.5734
  23578119.924    -8827884.94349  -6867198.90749  23578118.1284   23578123.1864
  23701360.212    -9353282.39349  -6995213.19649  23701359.4804   23701362.4524
 98  4 21  4 21  0.0000000  0  9 17 23  3 21  9  8  1 31 29
  22548344.592     8173133.53549   6366864.29849  22548343.7164   22548348.8214
  21905520.755     4749303.91149   3694269.96249  21905520.1244   21905523.8284
  21605222.522   -12521693.56849  -9743564.69549  21605222.1264   21605226.0664
  21133589.041    -8938112.51649  -6956663.87649  21133588.3614   21133592.5924
  23759136.390   -10505950.51049  -8177486.47449  23759136.2024   23759139.7944
  23351512.659   -14559801.24249 -11337289.87249  23351511.6954   23351517.2724
  21112071.537   -22409699.30849 -17450336.55849  21112071.0274   21112075.1344
  23565814.755    -8892548.68149  -6917586.18149  23565813.6574   23565818.4654
  23681107.348    -9459711.92449  -7078145.20249  23681106.8514   23681111.0914
 98  4 21  4 21 30.0000000  0  9 17 23  3 21  9  8  1 31 29
  22561259.023     8240998.63449   6419746.17449  22561258.1464   22561262.2694
  21912351.910     4785201.78649   3722242.34449  21912351.0754   21912355.2864
  21606514.669   -12514903.50849  -9738273.72649  21606514.1424   21606518.2564
  21130333.015    -8955222.84149  -6969996.57749  21130332.3154   21130336.2174
  23757591.765   -10514067.83449  -8183811.63749  23757591.0124   23757595.3494
  23337632.603   -14632741.16049 -11394126.10049  23337631.6044   23337636.7824
  21099692.081   -22474753.80949 -17501028.35249  21099691.4284   21099695.5054
  23553596.663    -8956754.80849  -6967616.88649  23553596.3654   23553599.6684
  23660883.565    -9565988.20549  -7160957.83849  23660883.6014   23660888.0364
 98  4 21  4 22  0.0000000  0  9 17 23  3 21  9  8  1 31 29
  22574222.375     8309121.10049   6472828.59849  22574221.8014   22574226.0614
  21919185.868     4821114.43649   3750226.22849  21919185.4444   21919189.0814
  21607905.938   -12507592.02849  -9732576.45849  21607905.5684   21607909.8354
  21127093.927    -8972244.28349  -6983260.02049  21127093.2084   21127097.4464
  23756134.352   -10521726.52749  -8189779.44649  23756134.1414   23756138.4314
  23323801.818   -14705422.52349 -11450760.88949  23323801.1584   23323805.9794
  21087390.034   -22539401.36049 -17551403.03749  21087389.2344   21087393.4994
  23541459.531    -9020536.48049  -7017316.81349  23541458.2784   23541462.7004
  23640688.269    -9672115.30749  -7243654.19049  23640688.5324   23640691.2414
 98  4 21  4 22 30.0000000  0  9 17 23  3 21  9  8  1 31 29
  22587238.143     8377519.46849   6526126.03949  22587236.5424   22587241.9784
  21926029.742     4857079.33449   3778250.84249  21926029.3164   21926032.9834
  21609401.247   -12499734.01449  -9726453.31749  21609400.6034   21609404.9404
  21123874.286    -8989163.56149  -6996443.85349  21123873.6174   21123877.5744
  23754771.414   -10528888.91049  -8195360.48549  23754770.0254   23754775.1804
  23310027.943   -14777804.10049 -11507162.06949  23310026.5944   23310031.9414
  21075170.323   -22603616.13149 -17601440.48849  21075169.7544   21075173.7814
  23529406.872    -9083873.60549  -7066670.36149  23529406.1714   23529410.3644
  23620529.577    -9778049.99049  -7326200.63949  23620528.8984   23620534.2854
 98  4 21  4 23  0.0000000  0  9 17 23  3 21  9  8  1 31 29
  22600308.923     8446207.23649   6579648.94449  22600307.8224   22600313.3994
  21932885.632     4893107.44449   3806324.70049  21932884.7004   21932889.1294
  21611000.745   -12491328.52149  -9719903.57349  21611000.2364   21611004.5354
  21120676.147    -9005969.83549  -7009539.63349  21120675.4314   21120679.3744
  23753502.778   -10535555.38049  -8200555.10749  23753501.8734   23753506.9994
  23296310.909   -14849887.50549 -11563330.89449  23296310.0704   23296315.1174
  21063034.174   -22667392.16349 -17651136.06849  21063033.6154   21063037.6624
  23517439.327    -9146763.66949  -7115675.55849  23517438.4264   23517442.8994
  23600407.229    -9883792.79549  -7408597.54649  23600406.6484   23600410.2044
 98  4 21  4 23 30.0000000  0  9 17 23  3 21  9  8  1 31 29
  22613435.622     8515188.79549   6633400.78349  22613434.7154   22613440.3094
  21939753.745     4929199.72049   3834448.55649  21939753.1854   21939757.3224
  21612706.860   -12482363.06449  -9712917.49249  21612706.4154   21612710.6304
  21117504.051    -9022639.28349  -7022528.80149  21117503.2974   21117507.4114
  23752329.080   -10541723.24549  -8205361.20849  23752329.4444   23752333.4124
  23282650.451   -14921673.48149 -11619267.97249  23282649.6074   23282654.3524
  21050986.370   -22730703.82849 -17700469.80449  21050985.9164   21050989.7584
  23505558.846    -9209195.15949  -7164323.42949  23505557.8014   23505561.9944
  23580321.328    -9989344.54449  -7490845.58849  23580320.0144   23580325.6884
 98  4 21  4 24  0.0000000  0  9 17 23  3 21  9  8  1 31 29
  22626614.664     8584444.92049   6687366.57749  22626613.8014   22626618.9674
  21946633.482     4965352.79649   3862619.79649  21946632.4034   21946636.6014
  21614519.150   -12472839.48249  -9705496.50549  21614518.7504   21614523.0434
  21114361.092    -9039155.43549  -7035398.51049  21114360.3034   21114364.5274
  23751249.264   -10547398.55249  -8209783.50749  23751248.6934   23751253.2354
  23269044.759   -14993172.15949 -11674981.18549  23269043.9464   23269048.0284
  21039027.424   -22793548.50549 -17749439.65549  21039026.6554   21039030.8444
  23493763.623    -9271178.78449  -7212622.28149  23493762.9164   23493767.0464
  23560269.109   -10094719.62049  -7572955.98049  23560268.5754   23560272.8494
 98  4 21  4 24 30.0000000  0  9 17 23  3 21  9  8  1 31 29
  22639844.575     8653967.73249   6741540.21449  22639843.8824   22639848.6924
  21953526.565     5001576.32849   3890845.93449  21953525.6204   21953529.8544
  21616435.767   -12462767.36349  -9697648.09449  21616435.3234   21616439.5894
  21111249.100    -9055509.16049  -7048141.65449  21111248.2474   21111252.6144
  23750265.643   -10552567.22849  -8213811.00849  23750264.3244   23750269.6964
  23255495.052   -15064375.73149 -11730464.43949  23255494.1364   23255498.7354
  21027157.203   -22855926.94049 -17798046.20149  21027156.5524   21027160.5174
  23482056.027    -9332701.99849  -7260562.40349  23482054.9424   23482060.0794
  23540248.885   -10199926.89049  -7654935.60649  23540247.6564   23540252.2154
 98  4 21  4 25  0.0000000  0  9 17 23  3 21  9  8  1 31 29
  22653120.583     8723733.36749   6795903.03349  22653119.3224   22653123.8194
  21960429.703     5037852.63349   3919113.19849  21960428.8814   21960432.9074
  21618453.243   -12452165.35849  -9689386.78049  21618452.6874   21618457.1044
  21108164.093    -9071720.63849  -7060773.95449  21108163.3834   21108167.6174
  23749376.478   -10557238.84549  -8217451.19649  23749375.7694   23749380.5434
  23241998.694   -15135299.47249 -11785729.66049  23241997.9004   23242003.1174
  21015373.393   -22917851.04149 -17846298.71649  21015372.7604   21015376.6954
  23470435.578    -9393768.12949  -7308146.35449  23470434.1474   23470438.8194
  23520256.963   -10304984.97349  -7736798.98849  23520256.4154   23520261.8284
 98  4 21  4 25 30.0000000  0  9 17 23  3 21  9  8  1 31 29
  22666449.331     8793776.99449   6850482.44949  22666448.5744   22666453.3524
  21967347.499     5074206.00349   3947440.50149  21967346.5624   21967350.9084
  21620578.413   -12440997.45749  -9680684.50349  21620577.9454   21620582.0684
  21105112.570    -9087756.45549  -7073269.37849  21105111.8854   21105115.8374
  23748591.982   -10561360.98749  -8220663.24949  23748592.5614   23748594.8264
  23228563.805   -15205900.15049 -11840743.14149  23228562.1614   23228567.0324
  21003680.746   -22979296.18149 -17894178.01749  21003679.8354   21003684.2024
  23458909.485    -9454337.37049  -7355343.09349  23458908.5364   23458912.8654
  23500300.088   -10409858.90449  -7818518.87149  23500300.3714   23500302.6514
 98  4 21  4 26  0.0000000  0  9 17 23  3 21  9  8  1 31 29
  22679829.738     8864091.94249   6905273.32049  22679829.0914   22679834.2814
  21974281.346     5110643.41849   3975833.30649  21974280.4324   21974285.0114
  21622804.822   -12429297.47849  -9671567.63249  21622804.3244   21622808.6154
  21102088.719    -9103646.97049  -7085651.58549  21102088.1184   21102092.0114
  23747911.906   -10564934.90749  -8223448.11849  23747912.0934   23747915.3674
  23215188.577   -15276187.04749 -11895512.12249  23215188.1504   23215192.3714
  20992073.091   -23040294.75349 -17941709.34849  20992072.3814   20992076.4694
  23447476.074    -9514420.22749  -7402160.84849  23447475.5004   23447479.8484
  23480379.280   -10514543.24149  -7900091.01349  23480378.8024   23480383.5994
 98  4 21  4 26 30.0000000  0  9 17 23  3 21  9  8  1 31 29
  22693239.641     8934561.16049   6960184.37249  22693238.5684   22693244.2504
  21981210.062     5147053.96249   4004205.15949  21981209.1764   21981213.5654
  21625106.310   -12417203.08149  -9662143.41749  21625105.8014   21625110.1174
  21099065.068    -9119536.23549  -7098032.81449  21099064.3824   21099068.5574
  23747312.744   -10568083.07649  -8225901.21349  23747311.5484   23747316.4524
  23201849.230   -15346286.10849 -11950134.72849  23201848.1054   23201853.6834
  20980524.703   -23100981.63749 -17988997.80249  20980524.1654   20980528.1994
  23436110.946    -9574144.53149  -7448699.22949  23436110.9084   23436114.9944
  23460471.922   -10619156.46549  -7981607.75149  23460471.4444   23460475.5434
 98  4 21  4 27  0.0000000  0  9 17 23  3 21  9  8  1 31 29
  22706680.693     9005194.05449   7015222.99449  22706679.8534   22706684.5634
  21988131.446     5183426.20249   4032547.18049  21988130.6944   21988135.1554
  21627485.192   -12404701.80049  -9652402.15049  21627485.0144   21627489.2944
  21096041.052    -9135427.58049  -7110415.66249  21096040.1654   21096044.3314
  23746790.616   -10570826.29649  -8228038.75449  23746789.4304   23746794.1354
  23188545.889   -15416194.92249 -12004609.07249  23188545.0844   23188549.2644
  20969034.306   -23161364.26949 -18036049.17249  20969033.6304   20969037.8044
  23424812.018    -9633520.99849  -7494966.52549  23424810.3514   23424815.2604
  23440578.598   -10723696.06549  -8063067.11949  23440576.5574   23440582.1314
 98  4 21  4 27 30.0000000  0  9 17 23  3 21  9  8  1 31 29
  22720174.526     9076104.55649   7070477.91049  22720173.7214   22720179.8164
  21995064.795     5219861.12349   4060938.03349  21995064.0844   21995068.3344
  21629961.140   -12391690.42949  -9642263.40949  21629960.6704   21629965.0054
  21093038.578    -9151205.59249  -7122710.20349  21093038.1044   21093041.9844
  23746364.108   -10573067.93049  -8229785.44049  23746363.9944   23746368.7534
  23175299.604   -15485804.51649 -12058850.27249  23175299.0844   23175302.8964
  20957620.486   -23221344.15049 -18082786.71649  20957619.8724   20957623.9494
  23413598.958    -9692446.01349  -7540882.08849  23413597.7244   23413603.2634
  23420718.777   -10828059.53949  -8144389.22849  23420718.5144   23420722.0564
 98  4 21  4 28  0.0000000  0  9 17 23  3 21  9  8  1 31 29
  22733697.979     9147170.84049   7125854.21249  22733697.2094   22733702.1414
  22001988.404     5256244.81949   4089288.97649  22001987.4914   22001991.7634
  21632512.025   -12378285.47049  -9631817.98149  21632511.6944   21632515.8724
  21090034.614    -9166991.46449  -7135010.86749  21090034.0334   21090038.0374
  23746007.393   -10574942.70349  -8231246.26649  23746007.1214   23746012.0904
  23162089.195   -15555225.86049 -12112944.78849  23162088.3704   23162092.2874
  20946264.215   -23281021.50549 -18129288.52949  20946263.4644   20946267.5124
  23402447.543    -9751046.39549  -7586544.68349  23402446.2544   23402450.6574
  23400870.386   -10932363.30749  -8225664.83249  23400870.2754   23400874.7954
 98  4 21  4 28 30.0000000  0  9 17 23  3 21  9  8  1 31 29
  22747271.740     9218501.48749   7181436.51549  22747271.6324   22747275.9324
  22008914.643     5292642.92849   4117651.14749  22008914.1664   22008917.9974
  21635160.990   -12364365.13849  -9620970.96649  21635160.4804   21635164.9634
  21087051.249    -9182669.19449  -7147227.27049  21087050.4694   21087054.4534
  23745738.002   -10576358.26349  -8232349.28749  23745737.1884   23745741.5554
  23148935.144   -15624350.67149 -12166808.22449  23148934.2264   23148938.6564
  20934985.905   -23340289.40049 -18175471.28449  20934985.2114   20934989.1384
  23391378.034    -9809217.09549  -7631872.44149  23391376.9574   23391381.6314
  23381051.345   -11036512.78149  -8306820.23549  23381051.4454   23381055.1784
 98  4 21  4 29  0.0000000  0  9 17 23  3 21  9  8  1 31 29
  22760898.022     9290107.69549   7237233.54049  22760897.2594   22760901.8564
  22015839.796     5329034.82849   4146008.48449  22015839.0424   22015843.2534
  21637912.897   -12349903.81149  -9609702.39249  21637912.2754   21637916.7054
  21084093.260    -9198213.51049  -7159339.70949  21084092.7464   21084096.7014
  23745558.350   -10577302.59549  -8233085.12949  23745558.2424   23745562.6694
  23135838.585   -15693173.72349 -12220436.54749  23135837.5534   23135842.0024
  20923788.346   -23399132.85849 -18221323.30149  20923787.5434   20923791.5534
  23380393.824    -9866939.31449  -7676850.75349  23380392.8014   23380397.8394
  23361264.111   -11140495.54549  -8387845.71849  23361262.9544   23361266.8884
 98  4 21  4 29 30.0000000  0  9 17 23  3 21  9  8  1 31 29
  22774571.721     9361963.48749   7293225.06149  22774571.0334   22774576.0584
  22022760.111     5365401.26049   4174345.97649  22022759.2414   22022763.5024
  21640761.827   -12334932.64549  -9598036.54349  21640761.2634   21640765.6304
  21081157.490    -9213640.99849  -7171361.11849  21081156.6994   21081160.9714
  23745467.855   -10577778.23249  -8233455.73749  23745468.0954   23745471.0694
  23122791.683   -15761735.61049 -12273861.34949  23122790.7354   23122795.1354
  20912670.176   -23457558.97549 -18266850.12249  20912669.5304   20912673.4694
  23369492.677    -9924225.15549  -7721489.03549  23369491.7774   23369495.8074
  23341505.629   -11244326.46449  -8468752.85549  23341504.3234   23341507.8404
 98  4 21  4 30  0.0000000  0  9 17 23  3 21  9  8  1 31 29
  22788304.012     9434127.13949   7349456.47449  22788303.0864   22788308.2004
  22029687.198     5401803.24349   4202711.16549  22029686.6954   22029690.6704
  21643719.801   -12319388.54449  -9585924.24849  21643719.4054   21643723.4724
  21078253.727    -9228900.32049  -7183251.48249  21078252.9994   21078256.9494
  23745478.380   -10577722.88049  -8233412.59249  23745478.1084   23745481.7554
  23109803.382   -15829989.04149 -12327045.79149  23109802.3774   23109806.7584
  20901644.023   -23515501.82849 -18312000.37449  20901643.3734   20901647.3974
  23358686.971    -9981008.68249  -7765735.87249  23358686.0284   23358690.3634
  23321789.193   -11347936.88649  -8549488.21249  23321789.3714   23321792.5284
 98  4 21  4 30 30.0000000  0  9 17 23  3 21  9  8  1 31 29
  22802070.098     9506467.83449   7405825.83749  22802069.0764   22802073.7374
  22036598.362     5438121.46449   4231011.09249  22036597.2414   22036601.9154
  21646763.320   -12303394.49449  -9573461.34649  21646762.9884   21646767.1464
  21075357.838    -9244118.19849  -7195109.55849  21075357.1244   21075361.2614
  23745568.629   -10577248.97149  -8233043.28949  23745568.6754   23745572.6724
  23096847.041   -15898075.48249 -12380100.11349  23096846.9964   23096849.7664
  20890683.656   -23573098.74549 -18356881.06749  20890682.9614   20890687.0714
  23347955.891   -10037400.18549  -7809677.26049  23347955.4674   23347959.9444
  23302090.562   -11451453.81149  -8630150.70849  23302090.9084   23302094.6324
 98  4 21  4 31  0.0000000  0  9 17 23  3 21  9  8  1 31 29
  22815879.041     9579034.39149   7462371.18249  22815878.2064   22815883.5774
  22043515.296     5474470.19649   4259334.77849  22043514.3534   22043518.3004
  21649905.062   -12286884.56249  -9560596.45849  21649904.6334   21649908.9584
  21072482.053    -9259230.57349  -7206885.42549  21072481.4554   21072485.5354
  23745753.039   -10576280.10949  -8232288.32949  23745751.9684   23745756.2824
  23083935.145   -15965927.89849 -12432972.07849  23083933.8254   23083936.5124
  20879804.497   -23630269.07649 -18401429.35649  20879803.6734   20879807.9964
  23337313.979   -10093324.00149  -7853254.23549  23337313.1944   23337317.8134
  23282424.863   -11554797.24549  -8710678.02549  23282424.3434   23282428.2704
 98  4 21  4 31 30.0000000  0  9 17 23  3 21  9  8  1 31 29
  22829720.126     9651769.54249   7519047.89749  22829719.1444   22829724.1204
  22050434.216     5510829.30449   4287666.55949  22050433.6224   22050437.6414
  21653132.590   -12269923.38849  -9547379.96349  21653132.4984   21653136.1324
  21069614.612    -9274299.09149  -7218627.11649  21069613.8804   21069617.9944
  23746020.727   -10574872.63849  -8231191.58849  23746019.8034   23746023.0934
  23071061.920   -16033577.12449 -12485685.71549  23071061.2774   23071065.1904
  20868998.252   -23687056.07149 -18445678.94449  20868997.6544   20869001.6934
  23326751.641   -10148829.38649  -7896505.12249  23326750.4574   23326755.6944
  23262782.028   -11658020.15849  -8791111.40849  23262781.7014   23262785.7284
 98  4 21  4 32  0.0000000  0  9 17 23  3 21  9  8  1 31 29
  22843611.488     9724769.40949   7575930.89349  22843610.8074   22843615.9704
  22057375.310     5547304.88349   4316089.09349  22057374.6274   22057378.6314
  21656468.526   -12252393.11349  -9533720.00049  21656468.1694   21656472.2664
  21066776.774    -9289212.03049  -7230247.57149  21066776.1044   21066780.0724
  23746389.370   -10572934.95949  -8229681.70149  23746389.9564   23746394.2354
  23058253.678   -16100885.40649 -12538133.70349  23058253.0644   23058256.9254
  20858285.540   -23743351.71649 -18489545.65249  20858284.8404   20858289.1534
  23316288.066   -10203816.31449  -7939352.04249  23316287.7004   23316291.7234
  23243181.372   -11761022.11649  -8871372.64849  23243181.8704   23243185.2154
 98  4 21  4 32 30.0000000  0  9 17 23  3 21  9  8  1 31 29
  22857534.234     9797934.06249   7632942.30649  22857532.6294   22857538.9524
  22064319.380     5583796.18049   4344523.87449  22064318.6004   22064322.8324
  21659892.378   -12234400.44849  -9519699.73649  21659891.7994   21659896.0174
  21063950.827    -9304062.46249  -7241819.32549  21063950.1114   21063954.0434
  23746838.467   -10570575.10449  -8227842.83449  23746837.8164   23746842.2104
  23045494.900   -16167933.42049 -12590378.87549  23045494.2864   23045497.3454
  20847647.608   -23799254.49249 -18533106.23449  20847647.0044   20847650.8524
  23305902.693   -10258392.02349  -7981878.52149  23305902.4994   23305905.9934
  23223604.315   -11863900.28249  -8951537.38949  23223603.2944   23223608.8414
 98  4 21  4 33  0.0000000  0  9 17 23  3 21  9  8  1 31 29
  22871485.327     9871247.93849   7690069.99249  22871484.7914   22871489.7994
  22071257.687     5620257.33549   4372935.17249  22071256.8174   22071260.9424
  21663396.634   -12215985.64849  -9505350.53849  21663396.2234   21663400.5724
  21061132.602    -9318872.11049  -7253359.29849  21061131.8524   21061135.9874
  23747360.634   -10567831.53749  -8225704.98249  23747361.0744   23747365.0134
  23032786.299   -16234717.55749 -12642418.42849  23032785.4844   23032789.8254
  20837081.123   -23854781.54949 -18576374.05249  20837080.4894   20837084.3934
  23295590.199   -10312584.92949  -8024106.72249  23295589.1894   23295593.1894
  23204047.384   -11966672.25349  -9031619.40649  23204047.1124   23204051.0024
 98  4 21  4 33 30.0000000  0  9 17 23  3 21  9  8  1 31 29
  22885490.227     9944843.89949   7747417.49549  22885489.5354   22885493.9994
  22078205.972     5656770.98849   4401387.36749  22078205.4064   22078209.5804
  21667001.512   -12197041.73549  -9490589.04649  21667000.9574   21667005.4704
  21058342.722    -9333533.00749  -7264783.36149  21058342.0734   21058346.2694
  23747976.067   -10564597.65249  -8223185.04149  23747976.0084   23747979.7714
  23020151.821   -16301112.15949 -12694154.44249  23020151.1214   23020153.9314
  20826606.933   -23909823.68349 -18619264.00749  20826606.2514   20826610.4434
  23285370.290   -10366290.54049  -8065955.22349  23285369.8644   23285373.4114
  23184528.039   -12069246.72749  -9111547.53149  23184528.1654   23184531.7114
 98  4 21  4 34  0.0000000  0  9 17 23  3 21  9  8  1 31 29
  22899540.706    10018678.91049   7804951.26849  22899539.7884   22899545.0544
  22085149.278     5693258.43049   4429819.15049  22085148.6604   22085152.3954
  21670696.470   -12177624.66849  -9475458.86649  21670696.0794   21670700.1024
  21055570.336    -9348101.96949  -7276135.78849  21055569.7124   21055573.7494
  23748674.137   -10560929.19749  -8220326.49849  23748673.5354   23748676.8744
  23007580.854   -16367173.02349 -12745630.40549  23007579.5644   23007584.1144
  20816211.920   -23964449.80049 -18661829.79349  20816211.1574   20816215.1364
  23275232.663   -10419563.93849  -8107466.91649  23275231.4234   23275236.6714
  23165037.018   -12171672.87349  -9191360.07749  23165037.0094   23165040.5834
 98  4 21  4 34 30.0000000  0  9 17 23  3 21  9  8  1 31 29
  22913656.967    10092860.41249   7862754.99649  22913655.9364   22913660.8354
  22092106.660     5729819.68549   4458308.44249  22092105.7634   22092109.6284
  21674495.531   -12157660.57649  -9459902.43549  21674495.0194   21674499.1624
  21052829.948    -9362502.85149  -7287357.24649  21052829.1304   21052833.2584
  23749476.113   -10556715.14049  -8217042.80849  23749475.9604   23749479.4044
  22995089.901   -16432813.39049 -12796778.70649  22995088.8014   22995092.0234
  20805913.596   -24018567.84449 -18703999.67949  20805912.8664   20805917.1274
  23265199.466   -10472287.87749  -8148550.47449  23265198.1784   23265203.2894
  23145593.017   -12273851.46349  -9270979.70149  23145592.5304   23145596.2204
 98  4 21  4 35  0.0000000  0  9 17 23  3 21  9  8  1 31 29
  22927826.292    10167321.01249   7920776.23649  22927826.1964   22927828.8644
  22099068.712     5766405.39049   4486816.79349  22099068.0844   22099072.1534
  21678386.244   -12137214.78149  -9443970.64749  21678385.9364   21678389.7354
  21050109.442    -9376799.09749  -7298497.16249  21050108.7534   21050112.7274
  23750373.417   -10551999.45949  -8213368.24149  23750373.7184   23750377.3174
  22982667.109   -16498095.40849 -12847647.77249  22982666.2714   22982670.0204
  20795699.193   -24072244.72249 -18745825.79549  20795698.4884   20795702.5204
  23255260.843   -10524515.55049  -8189247.32049  23255259.9094   23255264.1734
  23126182.904   -12375852.19349  -9350460.75549  23126182.4974   23126186.5864
 98  4 21  4 35 30.0000000  0  9 17 23  3 21  9  8  1 31 29
  22942056.860    10242102.87849   7979047.79849  22942055.6354   22942060.7734
  22106050.197     5803093.51349   4515404.93949  22106049.7104   22106053.1634
  21682379.440   -12116230.48049  -9427619.24749  21682378.7224   21682383.1744
  21047417.954    -9390943.00049  -7309518.37749  21047417.0664   21047421.2454
  23751377.800   -10546720.82749  -8209255.00849  23751376.1044   23751381.8764
  22970316.987   -16562995.65849 -12898219.35549  22970315.6914   22970320.1554
  20785577.011   -24125437.10549 -18787274.39149  20785576.2054   20785580.4004
  23245427.264   -10576191.03449  -8229513.89449  23245425.9664   23245430.3614
  23106817.794   -12477616.81249  -9429757.82549  23106817.2534   23106820.6854
 98  4 21  4 36  0.0000000  0  9 17 23  3 21  9  8  1 31 29
  22956344.709    10317185.90549   8037554.04049  22956344.0744   22956348.6794
  22113052.410     5839890.32249   4544077.78049  22113051.3934   22113055.5234
  21686473.062   -12094718.54149  -9410856.70249  21686472.7474   21686477.0434
  21044755.112    -9404936.15749  -7320422.12449  21044754.6104   21044758.3124
  23752490.294   -10540874.59949  -8204699.50849  23752489.9834   23752493.7964
  22958036.250   -16627531.42049 -12948506.93949  22958034.7234   22958039.3534
  20775544.807   -24178156.76449 -18828354.62849  20775544.0704   20775548.2764
  23235698.776   -10627314.62949  -8269350.43549  23235698.0314   23235702.0214
  23087502.564   -12579119.02449  -9508850.43549  23087502.0754   23087505.5284
 98  4 21  4 36 30.0000000  0  9 17 23  3 21  9  8  1 31 29
  22970683.972    10392539.47749   8096271.07849  22970683.3874   22970689.0774
  22120077.181     5876805.79149   4572843.09049  22120076.4304   22120080.7734
  21690665.544   -12072686.71949  -9393689.05049  21690665.1954   21690669.3764
  21042121.026    -9418778.25249  -7331208.16249  21042120.4234   21042124.3364
  23753712.010   -10534454.66149  -8199696.92749  23753712.5074   23753715.8824
  22945822.262   -16691715.94449 -12998520.81149  22945821.0294   22945825.9314
  20765602.334   -24230404.52849 -18869067.15249  20765601.6934   20765605.7674
  23226072.108   -10677902.99549  -8308769.90649  23226071.6354   23226075.7794
  23068235.626   -12680367.03349  -9587744.93149  23068235.1934   23068239.0464
 98  4 21  4 37  0.0000000  0  9 17 23  3 21  9  8  1 31 29
  22985048.320    10468024.58649   8155090.62249  22985048.3924   22985052.4574
  22127098.556     5913703.37349   4601594.44749  22127097.5394   22127101.7414
  21694935.801   -12050246.25049  -9376202.97549  21694935.6794   21694939.6154
  21039493.269    -9432587.05349  -7341968.26149  21039492.7124   21039496.6464
  23755016.327   -10527600.49149  -8194356.01349  23755016.5744   23755019.9504
  22933650.709   -16755678.10249 -13048361.42849  22933649.9944   22933654.1334
  20755723.975   -24282315.72549 -18909517.41849  20755723.3224   20755727.4064
  23216516.876   -10728115.47949  -8347896.48249  23216516.2304   23216519.2544
  23048995.005   -12781477.26849  -9666532.09049  23048993.8244   23048998.4484
 98  4 21  4 37 30.0000000  0  9 17 23  3 21  9  8  1 31 29
  22999463.718    10543778.11649   8214119.31649  22999463.3734   22999468.7204
  22134137.208     5950691.71349   4630416.52749  22134136.6364   22134140.5064
  21699311.831   -12027250.13549  -9358283.92649  21699311.4494   21699315.4804
  21036897.455    -9446228.33349  -7352597.81749  21036896.7494   21036900.7864
  23756427.182   -10520186.15749  -8188578.58849  23756427.5774   23756430.9144
  22921548.794   -16819274.37849 -13097916.93249  22921547.8834   22921551.6684
  20745937.882   -24333741.91649 -18949589.75549  20745937.0474   20745941.1664
  23207057.950   -10777822.94449  -8386629.53849  23207056.8194   23207061.9174
  23029809.782   -12882296.33649  -9745092.37349  23029809.0854   23029812.0834
 98  4 21  4 38  0.0000000  0  9 17 23  3 21  9  8  1 31 29
  23013936.333    10619832.20849   8273382.22149  23013935.4344   23013940.2934
  22141195.124     5987781.58449   4659317.73249  22141194.8604   22141198.5574
  21703799.152   -12003668.69349  -9339908.78449  21703798.4734   21703803.0964
  21034340.910    -9459663.00149  -7363066.38449  21034340.2094   21034344.3244
  23757950.228   -10512182.72949  -8182342.14249  23757949.5944   23757953.8224
  22909528.821   -16882439.12649 -13147136.19849  22909527.9144   22909531.7704
  20736252.093   -24384641.06049 -18989251.40749  20736251.4424   20736255.3774
  23197699.446   -10827001.49849  -8424950.46649  23197699.3974   23197702.2934
  23010683.555   -12982804.90249  -9823410.70249  23010682.8664   23010687.5094
 98  4 21  4 38 30.0000000  0  9 17 23  3 21  9  8  1 31 29
  23028468.591    10696199.96649   8332889.53949  23028468.5334   23028473.0164
  22148270.907     6024965.05449   4688291.86649  22148270.3514   22148274.3134
  21708400.776   -11979486.97349  -9321065.88649  21708400.5274   21708404.3394
  21031824.421    -9472887.21649  -7373370.95549  21031823.8414   21031827.6764
  23759586.257   -10503584.51549  -8175642.22149  23759585.7714   23759591.3804
  22897594.942   -16945151.73849 -13196003.13549  22897594.4054   22897598.2204
  20726669.119   -24434999.89449 -19028492.03549  20726668.3664   20726672.4254
  23188443.669   -10875640.94149  -8462851.29149  23188443.2154   23188446.7964
  22991614.062   -13083015.71849  -9901496.99849  22991613.7574   22991618.0584
 98  4 21  4 39  0.0000000  0  9 17 23  3 21  9  8  1 31 29
  23043056.599    10772860.45049   8392624.96649  23043055.6844   23043061.2074
  22155355.033     6062192.28549   4717300.10449  22155353.9384   22155358.4224
  21713110.337   -11954738.18049  -9301781.12449  21713109.8174   21713113.8764
  21029339.605    -9485944.94349  -7383545.80349  21029338.8024   21029343.0174
  23761326.138   -10494441.46649  -8168517.77249  23761326.4264   23761331.3974
  22885741.556   -17007441.54149 -13244540.60649  22885739.5624   22885744.8584
  20717182.223   -24484853.76049 -19067339.18049  20717181.5844   20717185.4784
  23179285.966   -10923765.51949  -8500350.93249  23179285.4254   23179289.9984
  22972593.508   -13182969.67249  -9979383.17649  22972593.5744   22972596.8904
 98  4 21  4 39 30.0000000  0  9 17 23  3 21  9  8  1 31 29
  23057700.850    10849816.50449   8452590.69449  23057700.1564   23057705.3814
  22162447.917     6099465.76049   4746344.37149  22162447.2674   22162451.2074
  21717925.657   -11929433.88449  -9282063.49349  21717925.4134   21717929.4974
  21026886.361    -9498836.64349  -7393591.27749  21026885.8104   21026889.5844
  23763170.578   -10484749.17849  -8160965.31149  23763169.5804   23763174.7374
  22873969.250   -17069304.22749 -13292745.24949  22873967.9124   22873972.9444
  20707792.426   -24534197.41849 -19105788.76849  20707791.8744   20707795.6604
  23170231.139   -10971348.79249  -8537428.77249  23170230.6434   23170234.9254
  22953618.976   -13282680.95949 -10057080.22849  22953619.1404   22953622.1064
 98  4 21  4 40  0.0000000  0  9 17 23  3 21  9  8  1 31 29
  23072404.560    10927084.58149   8512799.56249  23072403.3884   23072408.9594
  22169553.729     6136807.18549   4775441.58149  22169553.0084   22169557.3434
  21722844.973   -11903582.81649  -9261919.80749  21722844.3184   21722848.5664
  21024466.480    -9511553.32449  -7403500.36949  21024465.7654   21024469.7394
  23765120.399   -10474502.34049  -8152980.76349  23765119.4004   23765124.4124
  22862278.884   -17130737.19449 -13340615.06049  22862278.5544   22862282.2874
  20698498.699   -24583036.36549 -19143845.07649  20698497.9484   20698501.9484
  23161284.748   -11018361.99249  -8574062.40649  23161284.2674   23161287.7314
  22934690.112   -13382152.50249 -10134590.51449  22934690.0044   22934693.2614
 98  4 21  4 40 30.0000000  0  9 17 23  3 21  9  8  1 31 29
  23087170.576    11004679.99549   8573263.49149  23087169.9954   23087174.7384
  22176675.664     6174232.90149   4804604.48249  22176675.2074   22176678.5544
  21727868.547   -11877183.70049  -9241349.07149  21727868.5404   21727872.3124
  21022079.624    -9524096.36449  -7413274.16149  21022078.9684   21022082.8824
  23767176.247   -10463699.47249  -8144562.92149  23767175.9764   23767179.0394
  22850668.525   -17191749.78149 -13388157.29049  22850667.5324   22850671.7434
  20689301.754   -24631366.50549 -19181504.90949  20689301.0354   20689304.9884
  23152451.428   -11064780.92949  -8610232.97549  23152450.7024   23152454.7984
  22915811.070   -13481362.40149 -10211896.87849  22915810.3654   22915814.4294
 98  4 21  4 41  0.0000000  0  9 17 23  3 21  9  8  1 31 29
  23101997.380    11082595.13249   8633976.53849  23101995.3014   23102002.0674
  22183816.896     6211760.51249   4833846.78049  22183816.2944   22183820.6454
  21732993.149   -11850253.87249  -9220364.78649  21732992.4424   21732996.7994
  21019724.891    -9536470.41249  -7422916.26549  21019724.2184   21019728.2804
  23769333.782   -10452362.07649  -8135728.57949  23769333.5834   23769336.3864
  22839138.493   -17252340.52149 -13435370.82649  22839137.3944   22839142.2134
  20680201.452   -24679188.56949 -19218768.83749  20680200.7454   20680204.8144
  23143729.993   -11110612.07249  -8645945.52249  23143729.4104   23143733.8974
  22896985.691   -13580290.07849 -10288983.35149  22896985.3774   22896988.7124
 98  4 21  4 41 30.0000000  0  9 17 23  3 21  9  8  1 31 29
  23116884.863    11160829.35549   8694938.24149  23116885.0344   23116889.2254
  22190979.399     6249399.59949   4863175.94649  22190978.5454   22190982.3814
  21738215.165   -11822811.75049  -9198981.32249  21738214.7074   21738218.9834
  21017402.737    -9548673.27649  -7432424.98749  21017402.1154   21017406.2774
  23771592.620   -10440491.91349  -8126479.12149  23771592.8794   23771596.8944
  22827689.602   -17312504.59249 -13482251.88749  22827688.7704   22827692.4714
  20671198.042   -24726501.70349 -19255636.20149  20671197.4684   20671201.3604
  23135121.524   -11155849.53149  -8681195.45049  23135120.2104   23135124.7034
  22878215.354   -13678929.05749 -10365844.86749  22878215.2514   22878218.7744
 98  4 21  4 42  0.0000000  0  9 17 23  3 21  9  8  1 31 29
  23131829.648    11239364.65949   8756134.55749  23131828.7284   23131834.0364
  22198161.569     6287142.20149   4892585.76449  22198160.7634   22198164.4674
  21743531.426   -11794874.78849  -9177212.26049  21743531.2274   21743535.3394
  21015108.812    -9560727.99749  -7441818.26649  21015108.1334   21015112.1264
  23773950.100   -10428103.22849  -8116825.59049  23773948.8284   23773953.5754
  22816318.994   -17372257.03749 -13528812.20249  22816317.9124   22816321.9604
  20662289.569   -24773316.09549 -19292114.93249  20662288.8954   20662292.8064
  23126621.521   -11200518.46549  -8716002.38549  23126620.0144   23126624.3674
  22859498.393   -13777287.37049 -10442487.67249  22859498.1294   22859501.3964
 98  4 21  4 42 30.0000000  0  9 17 23  3 21  9  8  1 31 29
  23146831.767    11318200.98849   8817565.45049  23146831.0324   23146835.7224
  22205367.547     6325010.08049   4922093.19949  22205366.9644   22205370.9054
  21748946.399   -11766418.88649  -9155038.83249  21748945.7184   21748950.0144
  21012845.353    -9572622.56349  -7451086.75149  21012844.7904   21012848.7084
  23776410.035   -10415175.25849  -8106751.82049  23776409.1044   23776414.3824
  22805030.790   -17431576.76649 -13575035.33049  22805030.3964   22805034.2244
  20653479.440   -24819613.74449 -19328191.01049  20653478.7444   20653482.6564
  23118226.884   -11244632.04549  -8750376.57949  23118226.2154   23118230.3134
  22840837.948   -13875348.13349 -10518898.62649  22840837.4274   22840841.4024
 98  4 21  4 43  0.0000000  0  9 17 23  3 21  9  8  1 31 29
  23161889.388    11397329.33349   8879223.87549  23161887.8094   23161893.6574
  22212597.258     6363002.37449   4951697.59249  22212596.0704   22212600.3394
  21754463.522   -11737426.41649  -9132447.29549  21754463.3384   21754467.2504
  21010615.590    -9584340.08749  -7460217.27349  21010614.8744   21010618.8444
  23778976.047   -10401690.18349  -8096243.93549  23778975.4484   23778979.6914
  22793828.802   -17490443.44549 -13620905.43949  22793828.1714   22793831.9334
  20644768.334   -24865390.79549 -19363861.42749  20644767.6454   20644771.6234
  23109938.641   -11288186.30549  -8784314.93549  23109937.4934   23109941.3084
  22822234.699   -13973108.81549 -10595075.75149  22822234.7064   22822238.8194
 98  4 21  4 43 30.0000000  0  9 17 23  3 21  9  8  1 31 29
  23177002.631    11476750.07649   8941110.14349  23177000.9464   23177006.7354
  22219845.902     6401094.33949   4981379.63749  22219845.5314   22219849.3394
  21760085.295   -11707883.88849  -9109427.14749  21760084.6574   21760088.7834
  21008420.413    -9595875.79549  -7469206.12449  21008419.7944   21008423.8304
  23781652.085   -10387627.60049  -8085286.06249  23781651.6954   23781655.6064
  22782711.202   -17548866.78049 -13666430.07849  22782710.1584   22782714.3594
  20636156.555   -24910645.76649 -19399125.02649  20636155.8674   20636159.9614
  23101757.941   -11331175.81749  -8817813.22249  23101757.3564   23101761.7764
  22803683.682   -14070594.80449 -10671038.82649  22803683.4584   22803687.1224
 98  4 21  4 44  0.0000000  0  9 17 23  3 21  9  8  1 31 29
  23192172.386    11556467.85149   9003227.84549  23192170.5344   23192176.6744
  22227113.652     6439286.63749   5011139.87849  22227113.3704   22227117.1284
  21765817.580   -11677760.40149  -9085954.29949  21765817.3484   21765821.2454
  21006262.199    -9607217.13449  -7478043.52449  21006261.4084   21006265.4934
  23784442.054   -10372966.43449  -8073861.77649  23784441.7444   23784445.1624
  22771680.507   -17606833.49249 -13711598.90149  22771679.8044   22771684.5264
  20627647.507   -24955361.03449 -19433968.08149  20627646.7974   20627650.8974
  23093685.444   -11373597.06449  -8850868.71149  23093684.9354   23093688.4434
  22785189.145   -14167784.04249 -10746770.68049  22785188.7824   22785192.0314
 98  4 21  4 44 30.0000000  0  9 17 23  3 21  9  8  1 31 29
  23207404.351    11636512.30749   9065600.12649  23207403.5594   23207408.4424
  22234403.628     6477595.45249   5040990.89149  22234402.9434   22234406.4464
  21771667.305   -11647019.98449  -9062000.72949  21771666.6294   21771671.0854
  21004149.013    -9618321.93549  -7486696.60649  21004148.3514   21004152.0044
  23787350.282   -10357684.54849  -8061953.82349  23787350.2404   23787354.0284
  22760743.978   -17664305.36549 -13756382.14549  22760742.4464   22760748.3134
  20619246.370   -24999509.20449 -19468369.23749  20619245.5034   20619249.7034
  23085727.469   -11415416.51149  -8883455.26149  23085727.1844   23085731.1794
  22766756.985   -14264645.61449 -10822247.19949  22766757.1224   22766760.7834
 98  4 21  4 45  0.0000000  0  9 17 23  3 21  9  8  1 31 29
  23222699.669    11716889.63849   9128231.77649  23222699.0604   23222704.0404
  22241713.469     6516008.91549   5070923.46849  22241712.5734   22241716.7004
  21777633.626   -11615666.67049  -9037569.57949  21777633.2484   21777637.0304
  21002081.804    -9629185.26149  -7495161.53149  21002081.0724   21002085.0934
  23790377.517   -10341777.30549  -8049558.56649  23790377.5444   23790379.6834
  22749901.820   -17721281.17249 -13800778.84049  22749901.0214   22749906.0934
  20610955.020   -25043080.39149 -19502320.79749  20610954.2634   20610958.3914
  23077886.319   -11456621.76149  -8915563.23449  23077885.1834   23077889.7534
  22748389.164   -14361169.32249 -10897460.46449  22748388.3284   22748392.2544
 98  4 21  4 45 30.0000000  0  9 17 23  3 21  9  8  1 31 29
  23238058.248    11797599.16749   9191122.27349  23238057.7274   23238063.0614
  22249045.591     6554539.72149   5100947.47049  22249044.9574   22249048.9094
  21783713.168   -11583718.60349  -9012674.98449  21783712.5004   21783716.7944
  21000058.363    -9639818.41449  -7503447.09949  21000057.7734   21000061.7954
  23793522.468   -10325249.86649  -8036680.03949  23793521.8284   23793525.7724
  22739151.558   -17777774.06349 -13844799.22849  22739150.1644   22739154.2284
  20602771.593   -25086084.59349 -19535830.54749  20602771.0684   20602775.0514
  23070158.207   -11497233.86449  -8947208.99349  23070157.1934   23070160.4834
  22730083.903   -14457363.56349 -10972416.98949  22730083.3614   22730086.9944
 98  4 21  4 46  0.0000000  0  9 17 23  3 21  9  8  1 31 29
  23253475.689    11878618.50149   9254254.19349  23253474.9444   23253480.1754
  22256399.429     6593184.19049   5131060.04849  22256398.9564   22256402.3334
  21789900.122   -11551205.90749  -8987340.41049  21789899.6464   21789903.4584
  20998074.782    -9650242.34249  -7511569.63549  20998074.0764   20998078.0734
  23796779.443   -10308134.65149  -8023343.48749  23796777.9034   23796782.7784
  22728491.638   -17833791.61349 -13888449.23949  22728490.6234   22728494.6204
  20594690.174   -25128552.58249 -19568922.46749  20594689.5034   20594693.4224
  23062538.954   -11537273.02049  -8978408.30749  23062538.2374   23062542.5184
  22711843.696   -14553216.73349 -11047107.73049  22711843.7484   22711847.5814
 98  4 21  4 46 30.0000000  0  9 17 23  3 21  9  8  1 31 29
  23268952.381    11959948.95449   9317628.53449  23268952.2404   23268956.5874
  22263775.835     6631947.38149   5161265.12249  22263775.2594   22263779.3534
  21796191.003   -11518147.09649  -8961580.30349  21796190.5214   21796194.7474
  20996130.030    -9660462.10449  -7519533.07649  20996129.2324   20996133.0854
  23800147.585   -10290434.62249  -8009551.24149  23800147.6614   23800150.3194
  22717924.216   -17889322.52649 -13931720.04349  22717923.0894   22717928.2034
  20586709.228   -25170492.61549 -19601602.99849  20586708.6084   20586712.3924
  23055027.725   -11576744.32449  -9009165.14549  23055026.9374   23055031.2574
  22693667.143   -14648735.05649 -11121537.58449  22693666.7314   22693670.9554
 98  4 21  4 47  0.0000000  0  9 17 23  3 21  9  8  1 31 29
  23284481.689    12041555.58049   9381218.08149  23284481.0994   23284486.4204
  22271172.579     6670817.60549   5191553.61349  22271171.6494   22271175.7524
  21802578.474   -11484580.55749  -8935424.56149  21802577.8394   21802582.0224
  20994217.553    -9670512.16849  -7527364.29249  20994216.8864   20994221.0064
  23803623.288   -10272168.83449  -7995318.14549  23803622.2254   23803626.5354
  22707446.892   -17944381.45349 -13974623.08049  22707445.8224   22707450.1584
  20578823.650   -25211931.58249 -19633893.08949  20578822.8674   20578826.8944
  23047619.795   -11615674.34549  -9039500.20349  23047618.7364   23047623.0414
  22675549.964   -14743941.24649 -11195724.19949  22675550.1234   22675553.5304
 98  4 21  4 47 30.0000000  0  9 17 23  3 21  9  8  1 31 29
  23300061.471    12123427.64649   9445014.46749  23300060.4744   23300066.0204
  22278589.804     6709795.53949   5221926.02949  22278588.9044   22278592.7834
  21809059.960   -11450520.03849  -8908883.90449  21809059.7124   21809063.8184
  20992334.647    -9680406.77449  -7535074.36449  20992333.8604   20992337.8334
  23807201.280   -10253365.87949  -7980666.46949  23807200.7884   23807204.2544
  22697058.555   -17998972.30549 -14017161.36949  22697058.0744   22697062.2014
  20571032.048   -25252876.72349 -19665798.38049  20571031.3514   20571035.2184
  23040313.810   -11654066.76049  -9069416.34949  23040313.2134   23040316.9634
  22657489.745   -14838848.15949 -11269677.60449  22657489.6664   22657493.9504
 98  4 21  4 48  0.0000000  0  9 17 23  3 21  9  8  1 31 29
  23315693.701    12205575.27249   9509025.55249  23315692.4924   23315699.1914
  22286024.471     6748865.01149   5252369.76649  22286023.9974   22286027.7004
  21815635.886   -11415963.32349  -8881956.60049  21815635.5704   21815640.0714
  20990481.755    -9690143.62049  -7542661.51349  20990481.2924   20990485.1544
  23810881.314   -10234027.05849  -7965597.26249  23810881.7004   23810883.9664
  22686763.415   -18053074.41349 -14059318.83349  22686763.0514   22686766.0164
  20563339.041   -25293303.58649 -19697299.82149  20563338.3474   20563342.3864
  23033114.568   -11691898.99849  -9098895.99149  23033114.1174   23033117.4334
  22639487.736   -14933449.38649 -11343392.82649  22639487.3394   22639491.6644
 98  4 21  4 48 30.0000000  0  9 17 23  3 21  9  8  1 31 29
  23331376.541    12287989.53649   9573244.41949  23331376.4644   23331381.2024
  22293474.909     6788017.47949   5282878.18149  22293474.0794   22293478.6054
  21822303.958   -11380922.74149  -8854652.25049  21822303.4944   21822307.6574
  20988657.894    -9699728.21749  -7550130.02549  20988657.2654   20988661.0034
  23814662.695   -10214156.00349  -7950113.32749  23814661.3334   23814666.0204
  22676559.838   -18106694.63949 -14101100.80549  22676558.6854   22676562.4914
  20555745.246   -25333209.21049 -19728395.09949  20555744.5144   20555748.4054
  23026020.174   -11729180.24549  -9127946.29649  23026019.2294   23026022.7224
  22621537.794   -15027776.56049 -11416894.49749  22621537.9254   22621540.9254
 98  4 21  4 49  0.0000000  0  9 17 23  3 21  9  8  1 31 29
  23347110.952    12370674.14449   9637673.94849  23347109.9024   23347115.8044
  22300940.276     6827248.07749   5313447.49749  22300938.9414   22300943.5114
  21829065.145   -11345392.42849  -8826966.29549  21829064.5334   21829068.8474
  20986863.327    -9709158.62549  -7557478.38849  20986862.6474   20986866.7334
  23818544.040   -10193759.06849  -7934219.62249  23818544.5754   23818547.2834
  22666443.478   -18159856.18249 -14142525.34749  22666442.3984   22666447.5794
  20548251.022   -25372591.57849 -19759082.64249  20548250.1824   20548254.3344
  23019032.587   -11765899.82649  -9156558.92949  23019032.3564   23019036.1244
  22603639.312   -15121833.76349 -11490185.80449  22603638.9964   22603642.6444
 98  4 21  4 49 30.0000000  0  9 17 23  3 21  9  8  1 31 29
  23362901.209    12453652.70649   9702332.52449  23362901.0504   23362905.0874
  22308419.197     6866550.19649   5344072.51949  22308418.9134   22308422.6524
  21835920.555   -11309366.71649  -8798894.31449  21835920.0374   21835924.2274
  20985099.089    -9718429.79149  -7564702.66849  20985098.3694   20985102.4604
  23822526.402   -10172830.94549  -7917911.98849  23822526.1784   23822530.1634
  22656411.831   -18212572.96049 -14183603.32549  22656411.0734   22656415.4004
  20540856.375   -25411450.77349 -19789362.52549  20540855.6524   20540859.7744
  23012153.057   -11802051.02249  -9184728.67849  23012152.1794   23012155.8404
  22585792.837   -15215617.66749 -11563264.14549  22585792.6514   22585796.5274
 98  4 21  4 50  0.0000000  0  9 17 23  3 21  9  8  1 31 29
  23378742.033    12536896.29549   9767197.62949  23378742.0544   23378745.8244
  22315905.035     6905888.82949   5374725.99949  22315904.4014   22315907.7194
  21842863.708   -11272880.20449  -8770463.26849  21842863.2904   21842867.1934
  20983359.496    -9727571.27049  -7571825.88849  20983358.6434   20983362.7554
  23826606.608   -10151389.47349  -7901204.33149  23826606.8034   23826611.9474
  22646458.657   -18264877.14249 -14224359.78349  22646457.0944   22646461.3564
  20533553.080   -25449829.76749 -19819268.22049  20533552.4374   20533556.3514
  23005375.682   -11837666.26849  -9212480.79749  23005374.7704   23005379.6044
  22567992.811   -15309157.16749 -11636152.03849  22567992.6244   22567996.3524
 98  4 21  4 50 30.0000000  0  9 17 23  3 21  9  8  1 31 29
  23394621.795    12620345.01149   9832222.56949  23394620.7414   23394626.8014
  22323390.879     6945227.09349   5405379.19849  22323390.0994   22323394.7464
  21849883.530   -11235990.88349  -8741718.34649  21849882.8114   21849887.1044
  20981634.389    -9736636.68249  -7578889.83649  20981633.7574   20981637.7924
  23830773.129   -10129495.64549  -7884144.19549  23830773.4694   23830776.8154
  22636570.224   -18316840.74949 -14264850.88449  22636569.3394   22636572.9934
  20526328.257   -25487796.39249 -19848852.59249  20526327.5594   20526331.5544
  22998688.373   -11872808.56449  -9239864.38049  22998687.0604   22998691.8394
  22550230.053   -15402501.11649 -11708887.55449  22550229.3214   22550233.6734
 98  4 21  4 51  0.0000000  0  9 17 23  3 21  9  8  1 31 29
  23410582.724    12704220.36249   9897579.95649  23410581.6024   23410586.5714
  22330919.882     6984792.47749   5436209.36949  22330919.2964   22330922.9224
  21857023.628   -11198469.21649  -8712480.68649  21857023.2984   21857027.0244
  20979965.340    -9745407.66749  -7585724.36249  20979964.4834   20979968.5114
  23835069.823   -10106917.10949  -7866550.52949  23835069.6754   23835074.1794
  22626788.411   -18368244.89849 -14304906.03349  22626787.5614   22626790.9964
  20519224.381   -25525127.30449 -19877941.60349  20519223.7674   20519227.6134
  22992134.344   -11907250.40549  -9266702.17449  22992133.1774   22992138.0194
  22532550.839   -15495405.72949 -11781280.72949  22532550.2004   22532554.7924
 98  4 21  4 51 30.0000000  0  9 17 23  3 21  9  8  1 31 29
  23426617.985    12788486.31949   9963241.69349  23426617.2304   23426622.6534
  22338489.808     7024572.54049   5467206.81549  22338488.7864   22338492.8834
  21864280.121   -11160336.19849  -8682766.64949  21864279.6844   21864283.7754
  20978348.342    -9753905.05349  -7592345.69149  20978347.5524   20978351.4994
  23839493.453   -10083670.63549  -7848436.38549  23839492.9324   23839497.5094
  22617113.588   -18419086.33349 -14344522.69449  22617112.5994   22617116.8144
  20512238.383   -25561838.88149 -19906548.00949  20512237.7334   20512241.6524
  22985710.380   -11941007.71249  -9293006.55349  22985709.7944   22985713.8874
  22514952.842   -15587884.01049 -11853341.70049  22514952.6834   22514955.9564
 98  4 21  4 52  0.0000000  0  9 17 23  3 21  9  8  1 31 29
  23442706.322    12873030.94749  10029120.60349  23442705.7134   23442711.2484
  22346082.406     7064471.91149   5498297.22749  22346082.4394   22346086.0324
  21871635.389   -11121684.06249  -8652648.11349  21871635.1524   21871638.8394
  20976764.897    -9762226.17049  -7598829.67449  20976764.3484   20976768.1824
  23844024.755   -10059857.61849  -7829880.76349  23844023.5164   23844028.7124
  22607529.903   -18469448.68549 -14383766.06849  22607529.3734   22607533.6254
  20505353.040   -25598021.57149 -19934742.30049  20505352.4604   20505356.2354
  22979398.001   -11974178.26949  -9318853.71649  22979397.9344   22979401.9754
  22497418.978   -15680024.67349 -11925139.59649  22497418.3914   22497422.5524
 98  4 21  4 52 30.0000000  0  9 17 23  3 21  9  8  1 31 29
  23458837.967    12957803.10649  10095176.79849  23458837.3354   23458842.6014
  22353688.864     7104443.81849   5529444.15549  22353688.0544   22353692.3414
  21879082.677   -11082548.27049  -8622152.69649  21879082.2674   21879086.2184
  20975206.935    -9770413.37649  -7605209.30849  20975206.3874   20975210.1554
  23848655.944   -10035519.79549  -7810916.22949  23848655.3694   23848658.9814
  22598031.121   -18519364.66849 -14422661.59549  22598030.1194   22598034.9154
  20498561.563   -25633711.19949 -19962552.38849  20498561.0514   20498564.8434
  22973190.300   -12006801.22049  -9344274.19049  22973189.2624   22973193.6214
  22479942.831   -15771862.25149 -11996701.32049  22479942.5904   22479946.4114
 98  4 21  4 53  0.0000000  0  9 17 23  3 21  9  8  1 31 29
  23475015.444    13042815.93349  10161420.53749  23475014.6164   23475020.1834
  22361309.370     7144489.61449   5560648.67949  22361308.4484   22361312.6854
  21886626.617   -11042904.60749  -8591261.53849  21886626.1544   21886630.4834
  20973678.713    -9778444.14149  -7611467.04149  20973678.0754   20973682.1264
  23853391.401   -10010634.61149  -7791525.15749  23853390.5914   23853394.1804
  22588623.918   -18568799.73449 -14461182.39449  22588623.2914   22588626.3384
  20491867.955   -25668886.40049 -19989961.62349  20491867.3154   20491871.2194
  22967091.578   -12038850.07949  -9369247.30549  22967090.7644   22967094.0764
  22462526.808   -15863384.06649 -12068016.99749  22462526.7764   22462530.0474
 98  4 21  4 53 30.0000000  0  9 17 23  3 21  9  8  1 31 29
  23491244.927    13128102.00749  10227877.17749  23491244.8704   23491249.0924
  22368948.322     7184633.10249   5591929.31349  22368948.0894   22368951.9304
  21894271.199   -11002731.80049  -8559958.05749  21894270.9824   21894274.9844
  20972186.948    -9786283.38249  -7617575.53149  20972186.3974   20972190.1444
  23858234.341    -9985183.91149  -7771693.44949  23858234.2784   23858236.8904
  22579316.660   -18617709.91549 -14499294.20249  22579315.8154   22579319.2594
  20485276.594   -25703524.16649 -20016952.07449  20485275.8994   20485279.8174
  22961106.806   -12070299.42549  -9393753.27149  22961106.1874   22961110.4684
  22445173.820   -15954574.62149 -12139074.55249  22445173.6204   22445177.6504
 98  4 21  4 54  0.0000000  0  9 17 23  3 21  9  8  1 31 29
  23507515.269    13213603.28249  10294501.52749  23507513.5274   23507520.2424
  22376592.288     7224802.14749   5623229.85849  22376591.1484   22376595.6614
  21902002.974   -10962101.12749  -8528297.79749  21902002.7494   21902006.7374
  20970719.890    -9793992.67749  -7623582.77049  20970719.0334   20970723.2064
  23863172.599    -9959233.13949  -7751472.09149  23863172.8494   23863175.0404
  22570095.990   -18666164.79149 -14537051.23749  22570094.7094   22570098.9694
  20478776.563   -25737681.91749 -20043568.48849  20478775.9784   20478779.8124
  22955220.877   -12101230.53049  -9417855.40849  22955220.1224   22955223.8134
  22427873.517   -16045488.29449 -12209916.34249  22427873.0474   22427877.1554
 98  4 21  4 54 30.0000000  0  9 17 23  3 21  9  8  1 31 29
  23523824.840    13299310.97349  10361286.71449  23523823.9164   23523829.0774
  22384242.862     7265006.20649   5654557.68349  22384241.9424   22384246.5094
  21909821.182   -10921016.29549  -8496283.64549  21909820.8874   21909824.6874
  20969279.307    -9801562.94549  -7629481.66949  20969278.7704   20969282.5984
  23868207.605    -9932774.91449  -7730855.29349  23868207.9234   23868211.4064
  22560960.877   -18714169.62649 -14574457.56049  22560959.6734   22560964.8614
  20472368.947   -25771354.11349 -20069806.54849  20472368.2744   20472372.1524
  22949434.796   -12131637.76849  -9441549.34049  22949434.8174   22949437.8324
  22410625.125   -16136129.35549 -12280545.71749  22410624.5774   22410628.1034
 98  4 21  4 55  0.0000000  0  9 17 23  3 21  9  8  1 31 29
  23540182.684    13385271.64649  10428269.03449  23540181.2224   23540186.9444
  22391909.119     7305292.62249   5685949.69049  22391908.5344   22391912.2754
  21917732.162   -10879443.67849  -8463889.40549  21917731.5104   21917736.1984
  20967875.748    -9808938.81449  -7635229.08749  20967874.9324   20967878.8684
  23873348.021    -9905762.68649  -7709806.81649  23873348.7054   23873351.4374
  22551919.404   -18761682.42049 -14611480.46949  22551918.5324   22551922.9124
  20466061.223   -25804501.30049 -20095635.50849  20466060.5814   20466064.3954
  22943755.324   -12161483.53249  -9464805.76449  22943755.0394   22943758.9734
  22393435.543   -16226461.16149 -12350934.11549  22393435.1674   22393439.1854
 98  4 21  4 55 30.0000000  0  9 17 23  3 21  9  8  1 31 29
  23556593.004    13471508.42049  10495466.46549  23556592.5504   23556597.3874
  22399595.875     7345686.44749   5717425.40049  22399594.4334   22399598.9154
  21925739.589   -10837364.35149  -8431100.32949  21925739.3274   21925742.8734
  20966512.192    -9816104.22649  -7640812.51849  20966511.3864   20966515.3914
  23878597.431    -9878176.92049  -7688311.40849  23878595.8824   23878601.1054
  22542976.779   -18808676.63649 -14648099.29549  22542975.8434   22542980.8744
  20459856.636   -25837106.58749 -20121042.22049  20459855.8964   20459859.8244
  22938185.773   -12190752.07549  -9487612.41749  22938185.1954   22938189.0944
  22376311.305   -16316449.42749 -12421054.81549  22376310.6624   22376314.5974
 98  4 21  4 56  0.0000000  0  9 17 23  3 21  9  8  1 31 29
  23573052.504    13558003.39649  10562865.13349  23573051.4564   23573056.6664
  22407298.732     7386165.71949   5748967.68949  22407298.0804   22407301.9024
  21933838.819   -10794802.49849  -8397935.25449  21933838.7894   21933842.6694
  20965185.126    -9823077.94249  -7646246.57749  20965184.5054   20965188.3334
  23883952.695    -9850034.21549  -7666382.02449  23883951.7944   23883956.6534
  22534130.021   -18855166.72049 -14684325.29249  22534129.9264   22534132.9654
  20453751.963   -25869186.84749 -20146039.81249  20453751.3434   20453755.1504
  22932725.541   -12219446.50749  -9509971.69849  22932723.7864   22932727.8934
  22359250.754   -16406103.16049 -12490914.84849  22359250.2834   22359253.7054
 98  4 21  4 56 30.0000000  0  9 17 23  3 21  9  8  1 31 29
  23589558.701    13644744.00349  10630455.18249  23589558.3894   23589562.2584
  22415014.195     7426710.47449   5780561.00649  22415012.8504   22415018.3544
  21942024.445   -10751786.98649  -8364416.67949  21942024.0234   21942028.0124
  20963889.586    -9829885.93449  -7651551.49749  20963888.7724   20963892.8824
  23889409.199    -9821359.63449  -7644038.18649  23889408.2574   23889412.9124
  22525377.475   -18901161.61949 -14720165.44449  22525376.4664   22525379.8854
  20447738.812   -25900786.11649 -20170662.60649  20447738.1954   20447741.8754
  22927374.265   -12247567.52949  -9531884.17949  22927373.6004   22927377.0254
  22342246.756   -16495459.54249 -12560543.17549  22342246.5054   22342250.1804
 98  4 21  4 57  0.0000000  0  9 17 23  3 21  9  8  1 31 29
  23606114.810    13731746.50249  10698249.29649  23606114.2174   23606119.0784
  22422738.034     7467299.67549   5812188.94749  22422737.2424   22422741.1164
  21950293.256   -10708333.90249  -8330557.14549  21950292.9284   21950296.8454
  20962621.905    -9836547.41349  -7656742.25349  20962621.3094   20962625.2374
  23894963.617    -9792170.79649  -7621293.63449  23894963.3214   23894966.8274
  22516720.343   -18946654.92349 -14755614.73849  22516719.4204   22516723.4874
  20441813.358   -25931924.47049 -20194926.24749  20441812.7084   20441816.4564
  22922129.364   -12275129.88049  -9553361.31749  22922128.1914   22922132.3764
  22325297.712   -16584527.40949 -12629946.68449  22325297.5884   22325300.6614
 98  4 21  4 57 30.0000000  0  9 17 23  3 21  9  8  1 31 29
  23622731.938    13819069.87149  10766293.44849  23622731.2634   23622736.3624
  22430480.403     7507986.31349   5843892.81749  22430479.2624   22430483.3974
  21958653.752   -10664399.32849  -8296322.41849  21958653.2414   21958657.6464
  20961388.293    -9843030.11349  -7661793.70149  20961387.5134   20961391.3724
  23900623.769    -9762426.93949  -7598116.60049  23900624.8124   23900628.0264
  22508168.053   -18991597.41849 -14790634.83849  22508166.4914   22508171.8154
  20435986.225   -25962546.12449 -20218787.25849  20435985.7014   20435989.4174
  22917000.165   -12302083.39649  -9574364.04449  22916999.0424   22917002.4654
  22308414.962   -16673246.85349 -12699078.69849  22308415.1064   22308417.7834
 98  4 21  4 58  0.0000000  0  9 17 23  3 21  9  8  1 31 29
  23639393.121    13906625.06149  10834518.22849  23639391.9004   23639398.0724
  22438224.907     7548683.74549   5875605.11249  22438224.2814   22438227.7014
  21967086.503   -10620084.95049  -8261791.74249  21967085.9834   21967090.4664
  20960171.091    -9849426.30749  -7666777.74149  20960170.4464   20960174.4094
  23906371.633    -9732222.49749  -7574580.67149  23906372.1634   23906374.8774
  22499700.801   -19036092.77849 -14825306.52249  22499700.0224   22499704.2674
  20430240.640   -25992739.41349 -20242314.48449  20430239.9394   20430243.8294
  22911967.465   -12328530.98049  -9594972.53949  22911966.4564   22911970.1934
  22291579.308   -16761718.95549 -12768017.98049  22291579.1514   22291582.6254
 98  4 21  4 58 30.0000000  0  9 17 23  3 21  9  8  1 31 29
  23656133.260    13994594.81249  10903066.04549  23656131.7114   23656137.1294
  22446008.550     7589587.21749   5907477.93949  22446008.3624   22446011.9724
  21975629.260   -10575192.46449  -8226810.58649  21975628.7194   21975632.8634
  20959006.132    -9855548.30549  -7671548.12049  20959005.6924   20959009.5074
  23912242.381    -9701371.67549  -7550541.05449  23912241.5904   23912246.9534
  22491350.876   -19079971.03749 -14859497.33249  22491349.9024   22491353.3264
  20424613.469   -26022310.51949 -20265356.89549  20424612.8954   20424616.5774
  22907062.752   -12354305.53449  -9615056.58949  22907061.6714   22907065.5064
  22274825.420   -16849760.94249 -12836622.09949  22274825.1594   22274828.7414
 98  4 21  4 59  0.0000000  0  9 17 23  3 21  9  8  1 31 29
  23672935.339    14082890.40649  10971867.75749  23672934.8384   23672939.8294
  22453819.024     7630631.31049   5939460.34549  22453817.7454   22453821.8204
  21984270.063   -10529784.92349  -8191428.09449  21984269.2774   21984274.0344
  20957880.962    -9861461.23749  -7676155.59449  20957880.2114   20957883.8134
  23918222.126    -9669947.45049  -7526054.65149  23918221.7904   23918226.8084
  22483104.194   -19123307.26649 -14893265.80749  22483103.1224   22483108.3774
  20419094.817   -26051311.18849 -20287954.81149  20419094.1954   20419097.9294
  22902270.205   -12379490.73949  -9634681.41149  22902269.6394   22902272.9164
  22258141.791   -16937433.85249 -12904938.63549  22258141.6494   22258144.9444
 98  4 21  4 59 30.0000000  0  9 17 23  3 21  9  8  1 31 29
  23689791.837    14171472.00949  11040892.35549  23689790.7894   23689796.0434
  22461657.878     7671824.74149   5971559.13049  22461657.2284   22461661.3974
  21993007.560   -10483868.80549  -8155649.30949  21993006.9084   21993011.6304
  20956797.379    -9867155.41349  -7680592.60849  20956796.5224   20956800.5124
  23924310.156    -9637954.82349  -7501125.31749  23924310.2454   23924313.7764
  22474960.958   -19166099.84149 -14926610.63349  22474959.3194   22474964.1644
  20413685.716   -26079736.04249 -20310104.03749  20413685.0104   20413688.9234
  22897589.122   -12404090.13049  -9653849.73749  22897587.6904   22897591.3894
  22241528.101   -17024739.28249 -12972968.81349  22241528.2304   22241531.6074
 98  4 21  5  0  0.0000000  0  9 17 23  3 21  9  8  1 31 29
  23706697.294    14260310.20749  11110116.88249  23706697.1354   23706701.8784
  22469521.292     7713147.60449   6003758.74649  22469520.6054   22469524.2994
  22001840.820   -10437449.65749  -8119478.54549  22001840.1734   22001844.0504
  20955754.618    -9872635.09949  -7684862.49049  20955753.8734   20955757.7284
  23930504.565    -9605403.66249  -7475760.76449  23930504.2874   23930507.8464
  22466920.668   -19208351.86349 -14959534.27649  22466919.7254   22466923.7444
  20408384.400   -26107594.70549 -20331812.07949  20408383.6904   20408387.5584
  22893019.357   -12428104.30449  -9672562.07649  22893018.6134   22893022.4844
  22224980.851   -17111695.49049 -13040726.87449  22224980.3764   22224983.8054
 98  4 21  5  0 30.0000000  0  9 17 23  3 21  9  8  1 31 29
  23723639.928    14349344.30649  11179494.06849  23723639.6364   23723645.3184
  22477398.219     7754540.91949   6036013.28549  22477397.3224   22477401.4134
  22010759.846   -10390579.68449  -8082956.50149  22010759.0594   22010763.7054
  20954742.948    -9877951.57049  -7689005.18849  20954742.2844   20954746.2904
  23936796.294    -9572340.22449  -7449997.03049  23936794.9824   23936800.3684
  22458977.672   -19250092.39949 -14992059.34349  22458976.6944   22458981.3564
  20403181.475   -26134936.28649 -20353117.19949  20403180.7324   20403184.6124
  22888555.483   -12451562.71449  -9690841.35249  22888554.7034   22888557.7994
  22208491.503   -17198347.39849 -13108247.82549  22208490.9224   22208494.6604
 98  4 21  5  1  0.0000000  0  9 17 23  3 21  9  8  1 31 29
  23740624.818    14438600.13549  11249044.03149  23740624.0784   23740629.3694
  22485294.284     7796035.10149   6068346.41049  22485293.5854   22485297.6194
  22019768.166   -10343240.72549  -8046069.00249  22019767.4624   22019771.6774
  20953766.562    -9883082.67949  -7693003.44849  20953766.0404   20953769.6794
  23943191.395    -9538733.21249  -7423809.74749  23943191.2344   23943194.4384
  22451139.867   -19291280.02249 -15024153.56649  22451138.8604   22451143.0314
  20398080.498   -26161742.10449 -20374004.83549  20398079.7334   20398083.5834
  22884204.470   -12474427.77649  -9708658.26849  22884203.5464   22884207.5044
  22192067.581   -17284655.59549 -13175500.93349  22192067.5714   22192070.9214
 98  4 21  5  1 30.0000000  0 10 17 23 25  3 21  9  8  1 31 29
  23757661.808    14528129.60549  11318807.22349  23757661.2234   23757666.5454
  22493214.442     7837655.56049   6100777.94249  22493213.1734   22493217.5664
  24806665.512    -3829988.60149  -2944751.05549  24806664.2944   24806669.3494
  22028873.289   -10295392.90249  -8008784.99149  22028872.9094   22028877.3334
  20952830.056    -9888004.16649  -7696838.36749  20952829.2484   20952833.2374
  23949698.862    -9504536.50049  -7397162.95249  23949698.6794   23949702.0064
  22443412.126   -19331889.29749 -15055797.12949  22443411.0204   22443416.2294
  20393087.129   -26187982.18149 -20394451.63949  20393086.4804   20393090.3684
  22879973.770   -12496660.99049  -9725982.83849  22879972.8144   22879975.8374
  22175716.358   -17370581.68549 -13242456.30449  22175716.0214   22175719.9434
 98  4 21  5  2  0.0000000  0 10 17 23 25  3 21  9  8  1 31 29
  23774757.599    14617968.32649  11388811.37849  23774756.9784   23774762.5184
  22501158.521     7879402.02649   6133307.63649  22501158.0924   22501162.4834
  24787020.198    -3933225.21349  -3025195.02149  24787019.4044   24787024.3964
  22038078.644   -10247018.59649  -7971090.73749  22038078.4864   22038082.5524
  20951932.704    -9892719.68249  -7700512.79349  20951932.0594   20951936.0244
  23956319.770    -9469743.92949  -7370051.87149  23956319.8054   23956323.2494
  22435792.382   -19371931.04049 -15086998.46549  22435791.7354   22435796.0594
  20388201.125   -26213658.19249 -20414458.91549  20388200.4034   20388204.3544
  22875865.833   -12518248.58049  -9742804.32849  22875864.5194   22875867.6624
  22159438.767   -17456121.13349 -13309110.40849  22159438.3104   22159441.8664
 98  4 21  5  2 30.0000000  0 10 17 23 25  3 21  9  8  1 31 29
  23791906.903    14708088.10749  11459034.56549  23791905.7964   23791911.7394
  22509122.770     7921254.76749   6165920.16649  22509122.5894   22509125.6694
  24767361.071    -4036533.57549  -3105694.92249  24767359.8244   24767364.9374
  22047377.276   -10198154.08849  -7933014.49649  22047377.2084   22047380.7614
  20951069.755    -9897254.48149  -7704046.39649  20951068.9874   20951073.0894
  23963048.797    -9434381.92549  -7342497.06649  23963047.9574   23963052.3904
  22428272.296   -19411449.25349 -15117791.86049  22428270.9614   22428275.7284
  20383414.125   -26238813.91149 -20434060.76349  20383413.4074   20383417.3044
  22871872.601   -12539232.05049  -9759155.06249  22871870.9834   22871875.1544
  22143229.895   -17541299.15249 -13375482.86649  22143229.6714   22143233.2814
 98  4 21  5  3  0.0000000  0 10 17 23 25  3 21  9  8  1 31 29
  23809105.438    14798467.17649  11529459.78149  23809104.3204   23809110.2634
  22517103.922     7963195.88849   6198601.55349  22517102.3744   22517107.6244
  24747684.743    -4139933.31949  -3186266.02349  24747684.6844   24747689.2914
  22056763.292   -10148830.28949  -7894580.37649  22056762.9914   22056766.8904
  20950236.087    -9901635.39449  -7707460.08749  20950235.3544   20950239.4324
  23969879.218    -9398487.86249  -7314527.66149  23969878.6084   23969881.8774
  22420844.593   -19450482.20749 -15148207.13349  22420843.6334   22420848.2234
  20378721.208   -26263475.23949 -20453277.36849  20378720.6654   20378724.3854
  22867988.526   -12559641.44349  -9775058.48649  22867987.4724   22867991.8554
  22127084.738   -17626142.33949 -13441594.41549  22127084.6484   22127087.8914
 98  4 21  5  3 30.0000000  0 10 17 23 25  3 21  9  8  1 31 29
  23826355.914    14889118.78349  11600097.37249  23826355.0684   23826360.3454
  22525103.546     8005234.31149   6231358.77449  22525103.5354   22525106.5034
  24727997.488    -4243390.40849  -3266881.81349  24727996.8944   24728000.9514
  22066237.688   -10099042.07649  -7855784.36949  22066237.1524   22066241.2774
  20949436.545    -9905837.00849  -7710734.07049  20949435.7774   20949439.7324
  23976811.686    -9362056.95149  -7286139.94749  23976811.4294   23976814.8894
  22413514.339   -19489002.98849 -15178223.29849  22413513.4384   22413517.7554
  20374126.281   -26287621.82649 -20472092.87949  20374125.7464   20374129.4894
  22864218.369   -12579452.92449  -9790495.99149  22864217.7614   22864221.1344
  22111005.863   -17710637.04249 -13507434.42049  22111004.8904   22111008.4394
 98  4 21  5  4  0.0000000  0 10 17 23 25  3 21  9  8  1 31 29
  23843649.538    14979997.30749  11670911.77849  23843649.6754   23843655.5624
  22533118.791     8047354.86849   6264179.98949  22533118.3074   22533123.1454
  24708295.887    -4346923.04949  -3347556.46149  24708295.3734   24708299.4764
  22075789.977   -10048844.30549  -7816669.23149  22075789.5594   22075793.5104
  20948667.125    -9909880.23449  -7713884.63249  20948666.4204   20948670.4504
  23983841.043    -9325117.70349  -7257356.11349  23983840.7534   23983846.3804
  22406279.515   -19527022.20149 -15207848.64549  22406278.6664   22406282.5574
  20369622.497   -26311289.38149 -20490535.11649  20369621.9044   20369625.5884
  22860557.099   -12598691.62049  -9805487.16949  22860556.0664   22860560.2694
  22094988.286   -17794809.70149 -13573023.48349  22094988.0284   22094991.2794
 98  4 21  5  4 30.0000000  0 10 17 23 25  3 21  9  8  1 31 29
  23860989.579    15071119.59149  11741916.10749  23860988.7414   23860994.0754
  22541155.585     8089588.53249   6297089.33849  22541155.0834   22541158.3534
  24688587.631    -4450490.15349  -3428257.97949  24688587.3774   24688591.2694
  22085422.551    -9998224.81149  -7777225.47649  22085422.4904   22085426.1954
  20947933.529    -9913735.26849  -7716888.54349  20947932.7984   20947936.3764
  23990973.707    -9287634.36849  -7228148.31749  23990971.7064   23990978.3804
  22399149.734   -19564489.68849 -15237044.05249  22399149.2724   22399153.1474
  20365218.042   -26334434.95049 -20508570.61149  20365217.4734   20365221.0954
  22857011.638   -12617322.60149  -9820004.80149  22857011.1104   22857014.5084
  22079042.204   -17878606.89849 -13638319.97749  22079042.0374   22079045.7334
 98  4 21  5  5  0.0000000  0 10 17 23 25  3 21  9  8  1 31 29
  23878371.236    15162460.69049  11813090.97249  23878370.7684   23878376.2624
  22549206.822     8131898.15249   6330057.86749  22549206.1894   22549210.6434
  24668868.655    -4554113.48449  -3509003.31649  24668867.6284   24668872.9544
  22095129.969    -9947211.99649  -7737475.23149  22095129.4104   22095133.3414
  20947230.054    -9917432.05349  -7719769.15549  20947229.1254   20947233.0204
  23998203.839    -9249638.34149  -7198541.02449  23998204.0494   23998208.4394
  22392122.756   -19601416.82649 -15265818.42349  22392122.0764   22392126.6584
  20360909.658   -26357075.56749 -20526212.64249  20360909.0064   20360912.7734
  22853579.341   -12635358.89649  -9834059.05849  22853578.7574   22853582.6384
  22063164.027   -17962047.29249 -13703338.44749  22063163.9494   22063167.4274
 98  4 21  5  5 30.0000000  0 10 17 23 25  3 21  9  8  1 31 29
  23895796.197    15254029.50049  11884443.26149  23895795.4254   23895801.8774
  22557274.819     8174295.53249   6363094.77649  22557274.5644   22557277.7334
  24649141.209    -4657781.42249  -3589783.42249  24649140.3554   24649145.1824
  22104916.164    -9895785.01849  -7697402.26649  22104916.1954   22104920.2804
  20946561.678    -9920944.37249  -7722506.02049  20946561.0684   20946564.7094
  24005536.728    -9211104.03449  -7168514.26949  24005536.3434   24005540.6024
  22385202.024   -19637785.78649 -15294157.85249  22385201.4874   22385205.4134
  20356698.501   -26379205.17749 -20543456.47849  20356697.7614   20356701.5074
  22850261.774   -12652792.08349  -9847643.34849  22850261.7634   22850265.4564
  22047357.982   -18045108.42049 -13768061.37849  22047357.6024   22047361.2264
 98  4 21  5  6  0.0000000  0 10 17 23 25  3 21  9  8  1 31 29
  23913266.851    15345838.23649  11955982.49749  23913265.6514   23913271.8154
  22565362.101     8216794.59049   6396210.92949  22565361.6154   22565365.1404
  24629406.095    -4761490.02049  -3670595.22049  24629405.2884   24629410.1774
  22114784.111    -9843928.92149  -7656994.92549  22114783.8044   22114787.7654
  20945929.491    -9924266.35549  -7725094.58049  20945928.7454   20945932.7854
  24012973.461    -9172024.00749  -7138062.31249  24012973.9544   24012978.2764
  22378386.985   -19673598.97049 -15322064.21349  22378385.6464   22378389.8144
  20352587.798   -26400806.99049 -20560289.04849  20352586.9774   20352590.7104
  22847058.591   -12669625.37549  -9860760.19349  22847058.8404   22847062.2024
  22031625.842   -18127781.39849 -13832481.86449  22031625.6334   22031628.8704
 98  4 21  5  6 30.0000000  0 10 17 23 25  3 21  9  8  1 31 29
  23930786.040    15437902.34149  12027720.71649  23930785.1624   23930791.1164
  22573469.997     8259401.81749   6429411.36249  22573469.3224   22573473.5454
  24609663.513    -4865237.71549  -3751437.51349  24609662.8154   24609666.4694
  22124737.935    -9791621.18949  -7616235.65849  22124737.6634   22124742.1164
  20945335.514    -9927387.60349  -7727526.71849  20945335.0064   20945338.7934
  24020510.965    -9132414.84449  -7107198.04949  24020510.6174   24020515.7254
  22371678.903   -19708849.76249 -15349532.32849  22371677.8504   22371681.6894
  20348580.043   -26421867.72749 -20576699.99849  20348579.4424   20348583.3174
  22843970.821   -12685852.57849  -9873404.76149  22843970.5884   22843974.4904
  22015968.646   -18210060.72649 -13896595.60349  22015968.2824   22015971.8224
 98  4 21  5  7  0.0000000  0 10 17 23 25  3 21  9  8  1 31 29
  23948357.161    15530239.77849  12099671.91749  23948356.5084   23948361.7504
  22581602.615     8302139.18849   6462713.20749  22581602.6024   22581604.9344
  24589915.064    -4969016.00349  -3832303.63849  24589914.7964   24589918.2534
  22134781.554    -9738841.89549  -7575108.93549  22134781.1604   22134785.8304
  20944784.381    -9930283.94149  -7729783.59849  20944783.8084   20944787.5964
  24028151.157    -9092266.24149  -7075913.44049  24028150.2284   24028155.0054
  22365081.567   -19743519.08449 -15376547.37349  22365080.2874   22365085.1194
  20344674.357   -26442392.01649 -20592692.94249  20344673.6264   20344677.4724
  22840996.032   -12701485.82349  -9885586.49849  22840995.6584   22840998.9574
  22000385.228   -18291952.04349 -13960406.99849  22000384.6814   22000388.1934
 98  4 21  5  7 30.0000000  0 10 17 23 25  3 21  9  8  1 31 29
  23965979.847    15622847.35049  12171833.62149  23965979.0584   23965985.9054
  22589760.733     8345010.13249   6496119.13049  22589759.9854   22589764.4564
  24570158.421    -5072837.89149  -3913203.74349  24570157.7244   24570162.1794
  22144914.529    -9685592.91749  -7533616.23649  22144914.0554   22144918.2544
  20944274.598    -9932963.15149  -7731871.28949  20944273.8314   20944277.7104
  24035893.582    -9051579.89249  -7044209.76549  24035894.2874   24035898.4634
  22358594.193   -19777610.55649 -15403112.13949  22358593.2284   22358597.1844
  20340870.213   -26462382.85449 -20608270.21149  20340869.5294   20340873.3794
  22838129.871   -12716547.12549  -9897322.57549  22838128.7724   22838132.8194
  21984870.871   -18373480.38549 -14023935.56549  21984870.5714   21984873.9734
 98  4 21  5  8  0.0000000  0 10 17 23 25  3 21  9  8  1 31 29
  23983658.079    15715747.29249  12244223.12749  23983657.3404   23983663.3474
  22597947.271     8388030.54349   6529641.53049  22597946.9274   22597950.7074
  24550395.802    -5176690.41749  -3994127.72049  24550394.8354   24550398.8474
  22155138.537    -9631865.15149  -7491750.45349  22155138.2074   22155141.6384
  20943805.933    -9935425.94349  -7733790.34549  20943805.1954   20943809.0274
  24043742.157    -9010335.23049  -7012071.06049  24043741.7744   24043746.4834
  22352221.277   -19811100.42749 -15429208.09849  22352220.4504   22352224.8114
  20337172.320   -26481815.45749 -20623412.49349  20337171.6194   20337175.5154
  22835375.146   -12731023.07849  -9908602.53049  22835374.7594   22835377.1494
  21969426.216   -18454642.67349 -14087178.88649  21969425.8934   21969429.3944
 98  4 21  5  8 30.0000000  0 10 17 23 25  3 21  9  8  1 31 29
  24001393.049    15808945.32449  12316844.93049  24001392.4324   24001399.5624
  22606163.071     8431204.91149   6563283.88449  22606161.8104   22606166.2164
  24530631.682    -5280550.78949  -4075057.82849  24530631.3474   24530635.1564
  22165456.017    -9577646.42249  -7449502.09549  22165456.0744   22165459.6404
  20943380.192    -9937663.30449  -7735533.73049  20943379.3404   20943383.1494
  24051702.838    -8968501.80749  -6979473.57649  24051701.8334   24051707.4864
  22345967.201   -19843965.67049 -15454817.35549  22345966.3294   22345970.4744
  20333582.018   -26500682.56349 -20638114.11849  20333581.5444   20333585.2604
  22832734.605   -12744899.58149  -9919415.38049  22832733.8274   22832737.7844
  21954054.250   -18535422.45149 -14150124.14249  21954054.2454   21954057.6804
 98  4 21  5  9  0.0000000  0 10 17 23 25  3 21  9  8  1 31 29
  24019172.043    15902374.95749  12389647.20649  24019171.3844   24019176.8834
  22614394.721     8474462.39249   6596991.01149  22614394.1714   22614398.1204
  24510857.081    -5384466.91249  -4156031.35949  24510856.2574   24510860.7464
  22175854.242    -9523003.67049  -7406923.33349  22175854.3164   22175858.4624
  20942984.748    -9939741.32349  -7737152.95549  20942984.0944   20942987.9844
  24059765.630    -8926130.92849  -6946457.29749  24059764.6024   24059768.0824
  22339820.028   -19876269.17149 -15479988.90249  22339819.7154   22339823.6164
  20330088.856   -26519039.27849 -20652418.04149  20330088.2734   20330092.1314
  22830197.131   -12758236.11349  -9929807.46349  22830195.8444   22830200.0274
  21938741.230   -18615892.93349 -14212828.39849  21938741.2064   21938744.4484
 98  4 21  5  9 30.0000000  0 10 17 23 25  3 21  9  8  1 31 29
  24036991.863    15996018.30749  12462616.00949  24036991.7674   24036996.6114
  22622639.593     8517789.51649   6630752.40049  22622639.1834   22622642.7314
  24491073.978    -5488427.79649  -4237039.77049  24491072.3534   24491076.5184
  22186329.770    -9467954.45349  -7364027.84849  22186329.4244   22186333.3154
  20942616.714    -9941675.26149  -7738659.91149  20942616.0094   20942619.7424
  24067927.738    -8883238.94249  -6913034.96549  24067928.2504   24067929.7534
  22333775.691   -19908032.35549 -15504739.41049  22333774.6104   22333778.6234
  20326693.987   -26536879.34349 -20666319.37649  20326693.3034   20326697.2874
  22827765.969   -12771011.01549  -9939761.92549  22827765.5174   22827768.9224
  21923485.858   -18696060.63349 -14275296.71649  21923484.7374   21923488.7644
 98  4 21  5 10  0.0000000  0 10 17 23 25  3 21  9  8  1 31 29
  24054855.979    16089894.21949  12535766.04249  24054854.0314   24054861.0944
  22630903.246     8561215.19049   6664590.58249  22630902.4824   22630906.6464
  24471289.755    -5592393.47349  -4318051.92249  24471287.6404   24471293.8354
  22196885.792    -9412482.07949  -7320802.62849  22196884.8764   22196889.4174
  20942283.652    -9943425.46349  -7740023.69849  20942282.9394   20942286.6384
  24076190.661    -8839817.81649  -6879200.30949  24076189.9914   24076193.8204
  22327841.020   -19939219.06549 -15529040.72649  22327840.3984   22327844.2714
  20323402.412   -26554176.79149 -20679797.90049  20323401.6124   20323405.6384
  22825449.827   -12783180.88749  -9949244.94849  22825449.3504   22825453.7834
  21908297.237   -18775877.04349 -14337491.30849  21908296.6524   21908300.6044
 98  4 21  5 10 30.0000000  0 10 17 23 25  3 21  9  8  1 31 29
  24072761.933    16183990.08849  12609087.45549  24072762.0744   24072766.3724
  22639184.175     8604732.24649   6698499.98249  22639183.4994   22639187.6314
  24451504.489    -5696364.01449  -4399067.88349  24451503.5564   24451508.0064
  22207520.869    -9356593.84149  -7277253.35349  22207520.5534   22207524.7674
  20941987.139    -9944983.54149  -7741237.78749  20941986.5344   20941990.1244
  24084549.261    -8795891.87349  -6844972.33449  24084547.9644   24084553.8274
  22322014.301   -19969839.17049 -15552900.51849  22322013.3324   22322017.8774
  20320211.035   -26570947.45349 -20692865.93649  20320210.2914   20320213.9754
  22823249.379   -12794744.84249  -9958255.80749  22823248.9944   22823252.4324
  21893175.801   -18855340.74049 -14399411.04749  21893175.2704   21893178.8574
 98  4 21  5 11  0.0000000  0 10 17 23 25  3 21  9  8  1 31 29
  24090708.386    16278299.43749  12682575.21549  24090707.6504   24090712.7224
  22647481.256     8648333.46249   6732474.93949  22647480.4664   22647484.3204
  24431714.579    -5800360.40649  -4480103.98349  24431712.9974   24431717.5504
  22218231.657    -9300308.59749  -7233394.73049  22218231.3884   22218235.5844
  20941724.985    -9946361.15449  -7742311.24549  20941724.1864   20941727.9304
  24092999.335    -8751485.24549  -6810369.75949  24092999.0544   24093002.2474
  22316291.213   -19999914.03349 -15576335.45749  22316290.0544   22316293.7294
  20317116.375   -26587209.65949 -20705537.77149  20317115.6834   20317119.5604
  22821163.187   -12805709.51849  -9966799.69049  22821161.9884   22821165.4084
  21878118.071   -18934469.48449 -14461069.79449  21878117.8344   21878121.3614
 98  4 21  5 11 30.0000000  0 10 17 23 25  3 21  9  8  1 31 29
  24108700.088    16372846.53049  12756248.26249  24108699.4854   24108704.0654
  22655800.644     8692052.44749   6766541.67949  22655799.7364   22655804.3854
  24411924.046    -5904360.10149  -4561142.64749  24411923.5474   24411928.8264
  22229022.400    -9243602.73849  -7189208.35349  22229021.9084   22229025.8744
  20941503.454    -9947525.22349  -7743218.30549  20941502.5794   20941506.5544
  24101548.255    -8706560.34849  -6775363.34949  24101547.5164   24101551.8244
  22310676.615   -20029419.00049 -15599326.30649  22310675.5114   22310679.4094
  20314122.482   -26602942.51249 -20717797.12949  20314121.8064   20314125.5224
  22819193.675   -12816058.50349  -9974863.82449  22819192.7724   22819197.1184
  21863133.479   -19013213.79749 -14522428.97849  21863132.9184   21863136.4004
 98  4 21  5 12  0.0000000  0 10 17 23 25  3 21  9  8  1 31 29
  24126733.408    16467612.09449  12830091.51349  24126732.7804   24126738.1234
  22664136.544     8735857.56649   6800675.53349  22664135.8554   22664140.3044
  24392125.195    -6008404.28749  -4642216.00249  24392125.0134   24392129.1414
  22239887.741    -9186504.90049  -7144716.53749  22239887.1664   22239891.3904
  20941316.090    -9948509.76049  -7743985.47049  20941315.1794   20941319.2174
  24110190.198    -8661146.41349  -6739975.87049  24110189.9934   24110193.1864
  22305165.801   -20058378.19249 -15621891.88449  22305164.0064   22305168.3104
  20311222.506   -26618181.73849 -20729671.84549  20311221.8244   20311225.6374
  22817330.402   -12825848.35949  -9982492.28949  22817329.6514   22817333.7994
  21848217.289   -19091598.57649 -14583508.01049  21848216.9244   21848220.4074
 98  4 21  5 12 30.0000000  0 10 17 23 25  3 21  9  8  1 31 29
  24144811.429    16562612.18349  12904117.53349  24144811.1654   24144815.3034
  22672488.835     8779749.21649   6834876.82849  22672488.1634   22672491.7994
  24372318.347    -6112489.70649  -4723321.47149  24372317.8754   24372322.0974
  22250828.240    -9129012.19649  -7099917.03349  22250828.0324   22250832.4124
  20941161.695    -9949320.83849  -7744617.47949  20941161.0564   20941164.7914
  24118928.964    -8615223.50449  -6704191.77549  24118928.0744   24118932.9054
  22299756.658   -20086802.85049 -15644040.93249  22299755.4214   22299759.5114
  20308416.407   -26632927.95749 -20741162.39449  20308415.7064   20308419.5764
  22815573.982   -12835079.47649  -9989685.35749  22815572.8684   22815577.1944
  21833370.447   -19169619.21649 -14644303.29449  21833370.1524   21833373.1424
 98  4 21  5 13  0.0000000  0 10 17 23 25  3 21  9  8  1 31 29
  24162944.920    16657903.77749  12978370.70449  24162944.8914   24162950.8134
  22680870.613     8823795.51949   6869198.61549  22680870.0304   22680873.8974
  24352515.681    -6216553.79849  -4804410.31549  24352514.7254   24352519.3424
  22261854.278    -9071070.08749  -7054767.35149  22261853.7994   22261857.8714
  20941052.262    -9949895.91349  -7745065.58849  20941051.7224   20941055.5554
  24127776.105    -8568731.01449  -6667963.87049  24127776.2984   24127778.9844
  22294461.406   -20114629.52949 -15665724.02649  22294460.3064   22294464.6364
  20305717.201   -26647112.29149 -20752215.11149  20305716.5254   20305720.4874
  22813934.512   -12843695.24149  -9996398.92949  22813933.3034   22813937.7644
  21818606.317   -19247205.24949 -14704759.92649  21818605.8234   21818609.6534
 98  4 21  5 13 30.0000000  0 10 17 23 25  3 21  9  8  1 31 29
  24181128.631    16753459.42449  13052829.62549  24181127.1244   24181133.6284
  22689276.530     8867968.95949   6903619.47049  22689275.7614   22689279.3624
  24332714.726    -6320608.59049  -4885491.90049  24332714.3024   24332718.8094
  22272961.442    -9012701.91949  -7009285.66849  22272961.3204   22272965.4434
  20940984.189    -9950253.50849  -7745344.22649  20940983.5494   20940987.4484
  24136727.037    -8521694.13649  -6631311.74149  24136727.2314   24136731.5314
  22289279.128   -20141862.69249 -15686944.65549  22289278.0944   22289281.8454
  20303120.354   -26660758.90149 -20762848.82549  20303119.6934   20303123.5914
  22812406.851   -12851721.20249 -10002652.92849  22812406.5504   22812410.0234
  21803921.739   -19324373.15049 -14764890.74249  21803921.2394   21803924.9744
 98  4 21  5 14  0.0000000  0 10 17 23 25  3 21  9  8  1 31 29
  24199354.147    16849235.41649  13127460.24649  24199353.2164   24199359.3934
  22697698.892     8912228.70349   6938107.58049  22697698.1314   22697702.9474
  24312908.217    -6424692.04949  -4966595.82849  24312907.7944   24312912.1704
  22284143.196    -8953941.59349  -6963498.40849  22284143.0094   22284146.9224
  20940949.733    -9950434.50249  -7745485.25949  20940948.9234   20940952.9114
  24145773.154    -8474156.80949  -6594269.66549  24145772.7794   24145776.4874
  22284203.031   -20168537.71249 -15707730.38949  22284201.9484   22284206.1204
  20300618.681   -26673905.35549 -20773092.80849  20300618.0154   20300621.9754
  22810987.865   -12859177.77049 -10008463.23749  22810987.9624   22810991.5634
  21789307.555   -19401170.97749 -14824733.19349  21789307.3764   21789310.9394
 98  4 21  5 14 30.0000000  0 10 17 23 25  3 21  9  8  1 31 29
  24217619.996    16945223.21549  13202255.90949  24217619.6614   24217625.0824
  22706138.516     8956579.35049   6972666.52149  22706137.9484   22706141.3734
  24293099.109    -6528789.83849  -5047710.91949  24293098.9184   24293102.6744
  22295399.808    -8894788.09349  -6917404.78049  22295399.4964   22295403.1544
  20940950.859    -9950428.79849  -7745480.80649  20940950.1524   20940954.0004
  24154917.622    -8426102.99149  -6556825.11449  24154916.5394   24154921.3664
  22279234.909   -20194645.29349 -15728073.95749  22279233.6674   22279237.5494
  20298212.816   -26686548.24449 -20782944.39649  20298212.2704   20298216.0204
  22809683.180   -12866035.02349 -10013806.54649  22809681.9164   22809686.2964
  21774765.799   -19477588.43549 -14884279.24849  21774765.7034   21774769.4544
 98  4 21  5 15  0.0000000  0 10 17 23 25  3 21  9  8  1 31 29
  24235918.351    17041381.75449  13277184.60449  24235916.9844   24235923.4184
  22714590.187     9000992.94349   7007274.50749  22714589.6674   22714593.4164
  24273285.285    -6632912.23649  -5128845.20149  24273285.2144   24273289.1964
  22306726.019    -8835268.46849  -6871025.85549  22306725.6854   22306729.8984
  20940983.352    -9950257.83849  -7745347.59249  20940982.6194   20940986.3744
  24164155.341    -8377559.08749  -6518998.70449  24164155.6034   24164159.3784
  22274371.641   -20220201.41649 -15747987.78749  22274371.0044   22274374.3504
  20295897.456   -26698715.66349 -20792425.48949  20295896.6434   20295900.6024
  22808486.152   -12872326.07949 -10018708.65349  22808484.6954   22808488.8354
  21760289.182   -19553663.43649 -14943558.44749  21760288.8754   21760292.3284
 98  4 21  5 15 30.0000000  0 10 17 23 25  3 21  9  8  1 31 29
  24254254.412    17137738.56449  13352267.79549  24254254.1794   24254259.2284
  22723058.184     9045492.51849   7041949.49749  22723056.9754   22723061.6504
  24253472.477    -6737028.99749  -5209975.07749  24253471.6314   24253475.8314
  22318125.787    -8775361.94149  -6824345.45349  22318125.4134   22318128.8904
  20941050.122    -9949906.82849  -7745074.07949  20941049.4134   20941053.4094
  24173492.552    -8328492.49349  -6480765.01049  24173491.9804   24173496.7064
  22269619.265   -20245174.94049 -15767447.65449  22269618.9644   22269621.7684
  20293677.353   -26710382.20949 -20801516.29649  20293676.7104   20293680.4954
  22807402.496   -12878019.50049 -10023145.09449  22807401.9044   22807405.1414
  21745882.196   -19629372.71949 -15002552.68049  21745881.8094   21745885.2784
 98  4 21  5 16  0.0000000  0 10 17 23 25  3 21  9  8  1 31 29
  24272630.865    17234307.01649  13427515.90049  24272629.6884   24272635.5884
  22731546.173     9090097.35749   7076706.51349  22731544.6094   22731550.2494
  24233662.628    -6841130.08449  -5291092.76249  24233662.1554   24233665.4634
  22329599.081    -8715069.29549  -6777364.18449  22329598.5914   22329602.9204
  20941153.518    -9949363.51949  -7744650.71049  20941152.8724   20941156.5284
  24182929.358    -8278900.32049  -6442121.73149  24182928.9374   24182932.8474
  22264977.995   -20269564.80549 -15786452.72749  22264977.0074   22264980.3774
  20291556.664   -26721526.47049 -20810200.12449  20291555.8884   20291559.7534
  22806434.697   -12883105.99649 -10027108.58849  22806433.8144   22806437.9604
  21731549.364   -19704692.21049 -15061243.17649  21731549.0624   21731552.4414
 98  4 21  5 16 30.0000000  0 10 17 23 25  3 21  9  8  1 31 29
  24291050.144    17331100.62249  13502939.43949  24291050.2564   24291053.9144
  22740054.454     9134808.84449   7111546.61749  22740053.6184   22740057.6664
  24213855.735    -6945215.31749  -5372198.08249  24213855.3474   24213859.0824
  22341141.829    -8654411.63649  -6730098.47849  22341141.0204   22341145.4114
  20941292.977    -9948630.44149  -7744079.48349  20941292.3354   20941296.1984
  24192464.473    -8228792.47849  -6403076.66549  24192463.9864   24192469.0804
  22260448.871   -20293365.64849 -15804998.82649  22260448.8824   22260451.6554
  20289533.642   -26732157.43549 -20818483.98649  20289533.0094   20289536.8264
  22805577.163   -12887612.57149 -10030620.20049  22805575.9584   22805580.5034
  21717291.964   -19779615.21649 -15119624.72549  21717291.8024   21717295.2074
 98  4 21  5 17  0.0000000  0 10 17 23 25  3 21  9  8  1 31 29
  24309514.985    17428134.15549  13578549.94449  24309513.6644   24309519.4744
  22748585.287     9179638.66049   7146478.91549  22748584.2134   22748588.7704
  24194051.884    -7049285.95249  -5453292.02649  24194051.7174   24194055.0284
  22352755.909    -8593379.12749  -6682540.68949  22352756.0594   22352760.3424
  20941469.524    -9947702.71549  -7743356.58149  20941468.8534   20941472.5964
  24202096.955    -8178173.10949  -6363632.99249  24202095.9584   24202101.7594
  22256034.931   -20316561.36849 -15823073.40849  22256034.3184   22256037.5864
  20287610.988   -26742261.00049 -20826356.88249  20287610.2004   20287614.0914
  22804828.165   -12891549.16249 -10033687.66449  22804827.6464   22804831.0774
  21703113.093   -19854125.54349 -15177684.70549  21703112.8184   21703116.5714
 98  4 21  5 17 30.0000000  0 10 17 23 25  3 21  9  8  1 31 29
  24328029.244    17525427.73849  13654363.10349  24328028.0074   24328034.4924
  22757140.607     9224597.16549   7181511.50449  22757139.6904   22757143.7004
  24174251.010    -7153339.65249  -5534372.78849  24174250.1854   24174254.1434
  22364442.197    -8531967.36249  -6634687.37249  22364441.9394   22364445.2544
  20941685.395    -9946568.23049  -7742472.56949  20941684.5234   20941688.6224
  24211827.929    -8127036.14149  -6323786.01949  24211828.0304   24211832.2264
  22251738.870   -20339137.59049 -15840665.25249  22251738.5924   22251742.0664
  20285792.041   -26751819.39249 -20833804.97249  20285791.4494   20285795.2094
  22804190.292   -12894902.02849 -10036300.28049  22804188.8794   22804193.2194
  21689017.375   -19928198.83449 -15235404.14049  21689017.3264   21689020.6664
 98  4 21  5 18  0.0000000  0 10 17 23 25  3 21  9  8  1 31 29
  24346593.006    17622981.42749  13730378.92049  24346592.3254   24346599.4194
  22765720.337     9269684.03649   7216644.11849  22765719.0914   22765723.4544
  24154454.731    -7257369.08949  -5615434.62349  24154454.4394   24154458.9104
  22376203.152    -8470163.31949  -6586528.38249  22376202.4374   22376206.5874
  20941942.610    -9945216.43849  -7741419.21949  20941941.8654   20941945.8844
  24221657.938    -8075379.36849  -6283533.96749  24221656.9664   24221661.9824
  22247560.897   -20361092.96649 -15857773.30949  22247559.7254   22247564.0444
  20284076.585   -26760834.17949 -20840829.47249  20284075.9464   20284079.8114
  22803660.966   -12897682.23849 -10038466.66949  22803659.8954   22803664.0474
  21675003.905   -20001839.89849 -15292786.77049  21675003.4074   21675006.8854
 98  4 21  5 18 30.0000000  0 10 17 23 25  3 21  9  8  1 31 29
  24365198.377    17720752.96849  13806564.47849  24365197.5954   24365204.0604
  22774317.905     9314864.41049   7251849.57649  22774317.4084   22774321.1644
  24134657.419    -7361404.38749  -5696501.03349  24134657.3144   24134661.5184
  22388034.897    -8407987.17149  -6538079.44349  22388033.8974   22388038.9154
  20942234.140    -9943684.56449  -7740225.55049  20942233.5934   20942237.2884
  24231581.508    -8023230.19049  -6242898.26049  24231581.6854   24231585.7574
  22243496.562   -20382451.02149 -15874415.90549  22243495.7084   22243499.9984
  20282455.009   -26769355.57349 -20847469.51149  20282454.3394   20282458.0974
  22803235.915   -12899915.30049 -10040206.72149  22803234.9394   22803238.9304
  21661063.705   -20075096.08549 -15349869.50249  21661063.4484   21661066.9224
 98  4 21  5 19  0.0000000  0 10 17 23 25  3 21  9  8  1 31 29
  24383834.751    17818687.31049  13882876.94349  24383834.1034   24383839.5504
  22782924.981     9360094.73149   7287093.98049  22782923.6104   22782928.3514
  24114854.627    -7465468.44649  -5777589.84049  24114854.5844   24114859.0034
  22399931.075    -8345472.10749  -6489366.42149  22399930.8314   22399934.8954
  20942553.133    -9942008.35249  -7738919.41249  20942552.4834   20942556.5984
  24241590.189    -7970634.94249  -6201914.94549  24241589.9274   24241592.8884
  22239539.444   -20403245.70749 -15890619.54249  22239538.1484   22239542.0794
  20280920.213   -26777420.85649 -20853754.13749  20280919.5824   20280923.2804
  22802910.949   -12901623.38849 -10041537.68349  22802910.7434   22802914.1464
  21647187.867   -20148013.85749 -15406688.53249  21647187.5844   21647191.0894
 98  4 21  5 19 30.0000000  0 10 17 23 25  3 21  9  8  1 31 29
  24402515.425    17916854.70749  13959370.97849  24402514.5614   24402520.5544
  22791556.123     9405451.61249   7322436.98949  22791555.7144   22791559.3924
  24095063.978    -7569468.66149  -5858628.92149  24095062.6754   24095067.2134
  22411906.207    -8282542.35349  -6440330.25549  22411905.6514   22411909.9624
  20942915.140    -9940106.01049  -7737437.06249  20942914.4824   20942918.5434
  24251696.991    -7917524.26249  -6160529.99149  24251696.7704   24251700.3224
  22235703.180   -20423405.02749 -15906328.08649  22235701.8844   22235706.3044
  20279485.774   -26784958.79749 -20859627.84749  20279485.0454   20279488.8304
  22802702.686   -12902716.70349 -10042389.61349  22802702.5384   22802706.9224
  21633388.303   -20220531.25349 -15463195.58049  21633388.2874   21633391.4524
 98  4 21  5 20  0.0000000  0 10 17 23 25  3 21  9  8  1 31 29
  24421232.153    18015212.11149  14036013.07049  24421231.5334   24421236.9204
  22800206.540     9450909.73949   7357858.89149  22800205.7464   22800209.8324
  24075278.201    -7673443.17349  -5939647.95149  24075278.3524   24075282.3334
  22423955.354    -8219223.77649  -6390991.11649  22423954.6094   22423959.4214
  20943313.411    -9938013.14249  -7735806.25249  20943312.6364   20943316.7694
  24261892.932    -7863943.96149  -6118779.09249  24261891.3924   24261895.5584
  22231981.982   -20442959.67049 -15921565.45949  22231981.0404   22231984.7464
  20278142.807   -26792016.09849 -20865127.03749  20278142.0944   20278145.9354
  22802603.592   -12903238.22549 -10042795.99849  22802602.5874   22802606.6004
  21619657.553   -20292686.95349 -15519420.78649  21619657.4334   21619660.4554
 98  4 21  5 20 30.0000000  0 10 17 23 25  3 21  9  8  1 31 29
  24439988.075    18113774.78649  14112815.10649  24439987.2394   24439993.5744
  22808877.715     9496477.30049   7393366.05649  22808877.8424   22808880.6054
  24055498.030    -7777388.03749  -6020643.89549  24055497.6854   24055501.3034
  22436075.861    -8155530.00849  -6341359.62049  22436075.0084   22436080.2464
  20943749.184    -9935723.15049  -7734021.84349  20943748.3854   20943752.1664
  24272178.839    -7809891.16749  -6076660.00949  24272179.3404   24272181.9744
  22228377.808   -20461899.37649 -15936323.66649  22228377.1154   22228380.7524
  20276892.200   -26798588.19849 -20870248.14549  20276891.5104   20276895.4444
  22802616.623   -12903169.89649 -10042742.74649  22802615.4184   22802619.5674
  21605997.764   -20364469.50849 -15575355.23249  21605997.5694   21606000.8724
 98  4 21  5 21  0.0000000  0 10 17 23 25  3 21  9  8  1 31 29
  24458784.958    18212552.49449  14189784.73949  24458783.6264   24458790.5354
  22817571.086     9542161.01449   7428963.74149  22817569.7554   22817574.2214
  24035724.970    -7881295.68549  -6101610.83449  24035724.1844   24035727.7764
  22448265.862    -8091471.11849  -6291443.60849  22448265.4994   22448270.1154
  20944223.871    -9933228.59249  -7732078.02849  20944223.2264   20944227.1084
  24282555.154    -7755363.72649  -6034171.08149  24282554.7074   24282559.4624
  22224890.394   -20480225.91549 -15950604.08049  22224889.4494   22224892.8624
  20275736.820   -26804659.75049 -20874979.20949  20275736.1404   20275740.0644
  22802740.320   -12902519.85849 -10042236.21749  22802739.3524   22802743.4654
  21592408.826   -20435879.86149 -15630999.65449  21592408.7864   21592411.9414
 98  4 21  5 21 30.0000000  0 10 17 23 25  3 21  9  8  1 31 29
  24477623.757    18311551.20349  14266926.56249  24477623.5144   24477628.7334
  22826289.494     9587976.74549   7464664.30049  22826288.2004   22826292.2004
  24015958.255    -7985170.57549  -6182552.25849  24015957.6684   24015961.5194
  22460527.576    -8027035.44049  -6241234.00249  22460527.0114   22460531.6124
  20944738.568    -9930523.88949  -7729970.46549  20944737.9704   20944741.6224
  24293026.961    -7700334.67549  -5991291.32549  24293025.9184   24293029.9924
  22221520.283   -20497936.62049 -15964404.63549  22221519.2424   22221522.6644
  20274678.003   -26810223.96849 -20879314.95549  20274677.3934   20274681.1524
  22802974.862   -12901287.63749 -10041276.05849  22802974.9294   22802978.2194
  21578893.477   -20506903.33149 -15686342.59949  21578893.3034   21578896.9494
 98  4 21  5 22  0.0000000  0 10 17 23 25  3 21  9  8  1 31 29
  24496500.755    18410750.69349  14344224.83449  24496499.7064   24496505.1634
  22835028.704     9633901.14149   7500449.53249  22835027.6594   22835031.6814
  23996194.086    -8089031.78249  -6263483.02349  23996194.9604   23996198.2844
  22472855.089    -7962254.20749  -6190755.12549  22472854.5674   22472859.2654
  20945289.603    -9927628.32949  -7727714.18149  20945288.8684   20945292.7504
  24303592.663    -7644811.59249  -5948026.58249  24303592.8234   24303596.3094
  22218263.420   -20515050.85449 -15977740.39149  22218261.3084   22218266.3094
  20273710.607   -26815307.54349 -20883276.17449  20273709.8734   20273713.5954
  22803314.927   -12899500.66349 -10039883.60649  22803313.2154   22803317.9064
  21565448.473   -20577557.23449 -15741397.57949  21565448.1814   21565451.3464
 98  4 21  5 22 30.0000000  0 10 17 23 25  3 21  9  8  1 31 29
  24515419.117    18510167.24249  14421692.25049  24515418.2894   24515423.6534
  22843791.291     9679949.20149   7536331.11749  22843790.8334   22843794.9774
  23976439.760    -8192840.90649  -6344373.21149  23976439.3264   23976443.5934
  22485251.072    -7897113.10749  -6139995.83449  22485250.9254   22485254.5174
  20945880.425    -9924523.23249  -7725294.61249  20945879.5494   20945883.5444
  24314259.318    -7588758.51949  -5904348.82349  24314258.2394   24314262.8814
  22215122.858   -20531553.92649 -15990599.91049  22215121.9414   22215126.3924
  20272840.270   -26819881.05349 -20886839.92949  20272839.6054   20272843.3654
  22803766.643   -12897126.81949 -10038033.86049  22803765.9014   22803769.1444
  21552076.099   -20647829.43449 -15796155.11449  21552075.7884   21552079.0944
 98  4 21  5 23  0.0000000  0 10 17 23 25  3 21  9  8  1 31 29
  24534375.025    18609780.26149  14499312.79149  24534374.2264   24534379.9154
  22852575.811     9726111.93349   7572302.05749  22852574.9624   22852579.1714
  23956696.846    -8296590.05249  -6425216.64749  23956696.6144   23956700.6554
  22497717.341    -7831602.42449  -6088948.55849  22497717.2544   22497720.7274
  20946509.318    -9921218.25949  -7722719.31149  20946508.6344   20946512.5274
  24325026.081    -7532177.94849  -5860260.05949  24325026.4254   24325029.7994
  22212098.196   -20547449.35849 -16002985.95949  22212097.5454   22212101.6654
  20272067.325   -26823942.86749 -20890004.97549  20272066.6504   20272070.4134
  22804327.809   -12894177.70749 -10035735.83749  22804326.9334   22804330.8274
  21538777.052   -20717716.37449 -15850612.45749  21538776.7854   21538780.1764
 98  4 21  5 23 30.0000000  0 10 17 23 25  3 21  9  8  1 31 29
  24553364.688    18709571.32849  14577072.09349  24553362.9614   24553370.1804
  22861376.631     9772360.69249   7608340.02649  22861375.7594   22861379.6804
  23936962.737    -8400293.52449  -6506024.50149  23936962.6864   23936966.1994
  22510251.400    -7765735.58149  -6037623.74449  22510250.1384   22510255.4604
  20947173.050    -9917730.53249  -7720001.59849  20947172.4644   20947176.2254
  24335889.778    -7475088.41849  -5815774.66949  24335889.4344   24335894.0094
  22209186.036   -20562752.98849 -16014910.84149  22209185.0614   22209189.8114
  20271388.739   -26827508.84349 -20892783.64849  20271388.1604   20271391.8704
  22804996.125   -12890665.05049 -10032998.71449  22804995.5304   22804999.0394
  21525550.686   -20787221.42449 -15904772.22049  21525550.4224   21525553.9014
 98  4 21  5 24  0.0000000  0 10 17 23 25  3 21  9  8  1 31 29
  24572396.609    18809585.02249  14655004.87349  24572395.7644   24572401.8484
  22870200.356     9818729.52749   7644471.58249  22870199.8504   22870203.5564
  23917244.721    -8503912.09349  -6586766.21549  23917244.8864   23917248.5064
  22522857.023    -7699492.39249  -5986005.68449  22522856.0514   22522860.9104
  20947879.305    -9914019.11649  -7717109.58749  20947878.5354   20947882.2784
  24346855.124    -7417464.87949  -5770873.19049  24346855.5434   24346858.5194
  22206392.637   -20577432.52849 -16026349.45249  22206391.7154   22206395.6544
  20270813.969   -26830529.12149 -20895137.10449  20270813.3384   20270817.0564
  22805779.883   -12886547.24849 -10029790.03849  22805779.0384   22805782.5134
  21512404.946   -20856302.81849 -15958601.86749  21512404.7624   21512408.2564
 98  4 21  5 24 30.0000000  0  9 23 25  3 21  9  8  1 31 29
  22879048.586     9865226.95349   7680703.33149  22879047.8354   22879052.2784
  23897543.421    -8607443.53349  -6667440.04649  23897542.4964   23897547.1854
  22535535.865    -7632864.37149  -5934087.77149  22535535.7734   22535539.6714
  20948630.267    -9910072.82649  -7714034.56249  20948629.3964   20948633.4494
  24357921.649    -7359310.23249  -5725557.90849  24357921.2724   24357925.3474
  22203719.437   -20591480.36149 -16037295.81549  22203718.6454   22203722.4394
  20270347.135   -26832982.23549 -20897048.61549  20270346.5014   20270350.2254
  22806679.932   -12881817.77549 -10026104.71849  22806679.3144   22806683.3754
  21499344.502   -20924935.77749 -16012082.08449  21499344.3044   21499347.7304
 98  4 21  5 25  0.0000000  0  9 23 25  3 21  9  8  1 31 29
  22887910.986     9911799.32149   7716993.48649  22887910.6594   22887913.8234
  23877845.327    -8710958.09149  -6748100.72949  23877844.9624   23877848.5834
  22548273.734    -7565926.76449  -5881928.58749  22548273.1754   22548277.5894
  20949414.811    -9905949.82649  -7710821.83149  20949413.9824   20949417.7964
  24369074.095    -7300703.12949  -5679890.02449  24369072.6824   24369077.7884
  22201153.127   -20604966.65249 -16047804.59949  22201152.9624   22201155.7104
  20269974.765   -26834939.16549 -20898573.48649  20269974.0094   20269977.8314
  22807682.627   -12876548.19249 -10021998.56049  22807682.1804   22807685.7634
  21486361.237   -20993163.30549 -16065246.38049  21486360.8924   21486364.1304
 98  4 21  5 25 30.0000000  0  9 23 25  3 21  9  8  1 31 29
  22896790.338     9958460.33249   7753352.71249  22896788.6834   22896793.9454
  23858148.505    -8814465.77549  -6828756.04849  23858148.1784   23858151.4454
  22561067.341    -7498695.75549  -5829540.79749  22561066.6994   22561070.8724
  20950235.364    -9901637.64949  -7707461.69149  20950234.5744   20950238.3594
  24380312.105    -7241646.43649  -5633871.74649  24380310.7924   24380316.0604
  22198692.085   -20617899.41749 -16057882.05049  22198690.5564   22198694.4654
  20269696.337   -26836402.23849 -20899713.53149  20269695.5624   20269699.4424
  22808787.826   -12870739.48649 -10017472.30549  22808787.7554   22808790.2444
  21473454.752   -21060987.23149 -16118096.17349  21473454.5874   21473458.1024
 98  4 21  5 26  0.0000000  0  9 23 25  3 21  9  8  1 31 29
  22905695.306    10005256.08049   7789816.90649  22905695.4274   22905698.2434
  23838460.697    -8917925.83349  -6909374.24549  23838460.1174   23838464.0214
  22573922.374    -7431142.09449  -5776901.59449  22573921.7694   22573926.6584
  20951098.309    -9897102.72949  -7703927.98649  20951097.6774   20951101.3574
  24391640.696    -7182114.13549  -5587482.95749  24391640.8184   24391645.2624
  22196344.499   -20630235.59749 -16067494.63749  22196343.7514   22196347.6554
  20269516.921   -26837345.10449 -20900448.22349  20269516.2564   20269519.9834
  22810002.466   -12864357.51349 -10012499.33049  22810001.1654   22810005.5044
  21460629.760   -21128383.02749 -16170612.36649  21460629.5254   21460632.6294
 98  4 21  5 26 30.0000000  0  9 23 25  3 21  9  8  1 31 29
  22914623.084    10052171.98949   7826374.75449  22914622.5574   22914626.2164
  23818780.474    -9021345.89349  -6989961.25849  23818779.7024   23818783.0714
  22586837.955    -7363270.51449  -5724014.64749  22586837.6684   22586841.9104
  20952000.055    -9892364.06749  -7700235.52149  20951999.3034   20952003.2974
  24403055.679    -7122128.71349  -5540741.04349  24403056.8254   24403059.2494
  22194109.092   -20641982.90749 -16076648.36349  22194108.3784   22194111.8084
  20269429.479   -26837804.53449 -20900806.21249  20269428.8964   20269432.4684
  22811319.615   -12857434.51149 -10007104.79149  22811319.1424   22811322.6674
  21447880.019   -21195383.34949 -16222820.39649  21447879.6224   21447883.3234
 98  4 21  5 27  0.0000000  0  9 23 25  3 21  9  8  1 31 29
  22923580.926    10099246.13149   7863055.89149  22923580.1764   22923585.2314
  23799115.598    -9124685.18849  -7070485.36949  23799115.4154   23799119.0354
  22599819.427    -7295052.52349  -5670857.78249  22599818.9514   22599823.4304
  20952944.890    -9887399.03449  -7696366.66049  20952944.2194   20952948.1244
  24414563.795    -7061653.50949  -5493617.50749  24414562.2604   24414567.3814
  22191993.116   -20653102.50649 -16085312.97949  22191992.3234   22191995.9604
  20269438.667   -26837755.91049 -20900768.31549  20269438.1604   20269441.8484
  22812744.824   -12849944.86349 -10001268.69249  22812744.2664   22812747.9514
  21435207.852   -21261976.07649 -16274710.82249  21435207.4554   21435210.8034
 98  4 21  5 27 30.0000000  0  9 23 25  3 21  9  8  1 31 29
  22932550.430    10146381.21649   7899784.52949  22932549.4864   22932553.9244
  23779450.719    -9228024.63349  -7151009.59249  23779449.8694   23779454.2854
  22612851.994    -7226566.13049  -5617491.76849  22612851.5894   22612856.3014
  20953914.801    -9882302.15049  -7692395.06549  20953914.3774   20953918.1584
  24426147.575    -7000779.69649  -5446183.33749  24426147.2304   24426150.6334
  22189985.271   -20663653.69849 -16093534.68449  22189984.1944   22189988.1794
  20269529.269   -26837279.83949 -20900397.34749  20269528.5174   20269532.3774
  22814263.372   -12841964.90649  -9995050.54749  22814262.5654   22814266.9204
  21422594.036   -21328261.90949 -16326362.10449  21422593.6274   21422597.2784
 98  4 21  5 28  0.0000000  0  9 23 25  3 21  9  8  1 31 29
  22941543.020    10193637.55449   7936607.64549  22941542.9604   22941547.1684
  23759801.571    -9331281.50449  -7231469.48149  23759800.6024   23759805.0614
  22625948.321    -7157744.40549  -5563864.47049  22625946.8834   22625951.8124
  20954919.751    -9877021.12749  -7688279.98449  20954919.0114   20954922.7834
  24437818.216    -6939449.84349  -5398393.81849  24437817.5214   24437821.7644
  22188099.272   -20673565.05649 -16101257.80349  22188097.8994   22188101.3804
  20269712.671   -26836316.08749 -20899646.36249  20269711.9304   20269715.8284
  22815887.934   -12833427.29649  -9988397.85749  22815887.8304   22815891.3864
  21410049.815   -21394182.11749 -16377728.48549  21410049.2614   21410052.9524
 98  4 21  5 28 30.0000000  0  9 23 25  3 21  9  8  1 31 29
  22950564.287    10241044.15749   7973547.85149  22950563.3264   22950567.9544
  23740172.928    -9434430.49749  -7311845.30049  23740172.3514   23740176.7534
  22639112.363    -7088566.79149  -5509959.84449  22639112.2394   22639116.4474
  20955964.141    -9871532.97349  -7684003.49649  20955963.2794   20955967.2374
  24449581.753    -6877631.92049  -5350223.97149  24449581.2874   24449585.2144
  22186338.528   -20682817.75249 -16108467.69349  22186337.9984   22186341.3584
  20269992.410   -26834846.01449 -20898500.84249  20269991.8774   20269995.5154
  22817623.541   -12824307.29949  -9981291.36949  22817622.3694   22817626.4644
  21397581.800   -21459701.81249 -16428782.78249  21397581.6424   21397585.1154
 98  4 21  5 28 59.9990000  0  9 23 25  3 21  9  8  1 31 29
  22959600.747    10288531.80949   8010551.18649  22959600.8694   22959604.3054
  23720553.966    -9537528.73449  -7392181.55649  23720553.4834   23720557.5684
  22652328.669    -7019114.88349  -5455841.47749  22652328.2594   22652331.8764
  20957033.965    -9865910.74549  -7679622.54149  20957033.2684   20957037.1444
  24461425.184    -6815394.16249  -5301726.97649  24461424.3184   24461429.0844
  22184689.941   -20691481.33949 -16115218.51649  22184688.8394   22184692.8364
  20270355.472   -26832938.14149 -20897014.18149  20270354.8054   20270358.6064
  22819461.364   -12814648.83349  -9973765.28849  22819460.9064   22819464.3514
  21385180.580   -21524870.51449 -16479563.57749  21385180.3684   21385184.0184
 98  4 21  5 29 29.9990000  0  9 23 25  3 21  9  8  1 31 29
  22968650.104    10336086.73549   8047606.95649  22968649.6854   22968654.9284
  23700941.407    -9640593.43749  -7472491.67549  23700941.1204   23700944.8844
  22665594.909    -6949400.32649  -5401518.44649  22665594.4954   22665598.2484
  20958127.157    -9860165.97949  -7675146.10049  20958126.6114   20958130.3874
  24473344.367    -6752758.96749  -5252920.27849  24473343.7374   24473347.7694
  22183148.989   -20699578.44849 -16121527.93149  22183147.4274   22183152.2284
  20270795.979   -26830623.12049 -20895210.26349  20270795.4704   20270799.0054
  22821398.626   -12804468.29949  -9965832.40749  22821397.7154   22821401.9454
  21372843.473   -21589702.41649 -16530081.92349  21372843.2494   21372846.5414
 98  4 21  5 29 59.9990000  0  9 23 25  3 21  9  8  1 31 29
  22977729.243    10383797.70849   8084784.30449  22977728.8394   22977733.1144
  23681354.072    -9743525.45649  -7552698.41849  23681353.3404   23681357.8914
  22678925.416    -6879347.72449  -5346932.02949  22678924.8874   22678930.1194
  20959263.282    -9854195.71349  -7670493.94949  20959262.7044   20959266.3984
  24485356.862    -6689632.20749  -5203730.50349  24485355.9714   24485359.8054
  22181728.007   -20707045.32149 -16127346.26049  22181727.3104   22181731.3004
  20271329.437   -26827819.72249 -20893025.79349  20271328.7414   20271332.4964
  22823449.814   -12793689.59149  -9957433.41149  22823448.8954   22823453.2114
  21360588.017   -21654105.16549 -16580265.87849  21360587.8534   21360591.1204
 98  4 21  5 30 29.9990000  0  9 23 25  3 21  9  8  1 31 29
  22986825.660    10431599.17849   8122032.19749  22986825.2624   22986829.0644
  23661780.121    -9846387.28449  -7632850.48049  23661779.5314   23661783.3024
  22692309.242    -6809014.97049  -5292127.28149  22692308.2224   22692313.0524
  20960434.624    -9848040.12749  -7665697.38549  20960433.8144   20960437.8284
  24497453.475    -6626064.00749  -5154196.74749  24497453.1364   24497456.2884
  22180416.916   -20713935.33949 -16132715.08949  22180416.0184   22180419.5714
  20271945.953   -26824579.68349 -20890501.08049  20271945.2944   20271949.0714
  22825606.492   -12782355.43649  -9948601.62249  22825605.5124   22825609.8634
  21348405.557   -21718124.25549 -16630150.86649  21348405.1574   21348408.5314
 98  4 21  5 30 59.9990000  0  9 23 25  3 21  9  8  1 31 29
  22995944.263    10479517.42849   8159371.07649  22995943.3004   22995947.1734
  23642227.370    -9949137.59549  -7712915.63749  23642227.2174   23642230.8024
  22705752.480    -6738370.50749  -5237079.66549  22705752.0854   22705757.1554
  20961651.166    -9841647.08149  -7660715.79249  20961650.4914   20961654.4634
  24509639.506    -6562024.89549  -5104296.12449  24509639.2204   24509641.5694
  22179225.420   -20720196.33049 -16137593.78849  22179224.5524   22179228.3544
  20272656.559   -26820845.49249 -20887591.31349  20272655.9224   20272659.5354
  22827876.654   -12770426.69649  -9939306.48549  22827876.3504   22827880.7844
  21336302.669   -21781725.22049 -16679710.04549  21336302.6854   21336305.8074
 98  4 21  5 31 29.9990000  0  9 23 25  3 21  9  8  1 31 29
  23005082.624    10527539.66649   8196790.97449  23005081.5434   23005085.9144
  23622695.871   -10051776.11049  -7792893.67749  23622696.3684   23622698.9114
  22719253.762    -6667420.82649  -5181794.20449  22719253.3284   22719257.1784
  20962915.533    -9835002.80249  -7655538.43549  20962914.9564   20962918.7794
  24521913.578    -6497523.34849  -5054035.11349  24521913.7724   24521917.0054
  22178153.861   -20725827.00149 -16141981.31149  22178153.2744   22178156.6724
  20273462.910   -26816608.05149 -20884289.40549  20273462.3344   20273465.9214
  22830255.580   -12757925.58749  -9929565.37249  22830254.3644   22830257.8534
  21324277.913   -21844915.67149 -16728949.34749  21324277.7104   21324280.9644
 98  4 21  5 31 59.9990000  0  9 23 25  3 21  9  8  1 31 29
  23014231.711    10575618.68649   8234255.10749  23014230.9094   23014234.7714
  23603176.514   -10154350.95849  -7872822.09849  23603176.6414   23603179.9574
  22732804.369    -6596212.03749  -5126306.84749  22732803.7674   22732808.2004
  20964222.438    -9828135.01649  -7650186.91449  20964221.9614   20964225.5394
  24534271.361    -6432582.88549  -5003432.10449  24534270.8284   24534273.6754
  22177195.873   -20730861.19049 -16145904.03849  22177195.0474   22177199.1054
  20274359.834   -26811894.63749 -20880616.61149  20274359.1934   20274363.0674
  22832737.645   -12744881.67649  -9919401.28349  22832737.2454   22832740.7484
  21312326.750   -21907719.46249 -16777887.35249  21312326.6334   21312329.7614
 98  4 21  5 32 29.9990000  0  9 23 25  3 21  9  8  1 31 29
  23023400.733    10623802.13049   8271800.63049  23023399.6124   23023404.6594
  23583675.719   -10256828.12549  -7952674.40049  23583675.4714   23583680.0724
  22746412.630    -6524700.13249  -5070583.30249  22746412.1574   22746415.3934
  20965576.614    -9821018.93449  -7644641.91649  20965575.7944   20965579.6884
  24546721.101    -6367159.12849  -4952452.45849  24546721.4184   24546723.4064
  22176362.709   -20735239.47449 -16149315.67249  22176361.5944   22176365.1324
  20275357.082   -26806654.17649 -20876533.13549  20275356.4534   20275360.0614
  22835329.190   -12731262.79149  -9908789.17849  22835328.8914   22835332.1204
  21300459.043   -21970084.88949 -16826483.78049  21300458.8694   21300462.2034
 98  4 21  5 32 59.9990000  0  9 23 25  3 21  9  8  1 31 29
  23032588.132    10672082.48249   8309421.63749  23032587.7714   23032592.1074
  23564190.021   -10359225.93049  -8032464.86049  23564188.7824   23564193.4914
  22760074.529    -6452906.76449  -5014640.43449  22760074.2684   22760078.7704
  20966971.181    -9813690.32949  -7638931.31049  20966970.3984   20966974.3144
  24559257.618    -6301278.78049  -4901117.05749  24559256.9704   24559261.4724
  22175648.619   -20738992.05449 -16152239.75049  22175647.8184   22175652.0204
  20276447.138   -26800925.85049 -20872069.50049  20276446.4084   20276450.0424
  22838019.898   -12717123.51149  -9897771.54849  22838019.1984   22838022.6324
  21288670.541   -22032033.74549 -16874755.60149  21288670.3104   21288673.7304
 98  4 21  5 33 29.9990000  0  9 23 25  3 21  9  8  1 31 29
  23041801.798    10720500.36949   8347149.85349  23041801.0534   23041805.1864
  23544722.895   -10461526.08949  -8112179.24349  23544722.4484   23544726.5564
  22773795.644    -6380801.72849  -4958454.69649  22773795.9194   22773800.3264
  20968409.330    -9806132.64449  -7633042.20449  20968408.6834   20968412.4604
  24571887.307    -6234909.49649  -4849400.70849  24571886.5974   24571890.8634
  22175053.654   -20742118.90749 -16154676.25049  22175053.2704   22175056.6184
  20277632.384   -26794697.20149 -20867216.00049  20277631.5784   20277635.4014
  22840813.530   -12702442.70849  -9886331.96549  22840812.9944   22840816.8194
  21276966.857   -22093537.01749 -16922680.21549  21276966.4734   21276970.0164
 98  4 21  5 33 59.9990000  0 10 15 23 25  3 21  9  8  1 31 29
  24327579.461    -4483009.61049  -3459012.01349  24327579.0974   24327582.6664
  23051037.704    10769035.28749   8384969.25849  23051037.0894   23051041.4754
  23525266.753   -10563768.96749  -8191848.98949  23525266.8174   23525270.4014
  22787568.989    -6308422.72549  -4902055.49249  22787567.2754   22787571.7984
  20969881.855    -9798394.40049  -7627012.39749  20969881.3534   20969885.1944
  24584602.987    -6168088.43449  -4797332.34749  24584601.4554   24584607.1644
  22174570.459   -20744658.44949 -16156655.11249  22174569.4054   22174573.3154
  20278904.425   -26788012.47349 -20862007.10949  20278903.7474   20278907.5454
  22843705.144   -12687246.14649  -9874490.49649  22843705.4224   22843709.2264
  21265340.987   -22154631.17749 -16970286.04049  21265340.5514   21265343.9804
 98  4 21  5 34 29.9990000  0  9 15 23 25  3 21  8  1 31 29
  24306224.469    -4595230.68349  -3546456.95049  24306223.4424   24306228.9854
  23060302.194    10817720.34249   8422905.63949  23060301.7254   23060306.1474
  23505828.155   -10665919.26749  -8271446.59549  23505827.7344   23505831.6824
  22801396.762    -6235756.84449  -4845432.73749  22801396.3424   22801400.6784
  20971389.728    -9790470.55549  -7620837.97449  20971388.9504   20971393.0674
  22174203.063   -20746589.15549 -16158159.55949  22174202.2494   22174205.8434
  20280266.979   -26780852.22049 -20856427.68849  20280266.3944   20280270.1764
  22846698.857   -12671514.16749  -9862231.82049  22846698.3404   22846701.6124
  21253793.638   -22215312.97749 -17017570.54949  21253793.4154   21253796.6704
 98  4 21  5 34 59.9990000  0  9 15 23 25  3 21  8  1 31 29
  24284867.905    -4707460.06549  -3633908.33149  24284867.3064   24284871.6074
  23069580.076    10866475.78449   8460896.84649  23069580.1824   23069584.0124
  23486394.692   -10768043.18249  -8351023.64449  23486394.1984   23486398.1144
  22815262.740    -6162891.20749  -4788654.32049  22815262.2534   22815266.9744
  20972919.887    -9782429.41649  -7614572.15049  20972919.1504   20972923.1824
  22173936.518   -20747989.83749 -16159250.99949  22173935.6444   22173938.8864
  20281702.826   -26773306.77849 -20850548.12149  20281702.2504   20281705.8884
  22849782.024   -12655312.62949  -9849607.24649  22849781.5854   22849786.4084
  21242308.127   -22275669.66449 -17064601.72049  21242307.7664   21242311.1664
 98  4 21  5 35 29.9990000  0  9 15 23 25  3 21  8  1 31 29
  24263523.439    -4819625.14249  -3721309.61649  24263521.9634   24263526.4714
  23078881.063    10915353.15049   8498983.07749  23078880.9434   23078885.3244
  23466979.864   -10870068.58649  -8430523.92549  23466979.7884   23466983.4094
  22829175.445    -6089779.46249  -4731684.13449  22829174.7814   22829180.0634
  20974486.550    -9774196.78349  -7608157.10449  20974485.8664   20974489.7454
  22173786.520   -20748778.03649 -16159865.17749  22173785.5984   22173789.8654
  20283227.205   -26765296.10949 -20844306.03849  20283226.6044   20283230.3704
  22852971.277   -12638553.14749  -9836547.92549  22852970.3284   22852974.9314
  21230896.596   -22335637.48449 -17111329.88049  21230896.3764   21230899.5404
 98  4 21  5 35 59.9990000  0  9 15 23 25  3 21  8  1 31 29
  24242189.626    -4931734.62849  -3808667.57749  24242188.0724   24242193.6274
  23088201.730    10964333.58149   8537149.61849  23088201.1314   23088204.6214
  23447585.564   -10971986.27649  -8509940.27549  23447584.7754   23447589.3254
  22843132.062    -6016436.56649  -4674533.85349  22843131.6194   22843135.2884
  20976087.005    -9765786.34149  -7601603.50749  20976086.2184   20976090.0214
  22173754.294   -20748947.01249 -16159996.83249  22173753.0404   22173757.1104
  20284837.297   -26756835.09149 -20837713.03249  20284836.7304   20284840.3294
  22856262.829   -12621256.79349  -9823070.24249  22856262.8294   22856266.2214
  21219559.212   -22395215.99549 -17157754.68349  21219558.7654   21219562.2084
 98  4 21  5 36 29.9990000  0  9 15 23 25  3 21  8  1 31 29
  24220879.149    -5043722.03249  -3895930.41949  24220877.6854   24220883.0084
  23097553.938    11013479.82949   8575445.38149  23097553.6664   23097558.4114
  23428225.980   -11073721.42749  -8589214.39249  23428225.6174   23428229.6754
  22857146.193    -5942791.94649  -4617148.44049  22857146.2574   22857150.7514
  20977735.242    -9757124.56549  -7594854.06749  20977734.5374   20977738.3604
  22173851.806   -20748434.66149 -16159597.58449  22173850.9524   22173854.3174
  20286547.054   -26747850.24749 -20830711.85249  20286546.4464   20286549.9334
  22859666.027   -12603372.31849  -9809134.29949  22859664.6634   22859669.3454
  21208308.880   -22454337.12649 -17203823.08749  21208308.5734   21208311.7054
 98  4 21  5 36 59.9990000  0  9 15 23 25  3 21  8  1 31 29
  24199574.667    -5155677.75549  -3983168.57349  24199573.6844   24199578.5494
  23106918.490    11062690.13849   8613791.05249  23106917.9844   23106921.8694
  23408883.938   -11175364.49149  -8668416.76349  23408883.1274   23408887.3204
  22871202.202    -5868927.31549  -4559591.58749  22871202.5064   22871205.4934
  20979416.637    -9748288.74349  -7587969.00749  20979416.0134   20979419.9044
  22174060.386   -20747338.56549 -16158743.49549  22174059.5484   22174063.2054
  20288337.534   -26738441.38549 -20823380.26949  20288336.8974   20288340.6824
  22863162.405   -12584998.70949  -9794817.22149  22863161.1134   22863165.0814
  21197128.865   -22513088.37949 -17249603.26949  21197128.5034   21197131.5594
 98  4 21  5 37 29.9990000  0  9 15 23 25  3 21  8  1 31 29
  24178280.698    -5267577.78749  -4070363.32849  24178279.9654   24178282.9234
  23116298.018    11111979.71649   8652198.49249  23116297.5304   23116300.7914
  23389563.315   -11276894.91149  -8747531.36449  23389562.4634   23389566.3574
  22885305.611    -5794813.08349  -4501840.24849  22885305.1934   22885309.7994
  20981133.111    -9739268.60149  -7580940.32349  20981132.0854   20981136.2344
  22174383.392   -20745640.50649 -16157420.32549  22174382.0654   22174386.7684
  20290213.467   -26728583.25549 -20815698.60749  20290212.8784   20290216.3814
  22866754.971   -12566120.24349  -9780106.71649  22866753.4064   22866758.2134
  21186022.263   -22571453.65249 -17295082.68649  21186021.9124   21186025.1314
 98  4 21  5 37 59.9990000  0  9 15 23 25  3 21  8  1 31 29
  24156992.941    -5379445.23649  -4157532.69349  24156991.6134   24156996.1714
  23125690.440    11161337.18149   8690658.83049  23125689.6684   23125693.9304
  23370258.510   -11378342.32849  -8826581.28749  23370258.2574   23370261.4474
  22899454.029    -5720462.45049  -4443904.70649  22899454.4084   22899458.2274
  20982879.557    -9730090.89049  -7573788.85649  20982878.9454   20982882.7834
  22174814.594   -20743374.28249 -16155654.42249  22174814.4554   22174817.3754
  20292168.999   -26718306.90749 -20807691.06149  20292168.4844   20292172.0544
  22870436.063   -12546775.13649  -9765032.61649  22870435.2474   22870439.3284
  21174981.322   -22629474.25649 -17340293.53649  21174981.0964   21174984.3274
 98  4 21  5 38 29.9990000  0  9 15 23 25  3 21  8  1 31 29
  24135735.942    -5491150.64149  -4244575.81449  24135735.2184   24135740.2424
  23135120.564    11210892.76549   8729273.53349  23135119.4304   23135122.9944
  23350990.638   -11479595.60949  -8905479.91949  23350990.1764   23350994.2044
  22913670.644    -5645753.93149  -4385690.27749  22913669.8464   22913673.7904
  20984680.845    -9720625.03849  -7566412.86349  20984680.3384   20984683.8804
  22175379.338   -20740406.56049 -16153341.92649  22175378.6954   22175382.4584
  20294227.331   -26707490.32649 -20799262.55649  20294226.6794   20294230.3324
  22874233.297   -12526820.77949  -9749483.76849  22874233.2884   22874236.1464
  21164026.562   -22687041.90649 -17385151.43449  21164026.4394   21164029.4634
 98  4 21  5 38 59.9990000  0  9 15 23 25  3 21  8  1 31 29
  24114487.319    -5602812.26249  -4331584.79649  24114485.3294   24114491.0034
  23144564.612    11260521.13249   8767944.95149  23144563.4324   23144568.6364
  23331734.740   -11580786.05949  -8984329.59049  23331734.7764   23331737.6394
  22927929.197    -5570824.35449  -4327303.60349  22927928.0064   22927933.2694
  20986512.061    -9711002.04549  -7558914.42049  20986511.3514   20986515.2654
  22176056.693   -20736846.98749 -16150568.23149  22176055.9564   22176059.1354
  20296362.825   -26696268.19749 -20790518.03249  20296362.1314   20296365.8794
  22878122.842   -12506381.16449  -9733556.79549  22878122.4654   22878125.9224
  21153134.805   -22744278.60949 -17429751.44649  21153134.5904   21153137.7064
 98  4 21  5 39 29.9990000  0  9 15 23 25  3 21  8  1 31 29
  24093258.600    -5714369.74549  -4418512.62949  24093257.4754   24093261.1264
  23154035.483    11310291.24249   8806726.84549  23154034.8054   23154038.2824
  23312500.806   -11681860.78149  -9063089.09349  23312499.6724   23312503.8994
  22942238.849    -5495626.00549  -4268707.50949  22942239.2584   22942243.7574
  20988384.233    -9701163.60449  -7551248.09749  20988383.7044   20988387.2894
  22176857.474   -20732638.93749 -16147289.23749  22176856.3724   22176860.1394
  20298585.901   -26684585.69849 -20781414.78249  20298585.2124   20298588.9874
  22882115.142   -12485402.20549  -9717209.55149  22882114.9814   22882118.6344
  21142319.287   -22801114.45149 -17474039.10349  21142318.6174   21142322.4044
 98  4 21  5 39 59.9990000  0  9 15 23 25  3 21  8  1 31 29
  24072054.305    -5825798.98649  -4505340.52749  24072053.0044   24072058.2784
  23163539.536    11360235.46249   8845644.42049  23163538.7664   23163543.6994
  23293293.135   -11782797.50749  -9141741.06749  23293292.3894   23293297.2834
  22956602.247    -5420146.02549  -4209891.93149  22956601.2664   22956605.4404
  20990304.668    -9691071.57049  -7543384.17449  20990304.0854   20990307.6984
  22177783.812   -20727770.61449 -16143495.72849  22177782.7904   22177786.6444
  20300900.835   -26672420.71549 -20771935.57049  20300900.2094   20300903.9604
  22886213.731   -12463863.28249  -9700425.99549  22886213.4444   22886216.6494
  21131587.744   -22857509.03549 -17517982.92249  21131587.1574   21131590.4394
 98  4 21  5 40 29.9990000  0  9 15 23 25  3 21  8  1 31 29
  24050862.781    -5937160.53249  -4592115.69549  24050861.2454   24050866.9174
  23173061.522    11410274.53949   8884635.86349  23173060.6244   23173064.8304
  23274099.915   -11883658.33449  -9220333.89549  23274099.8864   23274102.5154
  22971005.263    -5344457.84149  -4150914.12649  22971005.5444   22971009.3864
  20992261.184    -9680790.35149  -7535372.82949  20992260.4414   20992264.2124
  22178821.559   -20722317.06949 -16139246.21549  22178820.9724   22178824.1704
  20303295.306   -26659837.50649 -20762130.46649  20303294.7124   20303298.3554
  22890406.594   -12441830.62549  -9683257.68549  22890406.4014   22890410.2194
  21120930.041   -22913515.46949 -17561624.28549  21120929.7754   21120932.9964
 98  4 21  5 40 59.9990000  0  9 15 23 25  3 21  8  1 31 29
  24029690.858    -6048420.47849  -4678811.67349  24029689.3024   24029693.5014
  23182607.146    11460436.38449   8923723.00049  23182606.1364   23182610.4814
  23254930.913   -11984392.24749  -9298827.82949  23254930.6174   23254933.6764
  22985451.626    -5268541.33149  -4091758.42149  22985451.3734   22985455.7034
  20994260.945    -9670281.24049  -7527183.90649  20994260.2364   20994263.9264
  22179975.026   -20716256.19649 -16134523.46949  22179974.5434   22179978.1604
  20305777.484   -26646793.65249 -20751966.42049  20305776.7234   20305780.5524
  22894698.198   -12419277.75049  -9665684.02949  22894696.6714   22894700.9774
  21110353.189   -22969097.17649 -17604934.69649  21110352.9774   21110356.3014
 98  4 21  5 41 29.9990000  0  9 15 23 25  3 21  8  1 31 29
  24008533.129    -6159605.39549  -4765449.20849  24008532.7394   24008535.8594
  23192170.691    11510692.98549   8962883.98449  23192169.6354   23192174.1094
  23235784.214   -12085008.01049  -9377229.69449  23235783.8024   23235788.0924
  22999938.255    -5192413.63949  -4032438.16349  22999936.8954   22999941.8144
  20996298.826    -9659572.34549  -7518839.30549  20996298.0454   20996302.0964
  22181238.203   -20709618.54949 -16129351.27149  22181237.3894   22181241.2524
  20308343.864   -26633307.27849 -20741457.55249  20308343.1574   20308346.8734
  22899085.858   -12396220.59149  -9647717.40749  22899085.0334   22899089.2394
  21099851.065   -23024285.84949 -17647938.84449  21099851.1274   21099853.9294
 98  4 21  5 41 59.9990000  0  9 15 23 25  3 21  8  1 31 29
  23987394.543    -6270689.86949  -4852008.47349  23987392.0944   23987397.5884
  23201754.300    11561055.47549   9002127.45749  23201754.2704   23201758.7684
  23216665.663   -12185476.62249  -9455516.90949  23216665.4374   23216668.7844
  23014469.458    -5116051.85949  -3972935.47449  23014468.4354   23014474.1234
  20998377.209    -9648650.20449  -7510328.55349  20998376.5664   20998380.2584
  22182618.765   -20702363.62449 -16123698.07649  22182618.0534   22182621.7434
  20310999.133   -26619353.76449 -20730584.67949  20310998.5984   20311002.2044
  22903574.353   -12372633.38849  -9629337.79649  22903573.8564   22903578.5644
  21089424.097   -23079079.86749 -17690635.46949  21089424.0764   21089427.3174
 98  4 21  5 42 29.9990000  0  9 15 23 25  3 21  8  1 31 29
  23966273.100    -6381683.47149  -4938496.92649  23966271.8654   23966276.6004
  23211356.026    11611512.21649   9041444.38649  23211354.4644   23211359.4664
  23197574.855   -12285799.29549  -9533690.39649  23197574.5634   23197578.0264
  23029042.253    -5039471.48849  -3913262.47149  23029042.5764   23029046.6664
  21000492.745    -9637533.15649  -7501665.91249  21000491.8424   21000495.7754
  22184118.168   -20694484.25649 -16117558.29449  22184117.2554   22184120.7164
  20313739.076   -26604955.19349 -20719365.00849  20313738.3424   20313741.9684
  22908161.247   -12348528.80249  -9610555.00349  22908160.9804   22908163.3024
  21079068.694   -23133497.80849 -17733039.04749  21079068.3754   21079071.7554
